[[{"header":{"parameterUnit":"m.s-1","parameterCategory":1,"la1":30.6,"la2":29.2853,"lo1":-89.7004,"lo2":-87.6739,"dy":0.0162,"dx":0.0183,"nx":112,"ny":82,"refTime":"2026-04-25T00:00:00:Z","depth":0,"parameterNumber":2,"parameterNumberName":"U-component_of_WINDS"},"data":[0.0,0.0,0.0,0.0,0.0,0.0,0.0,0.0,0.0,0.0,0.0,0.0,0.0,0.0,0.0,0.0,0.0,0.0,0.0,0.0,0.0,0.0,0.0,0.0,0.0,0.0,0.0,0.0,0.0,0.0,0.0,0.0,0.0,0.0,0.0,0.0,0.0,0.0,0.0,0.0,0.0,0.0,0.0,0.0,0.0,0.0,0.0,0.0,0.0,0.0,0.0,0.0,0.0,0.0,0.0,0.0,0.0,0.0,0.0,0.0,0.0,0.0,0.0,0.0,0.0,0.0,0.0,0.0,0.0,0.0,0.0,0.0,0.0,0.0,0.0,0.0,0.0,0.0,0.0,0.0,0.0,0.0,0.0,0.0,0.0,0.0,0.0,0.0,0.0,0.0,-3.3404,-3.6396,-4.104,-4.3172,-4.1256,-4.0249,-3.7331,-3.1745,0.0,0.0,0.0,0.0,0.0,0.0,0.0,0.0,0.0,0.0,0.0,0.0,0.0,0.0,0.0,0.0,0.0,0.0,0.0,0.0,0.0,0.0,0.0,0.0,0.0,0.0,0.0,0.0,0.0,0.0,0.0,0.0,0.0,0.0,0.0,0.0,0.0,0.0,0.0,0.0,0.0,0.0,0.0,0.0,0.0,0.0,0.0,0.0,0.0,0.0,0.0,0.0,0.0,0.0,0.0,0.0,0.0,0.0,0.0,0.0,0.0,0.0,0.0,0.0,0.0,0.0,0.0,0.0,0.0,0.0,0.0,0.0,0.0,0.0,0.0,0.0,0.0,0.0,0.0,0.0,0.0,0.0,0.0,0.0,0.0,0.0,0.0,0.0,0.0,0.0,0.0,0.0,0.0,0.0,0.0,0.0,0.0,0.0,0.0,0.0,0.0,0.0,0.0,0.0,-3.5196,-4.1078,-4.2836,-4.2903,-4.124,-3.9753,-3.6743,-3.1727,0.0,0.0,0.0,0.0,0.0,0.0,0.0,0.0,0.0,0.0,0.0,0.0,0.0,0.0,0.0,0.0,0.0,0.0,0.0,0.0,0.0,0.0,0.0,0.0,0.0,0.0,0.0,0.0,0.0,0.0,0.0,0.0,0.0,0.0,0.0,0.0,0.0,0.0,0.0,0.0,0.0,0.0,0.0,0.0,0.0,0.0,0.0,0.0,0.0,0.0,0.0,0.0,0.0,0.0,0.0,0.0,0.0,0.0,0.0,0.0,0.0,0.0,0.0,0.0,0.0,0.0,0.0,0.0,0.0,0.0,0.0,0.0,0.0,0.0,0.0,0.0,0.0,0.0,0.0,0.0,0.0,0.0,0.0,0.0,0.0,0.0,0.0,0.0,0.0,0.0,0.0,0.0,0.0,0.0,0.0,0.0,0.0,0.0,0.0,0.0,0.0,0.0,0.0,-3.2435,-3.6292,-4.1936,-4.312,-4.2837,-4.1242,-3.9627,-3.6615,-3.1709,-2.9072,0.0,0.0,0.0,0.0,0.0,0.0,0.0,0.0,0.0,0.0,0.0,0.0,0.0,0.0,0.0,0.0,0.0,0.0,0.0,0.0,0.0,0.0,0.0,0.0,0.0,0.0,0.0,0.0,0.0,0.0,0.0,0.0,0.0,0.0,0.0,0.0,0.0,0.0,0.0,0.0,0.0,0.0,0.0,0.0,0.0,0.0,0.0,0.0,0.0,0.0,0.0,0.0,0.0,0.0,0.0,0.0,0.0,0.0,0.0,0.0,0.0,0.0,0.0,0.0,0.0,0.0,0.0,0.0,0.0,0.0,0.0,0.0,0.0,0.0,0.0,0.0,0.0,0.0,0.0,0.0,0.0,0.0,0.0,0.0,0.0,0.0,0.0,0.0,0.0,0.0,0.0,0.0,0.0,0.0,0.0,0.0,0.0,0.0,0.0,0.0,0.0,0.0,-3.5555,-3.7811,-4.2121,-4.313,-4.2837,-4.1242,-3.9294,-3.6211,-3.169,-2.8026,0.0,0.0,0.0,0.0,0.0,0.0,0.0,0.0,0.0,0.0,0.0,0.0,0.0,0.0,0.0,0.0,0.0,0.0,0.0,0.0,0.0,0.0,0.0,0.0,0.0,0.0,0.0,0.0,0.0,0.0,0.0,0.0,0.0,0.0,0.0,0.0,0.0,0.0,0.0,0.0,0.0,0.0,0.0,0.0,0.0,0.0,0.0,0.0,0.0,0.0,0.0,0.0,0.0,0.0,0.0,0.0,0.0,0.0,0.0,0.0,0.0,0.0,0.0,0.0,0.0,0.0,0.0,0.0,0.0,0.0,0.0,0.0,0.0,0.0,0.0,0.0,0.0,0.0,0.0,0.0,0.0,0.0,0.0,0.0,0.0,0.0,0.0,0.0,0.0,0.0,0.0,0.0,0.0,0.0,0.0,0.0,0.0,0.0,0.0,0.0,0.0,0.0,-3.7202,-4.0543,-4.3147,-4.3478,-4.2837,-4.1242,-3.8248,-3.5018,-3.1617,-2.6979,0.0,0.0,0.0,0.0,0.0,0.0,0.0,0.0,0.0,0.0,0.0,0.0,0.0,0.0,0.0,0.0,0.0,0.0,0.0,0.0,0.0,0.0,0.0,0.0,0.0,0.0,0.0,0.0,0.0,0.0,0.0,0.0,0.0,0.0,0.0,0.0,0.0,0.0,0.0,0.0,0.0,0.0,0.0,0.0,0.0,0.0,0.0,0.0,0.0,0.0,0.0,0.0,0.0,0.0,0.0,0.0,0.0,0.0,0.0,0.0,0.0,0.0,0.0,0.0,0.0,0.0,0.0,0.0,0.0,0.0,0.0,0.0,0.0,0.0,0.0,0.0,0.0,0.0,0.0,0.0,0.0,0.0,0.0,0.0,0.0,0.0,0.0,0.0,0.0,0.0,0.0,0.0,0.0,0.0,0.0,0.0,0.0,0.0,0.0,0.0,0.0,0.0,-3.6064,-3.9148,-4.3092,-4.3039,-4.2304,-4.1187,-3.8615,-3.5436,-3.1635,0.0,0.0,0.0,0.0,0.0,0.0,0.0,0.0,0.0,0.0,0.0,0.0,0.0,0.0,0.0,0.0,0.0,0.0,0.0,0.0,0.0,0.0,0.0,0.0,0.0,0.0,0.0,0.0,0.0,0.0,0.0,0.0,0.0,0.0,0.0,0.0,0.0,0.0,0.0,0.0,0.0,0.0,0.0,0.0,0.0,0.0,0.0,0.0,0.0,0.0,0.0,0.0,0.0,0.0,0.0,0.0,0.0,0.0,0.0,0.0,0.0,0.0,0.0,0.0,0.0,0.0,0.0,0.0,0.0,0.0,0.0,0.0,0.0,0.0,0.0,0.0,0.0,0.0,0.0,0.0,0.0,0.0,0.0,0.0,0.0,0.0,0.0,0.0,0.0,0.0,0.0,0.0,0.0,0.0,0.0,0.0,0.0,0.0,0.0,0.0,0.0,0.0,-3.2724,-3.5771,-3.8891,-4.2708,-4.2635,-4.1974,-4.1168,-3.8175,-3.4922,-3.1617,0.0,0.0,0.0,0.0,0.0,0.0,0.0,0.0,0.0,0.0,0.0,0.0,0.0,0.0,0.0,0.0,0.0,0.0,0.0,0.0,0.0,0.0,0.0,0.0,0.0,0.0,0.0,0.0,0.0,0.0,0.0,0.0,0.0,0.0,0.0,0.0,0.0,0.0,0.0,0.0,0.0,0.0,0.0,0.0,0.0,0.0,0.0,0.0,0.0,0.0,0.0,0.0,0.0,0.0,0.0,0.0,0.0,0.0,0.0,0.0,0.0,0.0,0.0,0.0,0.0,0.0,0.0,0.0,0.0,0.0,0.0,0.0,0.0,0.0,0.0,0.0,0.0,0.0,0.0,0.0,0.0,0.0,0.0,0.0,0.0,0.0,0.0,0.0,0.0,0.0,0.0,0.0,0.0,0.0,0.0,0.0,0.0,0.0,0.0,0.0,0.0,0.0,-3.2179,-3.6853,-4.0487,-4.2103,-4.2286,-4.1956,-4.115,-3.6615,-3.3109,0.0,0.0,0.0,0.0,0.0,0.0,0.0,0.0,0.0,0.0,0.0,0.0,0.0,0.0,0.0,0.0,0.0,0.0,0.0,0.0,0.0,0.0,0.0,0.0,0.0,0.0,0.0,0.0,0.0,0.0,0.0,0.0,0.0,0.0,0.0,0.0,0.0,0.0,0.0,0.0,0.0,0.0,0.0,0.0,0.0,0.0,0.0,0.0,0.0,0.0,0.0,0.0,0.0,0.0,0.0,0.0,0.0,0.0,0.0,0.0,0.0,0.0,0.0,0.0,0.0,0.0,0.0,0.0,0.0,0.0,0.0,0.0,0.0,0.0,0.0,0.0,0.0,0.0,0.0,0.0,0.0,0.0,0.0,0.0,0.0,0.0,0.0,0.0,0.0,0.0,0.0,0.0,0.0,0.0,0.0,0.0,0.0,0.0,0.0,0.0,0.0,0.0,0.0,-3.2106,-3.5881,-3.9038,-4.1205,-4.0946,-4.0506,-4.0267,-3.6817,-3.3733,-3.1544,0.0,0.0,0.0,0.0,0.0,0.0,0.0,0.0,0.0,0.0,0.0,0.0,0.0,0.0,0.0,0.0,0.0,0.0,0.0,0.0,0.0,0.0,0.0,0.0,0.0,0.0,0.0,0.0,0.0,0.0,0.0,0.0,0.0,0.0,0.0,0.0,0.0,0.0,0.0,0.0,0.0,0.0,0.0,0.0,0.0,0.0,0.0,0.0,0.0,0.0,0.0,0.0,0.0,0.0,0.0,0.0,0.0,0.0,0.0,0.0,0.0,0.0,0.0,0.0,0.0,0.0,0.0,0.0,0.0,0.0,0.0,0.0,0.0,0.0,0.0,0.0,0.0,0.0,0.0,0.0,0.0,0.0,0.0,0.0,0.0,0.0,0.0,0.0,0.0,0.0,0.0,0.0,0.0,0.0,0.0,0.0,0.0,0.0,0.0,0.0,0.0,0.0,-3.1659,-3.5271,-3.83,-4.0396,-4.0194,-3.99,-3.99,-3.6894,-3.3977,-3.1562,0.0,0.0,0.0,0.0,0.0,0.0,0.0,0.0,0.0,0.0,0.0,0.0,0.0,0.0,0.0,0.0,0.0,0.0,0.0,0.0,0.0,0.0,0.0,0.0,0.0,0.0,0.0,0.0,0.0,0.0,0.0,0.0,0.0,0.0,0.0,0.0,0.0,0.0,0.0,0.0,0.0,0.0,0.0,0.0,0.0,0.0,0.0,0.0,0.0,0.0,0.0,0.0,0.0,0.0,0.0,0.0,0.0,0.0,0.0,0.0,0.0,0.0,0.0,0.0,0.0,0.0,0.0,0.0,0.0,0.0,0.0,0.0,0.0,0.0,0.0,0.0,0.0,0.0,0.0,0.0,0.0,0.0,0.0,0.0,0.0,0.0,0.0,0.0,0.0,0.0,0.0,0.0,0.0,0.0,0.0,0.0,0.0,0.0,0.0,0.0,0.0,0.0,-3.0993,-3.4904,-3.8006,-3.9606,-3.979,-3.979,-3.979,-3.6839,-3.3995,-3.1672,0.0,0.0,0.0,0.0,0.0,0.0,0.0,0.0,0.0,0.0,0.0,0.0,0.0,0.0,0.0,0.0,0.0,0.0,0.0,0.0,0.0,0.0,0.0,0.0,0.0,0.0,0.0,0.0,0.0,0.0,0.0,0.0,0.0,0.0,0.0,0.0,0.0,0.0,0.0,0.0,0.0,0.0,0.0,0.0,0.0,0.0,0.0,0.0,0.0,0.0,0.0,0.0,0.0,0.0,0.0,0.0,0.0,0.0,0.0,0.0,-3.1366,-2.9475,0.0,0.0,0.0,0.0,0.0,0.0,0.0,0.0,0.0,0.0,0.0,0.0,0.0,0.0,0.0,0.0,0.0,0.0,0.0,0.0,0.0,0.0,0.0,0.0,0.0,0.0,0.0,0.0,0.0,0.0,0.0,0.0,0.0,0.0,0.0,0.0,0.0,0.0,0.0,0.0,-3.0993,-3.4426,-3.7165,-3.8781,-3.8964,-3.8964,-3.8964,-3.6509,-3.4234,-3.2454,-2.7805,0.0,0.0,0.0,0.0,0.0,0.0,0.0,0.0,0.0,0.0,0.0,0.0,0.0,0.0,0.0,0.0,0.0,0.0,0.0,0.0,0.0,0.0,0.0,0.0,0.0,0.0,0.0,0.0,0.0,0.0,0.0,0.0,0.0,0.0,0.0,0.0,0.0,0.0,0.0,0.0,0.0,0.0,0.0,0.0,0.0,0.0,0.0,0.0,0.0,0.0,0.0,0.0,0.0,0.0,0.0,0.0,0.0,0.0,0.0,-3.5294,-3.3788,0.0,0.0,0.0,0.0,0.0,0.0,0.0,0.0,0.0,0.0,0.0,0.0,0.0,0.0,0.0,0.0,0.0,0.0,0.0,0.0,0.0,0.0,0.0,0.0,0.0,0.0,0.0,0.0,0.0,0.0,0.0,0.0,0.0,0.0,0.0,0.0,0.0,0.0,0.0,0.0,-3.0993,-3.4279,-3.6909,-3.8542,-3.8707,-3.8542,-3.8157,-3.6597,-3.4596,-3.2173,-2.8943,0.0,0.0,0.0,0.0,0.0,0.0,0.0,0.0,0.0,0.0,0.0,0.0,0.0,0.0,0.0,0.0,0.0,0.0,0.0,0.0,0.0,0.0,0.0,0.0,0.0,0.0,0.0,0.0,0.0,0.0,0.0,0.0,0.0,0.0,0.0,0.0,0.0,0.0,0.0,0.0,0.0,0.0,0.0,0.0,0.0,0.0,0.0,0.0,0.0,0.0,0.0,0.0,0.0,-4.1093,-4.157,-4.1939,-4.2086,-4.2508,-4.2947,-3.9625,-3.9001,-4.001,-3.6064,0.0,0.0,0.0,0.0,0.0,0.0,0.0,0.0,0.0,0.0,0.0,0.0,0.0,0.0,0.0,0.0,0.0,0.0,0.0,0.0,0.0,0.0,-3.1403,0.0,-3.2161,-3.2289,-2.8803,0.0,0.0,0.0,0.0,0.0,0.0,0.0,0.0,0.0,0.0,0.0,-3.1201,-3.4339,-3.6909,-3.8542,-3.8707,-3.8377,-3.7566,-3.6758,-3.5018,-3.2021,-3.0191,-2.7666,0.0,0.0,0.0,0.0,0.0,0.0,0.0,0.0,0.0,0.0,0.0,0.0,0.0,0.0,0.0,0.0,0.0,0.0,0.0,0.0,0.0,0.0,0.0,0.0,0.0,0.0,0.0,0.0,0.0,0.0,0.0,0.0,-3.1064,-3.1198,0.0,0.0,0.0,0.0,0.0,0.0,0.0,0.0,0.0,0.0,0.0,0.0,0.0,-4.0923,-4.1399,-4.3702,-4.4233,-4.3074,-4.5865,-4.6526,-4.5296,-4.5993,-4.636,-4.6434,-4.5902,0.0,-4.1735,-3.8392,0.0,0.0,0.0,0.0,0.0,0.0,0.0,0.0,0.0,0.0,0.0,0.0,0.0,0.0,0.0,0.0,0.0,0.0,0.0,0.0,0.0,0.0,-3.617,-3.4711,-3.511,-3.5459,0.0,-3.1225,-2.851,-2.7383,-2.5548,-2.3621,0.0,0.0,0.0,0.0,0.0,0.0,-3.2032,-3.4706,-3.6909,-3.8542,-3.8707,-3.8377,-3.7566,-3.6758,-3.5495,-3.3605,-3.1329,-2.9482,-2.8271,-2.4859,0.0,0.0,0.0,0.0,0.0,0.0,0.0,0.0,0.0,0.0,0.0,0.0,0.0,0.0,0.0,0.0,0.0,0.0,0.0,0.0,0.0,0.0,0.0,0.0,0.0,0.0,0.0,0.0,0.0,-3.1673,-3.3846,-3.3846,-3.4496,-3.399,0.0,0.0,0.0,0.0,0.0,0.0,0.0,0.0,0.0,-4.2777,-4.4342,-4.5635,-4.6586,-4.8587,-4.9026,-4.7952,-4.9361,-4.9566,-4.8655,-4.8545,-4.8508,-4.8471,-4.7994,-4.6985,-4.5461,-4.269,-4.0818,-3.9386,0.0,0.0,0.0,0.0,-3.533,-3.6119,-3.667,-3.7077,-3.7151,-3.5789,0.0,0.0,0.0,0.0,0.0,0.0,0.0,-3.2729,0.0,0.0,-3.7547,-3.7716,-3.8046,-3.8212,-3.7845,-3.5661,-3.2981,-3.035,-2.9696,-2.8356,-2.4493,-2.4199,0.0,0.0,0.0,-3.0155,-3.2926,-3.544,-3.7422,-3.8579,-3.8303,-3.7698,-3.6905,-3.6046,-3.4857,-3.3238,-3.1715,-3.032,-2.906,-2.6859,-2.4685,0.0,0.0,0.0,0.0,0.0,0.0,0.0,0.0,0.0,0.0,0.0,0.0,0.0,0.0,0.0,0.0,0.0,0.0,0.0,0.0,0.0,0.0,0.0,0.0,0.0,0.0,0.0,0.0,-3.4346,-3.6776,-3.6776,-3.8147,-3.7893,0.0,0.0,0.0,0.0,0.0,0.0,-4.1492,-4.296,-4.472,-4.6845,-4.8529,-4.9822,-5.0734,-5.1986,-5.2196,-5.1409,-5.1409,-5.1195,-5.0784,-5.0178,-4.9794,-4.9555,-4.8912,-4.8508,-4.8141,-4.592,-4.4305,-4.3002,-4.0799,-3.9551,-3.9035,-3.9035,-3.9533,-4.0377,-4.1368,-4.1847,-4.1682,-3.9696,-3.808,-3.6413,-3.3765,0.0,0.0,0.0,0.0,-3.4472,-3.5885,-3.7331,-3.8707,-3.9918,-4.0047,-3.99,-3.99,-3.8796,-3.6795,-3.3324,-3.344,-3.2577,-2.7761,-2.742,0.0,-2.7027,-2.9145,-3.1696,-3.4137,-3.6244,-3.7823,-3.8615,-3.7988,-3.718,-3.6358,-3.55,-3.4399,-3.3005,-3.1953,-3.0852,-2.9647,-2.8448,-2.6484,-2.3676,0.0,0.0,0.0,0.0,0.0,0.0,0.0,0.0,0.0,0.0,0.0,0.0,0.0,0.0,0.0,0.0,0.0,0.0,0.0,0.0,0.0,0.0,0.0,0.0,0.0,0.0,0.0,0.0,0.0,-4.0246,-4.1777,0.0,0.0,0.0,0.0,-4.0902,-4.2138,-4.3566,-4.5231,-4.7663,-4.9452,-5.0404,-5.2068,-5.2787,-5.2475,-5.2571,-5.2196,-5.1409,-5.1409,-5.1195,-5.0802,-5.0765,-5.0306,-4.961,-4.9555,-4.9058,-4.8177,-4.6526,-4.5792,-4.5553,-4.3901,-4.3239,-4.3203,-4.3203,-4.3699,-4.4305,-4.3608,-4.3883,-4.4378,-4.3479,-4.1093,-3.8414,-3.7474,-3.6083,0.0,0.0,-3.7184,-3.8597,-3.9423,-4.0286,-4.093,-4.1022,-4.0469,-3.99,-3.99,-3.9239,-3.8138,0.0,-3.5445,-3.4124,-3.1544,0.0,-3.114,-3.1103,-3.1898,-3.3371,-3.5862,-3.696,-3.7823,-3.8615,-3.7988,-3.718,-3.6358,-3.55,-3.4637,-3.3788,-3.2265,-3.136,-3.1286,-2.9046,-2.7008,-2.5301,-2.3749,0.0,0.0,0.0,0.0,0.0,0.0,0.0,0.0,0.0,0.0,0.0,0.0,0.0,0.0,0.0,0.0,0.0,0.0,0.0,0.0,0.0,0.0,0.0,0.0,0.0,0.0,0.0,0.0,-4.2874,-4.4932,0.0,-4.3066,-4.3667,-4.4175,-4.4103,-4.652,-4.8249,-4.8846,-5.076,-5.1991,-5.2299,-5.3433,-5.3968,-5.3812,-5.433,-5.4326,-5.3777,-5.3518,-5.3153,-5.2695,-5.1919,-5.1408,-5.1098,-4.9994,-4.9352,-4.8985,-4.7884,-4.7443,-4.7352,-4.625,-4.5828,-4.5755,-4.5241,-4.5553,-4.6122,-4.5314,-4.5571,-4.5938,-4.4103,-4.2011,-4.0178,-3.99,-3.9389,-3.8985,-3.9297,-3.9808,-4.0432,-4.124,-4.1662,-4.2011,-4.2525,-4.2029,-4.1295,-4.0781,-4.0047,-3.9148,-3.8065,-3.7184,-3.5826,-3.3366,-3.3366,-3.3537,-3.3018,-3.41,-3.5495,-3.6905,-3.7771,-3.8377,-3.867,-3.7514,-3.6611,-3.6321,-3.4546,-3.3335,-3.3041,-3.1531,-3.0632,-3.0632,-2.8796,-2.7291,-2.619,-2.4593,-2.2272,0.0,0.0,0.0,0.0,0.0,0.0,0.0,0.0,0.0,0.0,0.0,0.0,0.0,0.0,0.0,0.0,0.0,0.0,0.0,0.0,0.0,0.0,0.0,0.0,0.0,-4.1335,-4.4682,-4.549,-4.7586,-4.8317,-4.6624,-4.7759,-4.8471,-4.8182,-5.026,-5.1529,-5.1529,-5.2876,-5.3645,-5.3645,-5.4453,-5.4895,-5.4895,-5.5434,-5.5501,-5.5107,-5.4686,-5.4255,-5.3777,-5.2828,-5.2252,-5.1903,-5.0527,-4.9774,-4.9462,-4.8636,-4.8306,-4.8251,-4.77,-4.7498,-4.7443,-4.6911,-4.7058,-4.7424,-4.6893,-4.6893,-4.6782,-4.4911,-4.3406,-4.2251,-4.1992,-4.1919,-4.1919,-4.1919,-4.1919,-4.2029,-4.2561,-4.269,-4.2837,-4.3369,-4.2892,-4.2084,-4.126,-4.0469,-3.9662,-3.8854,-3.8267,-3.7309,-3.5367,-3.5495,-3.5661,-3.5128,-3.5991,-3.7015,-3.7804,-3.8377,-3.8707,-3.8707,-3.7257,-3.6303,-3.6303,-3.4027,-3.2601,-3.2601,-3.1091,-3.0081,-2.9812,-2.8503,-2.7291,-2.6227,-2.4355,-2.2575,-2.0933,0.0,0.0,0.0,0.0,0.0,0.0,0.0,0.0,0.0,0.0,0.0,0.0,0.0,0.0,0.0,0.0,0.0,0.0,0.0,0.0,0.0,0.0,0.0,-4.0516,-4.4278,-4.7259,-4.8086,-4.9683,-5.075,-5.0789,-5.1491,-5.2288,-5.3145,-5.3241,-5.3241,-5.3241,-5.4068,-5.453,-5.453,-5.528,-5.5703,-5.5703,-5.5703,-5.5501,-5.5101,-5.4705,-5.4255,-5.3814,-5.3381,-5.2766,-5.1958,-5.1151,-5.0343,-4.9537,-4.8655,-4.8306,-4.8306,-4.8306,-4.8306,-4.8306,-4.8306,-4.8306,-4.8306,-4.8306,-4.7755,-4.6966,-4.6159,-4.5369,-4.4562,-4.3736,-4.3515,-4.3515,-4.3515,-4.3515,-4.3515,-4.3515,-4.3515,-4.3515,-4.3515,-4.2892,-4.2121,-4.1279,-4.0487,-3.968,-3.8854,-3.8707,-3.845,-3.7676,-3.7547,-3.7547,-3.7547,-3.7547,0.0,-3.8597,-3.8707,-3.8707,-3.8707,-3.7257,-3.6303,-3.6303,-3.4009,-3.2564,-3.2564,-3.1035,-2.9787,-2.9023,-2.8209,-2.7027,-2.5429,-2.3079,-2.1849,-2.1794,0.0,0.0,0.0,0.0,0.0,0.0,0.0,0.0,0.0,0.0,0.0,0.0,0.0,0.0,0.0,0.0,0.0,0.0,0.0,0.0,0.0,-4.0315,-4.2989,-4.322,-4.5855,-4.8317,-4.9798,-5.0914,-5.1818,-5.2452,-5.2722,-5.2953,-5.3183,-5.3799,-5.4145,-5.4145,-5.4914,-5.5376,-5.5376,-5.5568,-5.5703,-5.5703,-5.5703,-5.5651,-5.5524,-5.4819,-5.442,-5.4272,-5.3543,-5.2766,-5.1958,-5.1151,-5.0343,-4.9537,-4.8655,-4.8306,-4.8306,-4.8306,-4.8306,-4.8306,-4.8306,-4.8306,-4.8306,-4.8306,-4.7755,-4.6966,-4.6159,-4.5369,-4.4562,-4.3736,-4.3515,-4.3515,-4.3515,-4.3515,-4.3515,-4.3515,-4.3515,-4.3515,-4.3515,-4.3331,-4.2782,-4.1389,-4.093,-4.0359,-3.8982,-3.8707,-3.8634,-3.8414,-3.8377,-3.8377,-3.8377,-3.8377,0.0,-3.867,-3.8707,-3.8707,-3.8707,-3.7257,-3.6303,-3.6303,-3.3495,-3.1733,-3.1733,-2.9659,-2.8613,-2.8987,-2.7666,-2.6447,-2.5411,-2.4181,-2.2969,0.0,0.0,0.0,0.0,0.0,0.0,0.0,0.0,0.0,0.0,0.0,0.0,0.0,0.0,0.0,0.0,0.0,0.0,0.0,0.0,0.0,0.0,-4.3585,-4.6144,-4.6874,-4.8259,-4.9837,-5.1529,-5.2164,-5.2933,-5.4126,-5.4241,-5.4241,-5.4241,-5.4722,-5.4991,-5.4991,-5.5453,-5.5703,-5.5703,-5.5703,-5.5703,-5.5703,-5.5703,-5.5703,-5.5684,-5.4876,-5.4503,-5.4471,-5.3602,-5.2766,-5.1958,-5.1151,-5.0343,-4.9537,-4.8655,-4.8306,0.0,0.0,0.0,0.0,0.0,-4.8306,-4.8306,-4.8306,-4.7975,-4.7461,-4.6673,-4.5865,-4.5057,-4.425,-4.3754,-4.3515,-4.3515,-4.3515,-4.3515,-4.3515,-4.3515,-4.3515,-4.3515,-4.3515,-4.3057,-4.1444,-4.1095,-4.0618,-3.9019,-3.8707,0.0,-3.8707,-3.8707,-3.8707,-3.8707,-3.8707,-3.8707,-3.8707,-3.8707,-3.8707,-3.8707,-3.7257,-3.6303,-3.6303,-3.3605,0.0,0.0,0.0,-2.8705,-2.8521,-2.7281,0.0,0.0,0.0,0.0,0.0,0.0,0.0,0.0,-2.1667,-2.1584,0.0,0.0,0.0,0.0,0.0,0.0,0.0,0.0,0.0,0.0,0.0,0.0,0.0,0.0,0.0,0.0,-4.6644,-4.8817,-5.0481,-5.0712,-5.1318,-5.301,-5.3203,-5.3857,-5.553,-5.5703,-5.5703,-5.5703,-5.5703,-5.5703,-5.5703,-5.5703,0.0,0.0,0.0,-5.5703,-5.5703,-5.5703,-5.5703,-5.5684,-5.4876,-5.4503,-5.4471,-5.3491,-5.2637,-5.1811,-5.1004,-5.0196,-4.939,-4.8618,-4.8306,-4.8306,-4.8306,-4.8251,-4.8159,-4.8159,-4.8159,-4.8159,-4.8159,0.0,0.0,-4.7351,-4.6562,-4.5755,-4.4947,-4.414,-4.3515,-4.3515,-4.3515,-4.3515,-4.3515,-4.3515,-4.3515,-4.3515,-4.3441,-4.2947,-4.1425,-4.1022,-4.0508,-3.9001,-3.8707,-3.8707,-3.8707,-3.8707,-3.8707,-3.8707,-3.8707,-3.8707,-3.8707,-3.8707,-3.8707,-3.8707,0.0,0.0,-3.6303,-3.4027,-3.2302,-3.1568,-3.0779,-2.9641,-2.8128,-2.7383,-2.7016,-2.7016,-2.6914,-2.6859,-2.6859,-2.6859,-2.6914,-2.6932,-2.3887,-2.3612,0.0,0.0,0.0,0.0,0.0,0.0,0.0,0.0,0.0,0.0,0.0,0.0,0.0,0.0,0.0,-4.5932,-4.7952,-4.951,-5.0558,-5.0712,-5.1318,-5.301,-5.3203,-5.3857,-5.553,-5.5703,-5.5703,-5.5703,-5.5703,-5.5703,-5.5703,-5.5703,-5.5703,-5.5703,-5.5703,-5.5703,-5.5703,-5.5703,-5.5703,-5.5684,-5.4876,0.0,-5.4452,-5.2936,-5.1793,-5.0986,-5.0178,-4.9334,-4.8545,-4.8379,-4.8306,-4.8306,-4.8306,-4.7901,-4.7333,-4.7333,-4.7333,-4.7333,-4.7333,-4.7755,-4.8177,-4.7351,-4.6562,-4.5755,-4.4947,-4.414,0.0,-4.3515,-4.3515,-4.3515,-4.3515,-4.3515,-4.3515,-4.3515,-4.3002,-4.2268,-4.1297,-4.0598,-3.9845,-3.8891,-3.8707,-3.8707,-3.8707,-3.8707,-3.8707,-3.8707,-3.8707,-3.8707,-3.8707,-3.8707,-3.8707,-3.8707,-3.7257,-3.6303,-3.6303,-3.4027,-3.2528,-3.2381,-3.1604,-3.0742,-2.9787,-2.9586,-2.9512,-2.9512,-2.8877,-2.8546,-2.8546,-2.8546,-2.8877,-2.9457,-2.753,-2.6898,0.0,0.0,0.0,0.0,0.0,0.0,0.0,0.0,0.0,0.0,0.0,-3.8777,-4.1335,0.0,-4.5701,-4.7817,-4.9221,-5.0212,-5.0635,-5.0712,-5.1318,-5.301,-5.3203,-5.3857,-5.553,-5.5703,-5.5703,-5.5703,-5.5703,-5.5703,-5.5703,-5.5703,-5.5703,-5.5703,-5.5703,-5.5703,-5.5703,-5.5703,-5.5703,-5.5684,-5.4876,-5.4258,-5.3808,-5.2566,-5.1334,-5.0178,-4.9776,-4.9095,-4.8306,-4.8306,-4.8306,-4.8269,-4.7846,-4.7443,-4.7058,-4.6636,-4.6507,-4.6507,-4.6507,-4.6764,-4.704,-4.6636,-4.5975,-4.5223,-4.4837,-4.414,-4.3515,-4.3515,-4.3515,-4.3515,-4.3515,-4.3515,-4.3515,-4.3515,-4.2892,-4.2084,-4.126,-4.0469,-3.9662,-3.8854,-3.8707,-3.8707,-3.8707,-3.8707,-3.8707,-3.8707,-3.8707,-3.8707,-3.8707,-3.8707,-3.856,-3.8138,-3.7019,-3.6119,-3.5697,-3.3775,-3.2601,-3.2601,-3.1843,-3.1231,-3.0815,-3.0797,-3.0797,-3.0797,-3.0411,-3.021,-3.021,-3.021,-3.0411,-3.0797,-3.0393,-2.9989,0.0,0.0,0.0,0.0,0.0,0.0,0.0,-3.5776,-3.6699,-3.9392,-4.0527,-4.1893,-4.4759,-4.6432,-4.7875,-4.9413,-5.025,-5.0712,-5.0712,-5.0712,-5.126,-5.2779,-5.2953,-5.3606,-5.5299,-5.5472,-5.553,-5.5684,-5.5703,-5.5703,-5.5703,-5.5703,-5.5703,-5.5703,-5.5703,-5.5703,-5.5703,-5.5703,-5.5703,-5.5684,-5.4876,-5.4031,-5.3167,-5.2214,-5.0987,-4.9592,-4.9427,-4.8948,-4.8306,-4.8306,-4.8306,-4.8214,-4.7241,-4.6856,-4.6764,-4.5957,-4.5663,-4.5663,-4.5663,-4.5773,-4.5902,-4.5902,-4.5369,-4.4691,-4.4691,-4.414,-4.3515,-4.3515,-4.3515,-4.3515,-4.3515,-4.3515,-4.3515,-4.3515,-4.2763,-4.1901,-4.1242,-4.0359,-3.9478,-3.8836,-3.8707,-3.8707,-3.8707,-3.8707,-3.8707,-3.8707,-3.8707,-3.8707,-3.8707,-3.8707,-3.8395,-3.7584,-3.6795,-3.5881,-3.4857,-3.3573,-3.2821,-3.2821,-3.221,-3.1874,-3.1874,-3.1727,-3.1709,-3.1856,-3.1709,-3.1709,-3.1874,-3.1874,-3.1874,-3.1892,-3.254,-3.2412,-3.3968,-3.3276,-3.3603,-3.6565,-3.6315,-3.7115,0.0,-4.3662,-4.3028,-4.6297,-4.7048,-4.7471,-4.8625,-4.899,-4.9433,-5.0404,-5.0635,-5.0712,-5.0712,-5.0712,-5.1029,-5.1942,-5.2038,-5.2731,-5.4472,-5.4626,-5.4934,-5.5645,-5.5703,-5.5703,-5.5703,-5.5703,-5.5703,-5.5703,-5.5703,-5.5703,-5.5703,-5.5703,-5.5703,-5.5684,-5.4876,-5.4031,-5.3148,-5.1639,-5.0453,-4.9555,-4.8783,-4.8398,-4.8306,-4.8306,-4.8306,-4.8159,-4.6636,-4.603,-4.5938,-4.5131,-4.4837,-4.4837,-4.4837,-4.5296,-4.5902,-4.5902,-4.5369,-4.4691,-4.4691,-4.414,-4.3515,-4.3515,-4.3515,-4.3515,-4.3515,-4.3515,-4.3515,-4.3515,-4.2341,-4.1205,-4.1113,-3.9918,-3.8817,-3.8726,-3.8707,-3.8707,-3.8707,-3.8707,-3.8707,-3.8707,-3.8707,-3.8707,-3.8707,-3.8707,-3.8395,-3.7584,-3.6795,-3.5661,-3.4064,-3.377,-3.3678,-3.3678,-3.3587,-3.3532,-3.3532,-3.2852,-3.2803,-3.3513,-3.2821,-3.2816,-3.3532,-3.3532,-3.3532,-3.3532,-3.3623,-3.3238,-3.8584,-3.7988,-3.7796,-3.9738,-4.0796,-4.22,-4.5413,-4.5701,-4.599,-4.8375,-4.8856,-4.9125,-4.999,-5.0173,-5.0289,-5.0635,-5.0712,-5.0712,-5.0712,-5.0712,-5.0827,-5.1164,-5.1202,-5.1875,-5.3587,-5.4203,-5.4645,-5.4972,-5.5434,-5.5703,-5.5703,-5.5703,-5.5703,-5.5703,-5.5703,-5.5703,-5.5703,-5.5703,-5.5703,-5.5684,-5.4876,-5.3802,-5.2462,-5.1324,-5.0086,-4.882,-4.8471,-4.8306,-4.8306,-4.8306,-4.8012,-4.748,-4.6342,-4.5608,-4.5112,-4.4305,-4.3993,-4.3993,-4.3993,-4.4213,-4.4488,-4.4488,-4.4268,-4.3993,-4.3993,-4.3754,-4.3515,-4.3515,-4.3515,-4.3515,-4.3515,-4.3515,-4.3515,-4.3515,-4.2268,-4.1095,-4.1095,-3.9829,-3.8707,-3.8707,-3.8707,-3.8707,-3.8707,-3.8707,-3.8707,-3.8707,-3.8707,-3.8707,-3.8707,-3.8707,-3.8395,-3.7584,-3.6321,-3.5261,-3.4564,-3.4082,-3.3807,-3.3807,-3.3807,-3.3807,-3.3807,-3.3476,-3.3458,-3.3788,-3.3476,-3.3458,-3.3807,-3.3807,-3.3807,-3.3807,-3.3807,-3.3623,-4.1008,-4.0989,-4.1181,-4.2508,-4.4412,-4.6067,-4.6537,-4.7144,-4.8009,-4.9452,-4.976,-4.9952,-5.0577,-5.0712,-5.0712,-5.0712,-5.0712,-5.0712,-5.0712,-5.0712,-5.0712,-5.0712,-5.0712,-5.1193,-5.2395,-5.328,-5.3972,-5.4453,-5.503,-5.5472,-5.5684,-5.5703,-5.5703,-5.5703,-5.5703,-5.5703,-5.5703,-5.5703,-5.5703,-5.5684,-5.4876,-5.3613,-5.1967,-5.0694,-4.9462,-4.8306,-4.8306,-4.8306,-4.8306,-4.8306,-4.7828,-4.7021,-4.6214,-4.5406,-4.4617,-4.3791,-4.3515,-4.3515,-4.3515,-4.3515,-4.3515,-4.3515,-4.3515,-4.3515,-4.3515,-4.3515,-4.3515,-4.3515,-4.3515,-4.3515,-4.3515,-4.3515,-4.3515,-4.3515,-4.2433,-4.137,-4.115,-4.001,-3.8964,-3.8744,-3.8707,-3.8707,-3.8707,-3.8707,-3.8707,-3.8707,-3.8707,-3.8707,-3.8707,-3.8505,-3.8138,-3.7566,-3.6009,-3.5004,-3.5004,-3.4266,-3.3807,-3.3807,-3.3807,-3.3807,-3.3807,-3.3807,-3.3807,-3.3807,-3.3807,-3.3807,-3.3807,-3.4027,-3.4137,-3.4137,-3.4376,-3.4486,-3.9573,-4.0546,-4.2354,-4.4863,-4.6182,-4.7298,-4.8913,-4.9317,-4.9586,-5.0481,-5.0654,-5.0673,-5.0712,-5.0712,-5.0712,-5.0712,-5.0712,-5.0712,-5.0712,-5.0712,-5.0712,-5.0712,-5.0712,-5.0731,-5.077,-5.151,-5.2673,-5.4376,-5.4511,-5.4876,-5.5665,-5.5703,-5.5703,-5.5703,-5.5703,-5.5703,-5.5703,-5.5703,-5.5703,-5.5684,-5.4876,-5.3613,-5.1911,-4.9471,-4.8361,-4.8306,-4.8306,-4.8306,-4.8306,-4.8306,-4.7828,-4.7021,-4.6214,-4.5406,-4.4617,-4.3791,-4.3515,-4.3515,-4.3515,-4.3515,-4.3515,-4.3515,-4.3515,-4.3515,-4.3515,-4.3515,-4.3515,-4.3515,-4.3515,-4.3515,-4.3515,-4.3515,-4.3515,-4.3515,-4.2873,-4.2047,-4.126,-4.0451,-3.9625,-3.8854,-3.8707,-3.8707,-3.8707,-3.8707,-3.8707,-3.8707,-3.8707,-3.8707,-3.8707,-3.801,-3.7529,-3.7492,-3.6009,-3.5004,-3.5004,-3.4266,-3.3807,-3.3807,-3.3807,-3.3807,-3.3807,-3.3807,-3.3807,-3.3807,-3.3807,-3.3807,-3.3807,-3.4582,-3.4968,-3.4986,-3.5826,-3.6211,-4.222,-4.3451,-4.4797,-4.6778,-4.7913,-4.8856,-4.999,-5.0269,-5.0183,-4.9894,-4.9375,-4.8971,-4.8971,-4.8548,-4.8548,-4.9663,-4.9837,-5.0029,-5.0616,-5.0712,-5.0712,-5.0712,-5.0712,-5.0712,-5.0712,-5.1433,-5.2135,-5.2731,-5.3857,-5.4626,-5.4895,-5.5415,-5.5703,-5.5703,-5.5703,-5.5703,-5.5703,-5.5435,-5.5306,-5.5275,-5.3368,-5.1721,-5.036,-4.8937,-4.8306,-4.8306,-4.8306,-4.8306,-4.8306,-4.8306,-4.7517,-4.6287,-4.6012,-4.5076,-4.3864,-4.3606,-4.3515,-4.3515,-4.3515,-4.3515,-4.3515,-4.3515,-4.3515,-4.3515,-4.3515,-4.3515,-4.3515,-4.3515,-4.3515,-4.3515,-4.3515,-4.3515,-4.3515,-4.3515,-4.2892,-4.2231,-4.1956,-4.0836,-3.9808,-3.9551,-3.9074,-3.8707,-3.8707,-3.8707,-3.8707,-3.8707,-3.8707,-3.8707,-3.8707,-3.8469,-3.8303,-3.8303,-3.7312,-3.6431,-3.5917,-3.5078,-3.4362,-3.3825,-3.3807,-3.3807,-3.3807,-3.3807,-3.3807,-3.3807,-3.3807,-3.4064,-3.4601,-3.4876,-3.5298,-3.5881,-3.6156,-3.6303,-4.4547,-4.5643,-4.6528,-4.8529,-4.9452,-5.001,-5.0577,-5.0462,-4.999,-4.9125,-4.8009,-4.7201,-4.7201,-4.6297,-4.6297,-4.8567,-4.8682,-4.9009,-5.05,-5.0712,-5.0712,-5.0712,-5.0712,-5.0712,-5.0712,-5.1164,-5.1587,-5.1885,-5.3241,-5.4164,-5.4472,-5.5261,-5.5703,-5.5703,-5.5703,-5.5703,-5.5703,-5.5306,-5.4868,-5.4387,-5.2083,-5.0543,-4.975,-4.875,-4.8306,-4.8306,-4.8306,-4.8306,-4.8306,-4.8306,-4.7352,-4.5902,-4.5902,-4.4911,-4.3515,-4.3515,-4.3515,-4.3515,-4.3515,-4.3515,-4.3515,-4.3515,-4.3515,-4.3515,-4.3515,-4.3515,-4.3515,-4.3515,-4.3515,-4.3515,-4.3515,-4.3515,-4.3515,-4.3515,-4.3112,-4.2653,-4.2359,-4.1258,-4.023,-3.9955,-3.9239,-3.8707,-3.8707,-3.8707,-3.8707,-3.8707,-3.8707,-3.8707,-3.8707,-3.8707,-3.8707,-3.8707,-3.7988,-3.729,-3.6776,-3.5665,-3.4784,-3.4266,-3.3972,-3.3807,-3.3807,-3.3807,-3.3935,-3.4215,-3.4215,-3.4637,-3.5463,-3.5738,-3.6174,-3.6725,-3.7019,-3.7165,-4.6278,-4.7019,-4.7682,-5.0096,-5.0712,-5.0693,-5.0635,-4.9933,-4.899,-4.8048,-4.6471,-4.5267,-4.5229,-4.397,-4.4047,-4.7375,-4.7375,-4.7836,-5.0346,-5.0712,-5.0712,-5.0712,-5.0712,-5.0712,-5.0712,-5.0712,-5.1029,-5.1846,-5.2712,-5.3568,-5.4395,-5.5241,-5.5703,-5.5703,-5.5703,-5.5703,-5.5703,-5.5243,-5.4335,-5.301,-5.1095,-5.0109,-4.9998,-4.8827,-4.8306,-4.8306,-4.8306,-4.8306,-4.8306,-4.8306,-4.7352,-4.5902,-4.5902,-4.4911,-4.3515,-4.3515,-4.3515,-4.3515,-4.3515,-4.3515,-4.3515,-4.3515,-4.3515,-4.3515,-4.3515,-4.3515,-4.3515,-4.3515,-4.3515,-4.3515,-4.3515,-4.3515,-4.3515,-4.3515,-4.3515,-4.3277,-4.2525,-4.1699,-4.0857,-4.0102,-3.9276,-3.8707,-3.8707,-3.8707,-3.8707,-3.8707,-3.8707,-3.8707,-3.8707,-3.8707,-3.8707,-3.8707,-3.801,-3.7547,-3.7492,-3.6046,-3.5114,-3.5078,-3.4307,-3.388,-3.3935,-3.388,-3.4247,-3.5059,-3.5078,-3.5481,-3.6358,-3.7125,-3.7529,-3.7584,-3.834,-3.8707,-4.7278,-4.874,-4.9894,-5.0539,-5.0712,-5.0539,-4.9875,-4.8586,-4.6951,-4.4816,-4.2527,-4.0708,-4.0065,-4.0604,-4.2055,-4.4816,-4.6682,-4.8471,-5.0442,-5.0712,-5.0712,-5.0712,-5.0712,-5.0712,-5.0712,-5.0712,-5.1029,-5.1846,-5.2712,-5.3299,-5.353,-5.4914,-5.5703,-5.5703,-5.5703,-5.5703,-5.5703,-5.4373,-5.274,-5.0878,-5.012,-4.9547,-4.9196,-4.8587,-4.8306,-4.8306,-4.8306,-4.8306,-4.8306,-4.8306,-4.7352,-4.5902,-4.5902,-4.4911,-4.3515,-4.3515,-4.3515,-4.3515,-4.3515,-4.3515,-4.3515,-4.3515,-4.3515,-4.3515,-4.3515,-4.3515,-4.3515,-4.3515,-4.3515,-4.3515,-4.3515,-4.3515,-4.3515,-4.3515,-4.3515,-4.3441,-4.3239,-4.2084,-4.104,-4.082,-3.9662,-3.8707,-3.8707,-3.8707,-3.8707,-3.8707,-3.8707,-3.8707,-3.8707,-3.8707,-3.8707,-3.8707,-3.8524,-3.8138,-3.7547,-3.7107,-3.6597,-3.6009,-3.5169,-3.4986,-3.5642,-3.5041,-3.5096,-3.5954,-3.5973,-3.6376,-3.7199,-3.7401,-3.7823,-3.8395,-3.8597,-3.8707,-4.8779,-4.9952,-5.0712,-5.0712,-5.0423,-4.9702,-4.8086,-4.6432,-4.4297,-4.0969,-3.8565,-3.6918,-3.6411,-3.711,-3.8938,-4.2604,-4.5028,-4.7298,-4.9779,-5.0462,-5.0712,-5.0712,-5.0712,-5.0712,-5.0712,-5.0712,-5.1029,-5.1846,-5.2712,-5.3376,-5.376,-5.4991,-5.5703,-5.5703,-5.5357,-5.4813,-5.4078,-5.2793,-5.1453,-5.0091,-4.9381,-4.8975,-4.888,-4.8477,-4.8306,-4.8306,-4.8306,-4.8306,-4.8306,-4.8306,-4.7352,-4.5902,-4.5902,-4.4911,-4.3515,-4.3515,-4.3515,-4.3515,-4.3515,-4.3515,-4.3515,-4.3515,-4.3515,-4.3515,-4.3515,-4.3515,-4.3515,-4.3515,-4.3515,-4.3515,-4.3515,-4.3515,-4.3515,-4.3515,-4.3515,-4.3515,-4.3515,-4.2506,-4.1423,-4.0708,-3.957,-3.8707,-3.8707,-3.8707,-3.8707,-3.8707,-3.8707,-3.8707,-3.8707,-3.8707,-3.8707,-3.8707,-3.8707,-3.8524,-3.8065,-3.7694,-3.7309,-3.6868,-3.6046,-3.5789,-3.6266,-3.5844,-3.5973,-3.6813,-3.6831,-3.7217,-3.8028,-3.8028,-3.8267,-3.8707,-3.8707,-3.8707,-5.0269,-5.0712,-5.0712,-5.0712,-4.9952,-4.8567,-4.6018,-4.3874,-4.1239,-3.7065,-3.4776,-3.3513,-3.3513,-3.3898,-3.5795,-4.0681,-4.3162,-4.5624,-4.8933,-5.0144,-5.0712,-5.0712,-5.0712,-5.0712,-5.0712,-5.0712,-5.1029,-5.1846,-5.2596,-5.3453,-5.4453,-5.5261,-5.5645,-5.553,-5.4857,-5.3678,-5.1914,-5.1171,-5.0544,-5.001,-4.8846,-4.8513,-4.888,-4.8477,-4.8306,-4.8306,-4.8306,-4.8306,-4.8306,-4.8196,-4.726,-4.5883,-4.5773,-4.4819,-4.3515,-4.3515,-4.3515,-4.3515,-4.3515,-4.3515,-4.3515,-4.3515,-4.3515,-4.3515,-4.3515,-4.3515,-4.3515,-4.3515,-4.3515,-4.3515,-4.3515,-4.3515,-4.3515,-4.3515,-4.3515,-4.3515,-4.3515,-4.2873,-4.1864,-4.0341,-3.9405,-3.8854,-3.8854,-3.8781,-3.8707,-3.8707,-3.8707,-3.8707,-3.8707,-3.8707,-3.8707,-3.8707,-3.8707,-3.8707,-3.8707,-3.8046,-3.7658,-3.7658,-3.689,-3.6505,-3.6615,-3.6523,-3.685,-3.7639,-3.7658,-3.7991,-3.8707,-3.8707,-3.8707,-3.8707,-3.8707,-3.8707,-5.0423,-5.0712,-5.0712,-5.0712,-4.949,-4.7663,-4.5105,-4.1604,-3.7873,-3.4295,-3.1641,-2.9973,-2.9973,-3.2282,-3.5417,-3.9123,-4.292,-4.6326,-4.9009,-5.0144,-5.0712,-5.0712,-5.0712,-5.0712,-5.0712,-5.0712,-5.1029,-5.1846,-5.2038,-5.2818,-5.4414,-5.5261,-5.5395,-5.4722,-5.4568,-5.3513,-5.1427,-5.1012,-5.0413,-4.9593,-4.8732,-4.8513,-4.888,-4.8477,-4.8306,-4.8306,-4.8306,0.0,-4.8251,-4.7571,-4.6764,-4.5828,-4.5168,-4.4323,-4.3515,-4.3515,-4.3515,-4.3515,-4.3515,-4.3515,-4.3515,-4.3515,-4.3515,-4.3515,-4.3515,-4.3515,-4.3515,-4.3515,-4.3515,-4.3515,-4.3515,-4.3515,-4.3515,-4.3515,-4.3515,-4.3515,-4.3515,-4.2873,-4.2029,-4.1077,-4.0249,-3.968,-3.968,-3.9148,-3.8707,-3.8707,-3.8707,-3.8707,-3.8707,-3.8707,-3.8707,-3.8707,-3.8707,-3.8707,-3.8707,-3.8579,-3.8487,-3.8487,-3.7749,-3.7603,-3.8267,-3.7658,-3.7676,-3.8487,-3.8487,-3.856,-3.8707,-3.8707,-3.8707,-3.8707,-3.8707,-3.8707,-5.0462,-5.0712,-5.0596,-5.0144,-4.874,-4.6471,-4.2585,-3.9104,-3.5488,-3.1179,-2.8967,-2.7794,-2.7794,-3.0217,-3.3199,-3.6168,-3.9457,-4.2989,-4.6874,-4.7788,-4.8711,-5.05,-5.0712,-5.0712,-5.0712,-5.0712,-5.1029,-5.1846,-5.1904,-5.2462,-5.376,-5.4184,-5.401,-5.3164,-5.3145,-5.2354,-5.0696,-5.0306,-4.9796,-4.9187,-4.8586,-4.8383,-4.8586,-4.8402,-4.8306,-4.8306,-4.8306,-4.8067,-4.7645,-4.7259,-4.6379,-4.5241,-4.4856,-4.4213,-4.3515,-4.3515,-4.3515,-4.3515,-4.3515,-4.3515,-4.3515,-4.3515,-4.3515,-4.3515,-4.3515,-4.3515,-4.3515,-4.3515,-4.3515,-4.3515,-4.3515,-4.3515,-4.3515,-4.3515,-4.3515,-4.3515,-4.3515,-4.2873,-4.2194,-4.1809,-4.1075,-4.0524,-4.0524,-3.9863,-3.9313,-3.9313,-3.8964,-3.8707,-3.8707,-3.8707,-3.8707,-3.8707,-3.8707,-3.8707,-3.8707,-3.8707,-3.8707,-3.8707,-3.834,-3.8303,-3.8689,-3.8322,-3.8303,-3.8689,-3.8707,-3.8707,-3.8707,-3.8707,-3.8707,-3.8707,-3.8707,-3.8707,-5.0462,-5.0712,-5.05,-4.9625,-4.7855,-4.5066,-4.0142,-3.6776,-3.3346,-2.8602,-2.6928,-2.639,-2.6563,-2.8385,-3.0756,-3.3468,-3.6219,-3.9642,-4.4402,-4.5691,-4.721,-5.0077,-5.0596,-5.0712,-5.0712,-5.0712,-5.0952,-5.1606,-5.1635,-5.2106,-5.3145,-5.3203,-5.2799,-5.1923,-5.1904,-5.1369,-5.0237,-4.9746,-4.9341,-4.9011,-4.8532,-4.8306,-4.8306,-4.8306,-4.8306,-4.8306,-4.8122,-4.7681,-4.7076,-4.6727,-4.5828,-4.4673,-4.4525,-4.4066,-4.3515,-4.3515,-4.3515,-4.3515,-4.3515,-4.3515,-4.3515,-4.3515,-4.3515,-4.3515,-4.3515,-4.3515,-4.3515,-4.3515,-4.3515,-4.3515,-4.3515,-4.3515,-4.3515,-4.3515,-4.3515,-4.3515,-4.3515,-4.3002,-4.2561,-4.2561,-4.1919,-4.1352,-4.1352,-4.0689,-4.0102,-3.9918,-3.935,-3.8891,-3.8726,-3.8707,-3.8707,-3.8707,-3.8707,-3.8707,-3.8707,-3.8707,-3.8707,-3.8707,-3.8707,-3.8707,-3.8707,-3.8707,-3.8707,-3.8707,-3.8707,-3.8707,-3.8707,-3.8707,-3.8707,-3.8707,-3.8707,-3.8707,-5.0462,-5.0712,-5.05,-4.9625,-4.6951,-4.3412,-3.9104,-3.4968,-3.1044,-2.7467,-2.6019,-2.5654,-2.6447,-2.7448,-2.9198,-3.2487,-3.5815,-3.9258,-4.2835,-4.5951,-4.8279,-4.9394,-5.0231,-5.0712,-5.0712,-5.0712,-5.0731,-5.0808,-5.0808,-5.151,-5.3106,-5.3203,-5.2799,-5.1923,-5.1904,-5.149,-5.0653,-4.9866,-4.9475,-4.9431,-4.8676,-4.8306,-4.8306,-4.8306,-4.8306,-4.8269,-4.7516,-4.7168,0.0,-4.5517,-4.4819,-4.4635,-4.3901,-4.357,-4.3515,-4.3515,-4.3515,-4.3515,-4.3515,-4.3515,-4.3515,-4.3515,-4.3515,-4.3515,-4.3515,-4.3515,-4.3515,-4.3515,-4.3515,-4.3515,-4.3515,-4.3515,-4.3515,-4.3515,-4.3515,-4.3515,-4.3515,-4.3441,-4.3404,-4.3404,-4.2745,-4.2194,-4.2194,-4.1517,-4.0744,-4.001,-3.9827,-3.9533,-3.8799,-3.8707,-3.8707,-3.8707,-3.8707,-3.8707,-3.8707,-3.8707,-3.8707,-3.8707,-3.8707,-3.8707,-3.8707,-3.8707,-3.8707,-3.8707,-3.8707,-3.8707,-3.8707,-3.8707,-3.8707,-3.8707,-3.8707,-3.8707,-4.9413,-5.0308,-5.0366,-4.8971,-4.6432,-4.3066,-3.8296,-3.4353,-3.0737,-2.7294,-2.5904,-2.5404,-2.575,-2.6524,-2.7871,-3.0223,-3.1762,-3.418,-3.8623,-4.0854,-4.3297,-4.6701,-4.8317,-4.9548,-5.0596,-5.0712,-5.0712,-5.0712,-5.0712,-5.1,-5.1664,-5.1702,-5.1529,-5.1183,-5.1183,-5.101,-5.0712,-4.9911,-4.9489,-4.9489,-4.8675,-4.8306,-4.8306,-4.8306,-4.8049,-4.7553,-4.7241,-4.6544,0.0,-4.4948,-4.4415,-4.3956,-4.3643,-4.3515,-4.3515,-4.3515,-4.3515,-4.3515,-4.3515,-4.3515,-4.3515,-4.3515,-4.3515,-4.3515,-4.3515,-4.3515,-4.3515,-4.3515,-4.3515,-4.3515,-4.3515,-4.3515,-4.3515,-4.3515,-4.3515,-4.3515,-4.3515,-4.3515,-4.3515,-4.3515,-4.3239,-4.302,-4.302,-4.2359,-4.1552,-4.0744,-4.0212,-3.9606,-3.8799,-3.8707,-3.8707,-3.8707,-3.8707,-3.8707,-3.8707,-3.8707,-3.8707,-3.8707,-3.8707,-3.8707,-3.8707,-3.8707,-3.8707,-3.8707,-3.8707,-3.8707,-3.8707,-3.8707,-3.8946,-3.9423,-3.9423,-3.968,-4.7971,-4.9279,-4.951,-4.7798,-4.5451,-4.2239,-3.7123,-3.3512,-3.0266,-2.6918,-2.5681,-2.5224,-2.5298,-2.5808,-2.6697,-2.8121,-2.8986,-3.1083,-3.5692,-3.7738,-4.0354,-4.471,-4.6701,-4.8317,-4.9779,-5.0404,-5.0712,-5.0712,-5.0712,-5.0712,-5.0712,-5.0594,-5.0514,-5.0514,-5.0514,-5.0472,-5.0347,-4.9678,-4.9326,-4.9311,-4.8622,-4.8306,-4.8306,-4.8048,-4.7626,-4.7076,-4.6599,-4.5737,0.0,-4.4452,-4.4011,-4.3515,-4.3515,-4.3515,-4.3515,-4.3515,-4.3515,-4.3515,-4.3515,-4.3515,-4.3515,-4.3515,-4.3515,-4.3515,-4.3515,-4.3515,-4.3515,-4.3515,-4.3515,-4.3515,-4.3515,-4.3515,-4.3515,-4.3515,-4.3515,-4.3515,-4.3515,-4.3515,-4.3515,-4.3515,-4.3515,-4.3515,-4.3515,-4.302,-4.2378,-4.1572,-4.0965,-4.023,-3.9184,-3.9056,-3.8964,-3.8726,-3.8707,-3.8707,-3.8707,-3.8707,-3.8707,-3.8707,-3.8707,-3.8707,-3.8707,-3.8707,-3.8707,-3.8707,-3.8707,-3.8707,-3.8707,-3.8707,-3.9111,-3.99,-3.99,-4.0451,-4.624,-4.7509,-4.7721,-4.6037,-4.3701,-4.0489,-3.5398,-3.2082,-2.9206,-2.5974,-2.5146,-2.5052,-2.5264,-2.5308,-2.5596,-2.6486,-2.8731,-3.1596,-3.5038,-3.8373,-4.1439,-4.4008,-4.5855,-4.7231,-4.8048,-4.9683,-5.0712,-5.0712,-5.0712,-5.0712,-5.0712,-5.0325,-5.0123,-5.0123,-5.0123,-4.9924,-4.9504,-4.9108,-4.8913,-4.8897,-4.8495,-4.8306,-4.8269,-4.748,-4.7113,-4.7003,-4.5406,-4.4709,0.0,-4.3828,-4.3515,-4.3515,-4.3515,-4.3515,-4.3515,-4.3515,-4.3515,-4.3515,-4.3515,-4.3515,-4.3515,-4.3515,-4.3515,-4.3515,-4.3515,-4.3515,-4.3515,-4.3515,-4.3515,-4.3515,-4.3515,-4.3515,-4.3515,-4.3515,-4.3515,-4.3515,-4.3515,-4.3515,-4.3515,-4.3515,-4.3515,-4.3515,-4.3515,-4.3496,-4.3221,-4.2415,-4.2286,-4.1699,-4.0084,-3.9882,-3.957,-3.8799,-3.8707,-3.8707,-3.8707,-3.8707,-3.8707,-3.8707,-3.8707,-3.8707,-3.8707,-3.8707,-3.8707,-3.8707,-3.8707,-3.8707,-3.8707,-3.8707,-3.9111,-3.99,-3.99,-4.0763,-4.1162,-4.2739,-4.3393,-4.17,-3.9796,-3.7288,-3.3372,-3.0899,-2.8633,-2.5875,-2.5253,-2.5219,-2.5298,-2.5308,-2.6154,-2.8769,-2.9865,-3.1596,-3.5019,-3.7911,-4.0631,-4.3181,-4.7048,-4.9606,-4.9856,-5.0385,-5.0712,-5.0712,-5.0712,-5.0712,-5.0712,-5.0594,-5.0369,-5.0104,-4.9827,-4.9636,-4.9489,-4.9092,-4.8897,-4.8897,-4.8495,-4.8012,-4.7461,-4.7223,-4.6489,-4.5425,-4.4911,-4.4397,-4.3864,-4.3625,-4.3515,-4.3515,-4.3515,-4.3515,-4.3515,-4.3515,-4.3515,-4.3515,-4.3515,-4.3515,-4.3515,-4.3515,-4.3515,-4.3515,-4.3515,-4.3515,-4.3515,-4.3515,-4.3515,-4.3515,-4.3515,-4.3515,-4.3515,-4.3515,-4.3515,-4.3515,-4.3515,-4.3515,-4.3515,-4.3515,-4.3515,-4.3515,-4.3515,-4.3515,-4.3222,-4.2415,-4.2304,-4.1919,-4.0873,-4.0726,-4.0467,-3.9801,-4.009,-3.9884,-3.8799,-3.8707,-3.8707,-3.8707,-3.8707,-3.8946,-3.9496,-3.9515,-3.9772,-4.0325,-4.0343,-4.0343,-4.0343,-4.0343,-4.0763,-4.1552,-4.2084,-4.2616,-3.7046,-3.9084,-3.9969,-3.8296,-3.6796,-3.4872,-3.1487,-2.9586,-2.7925,-2.5759,-2.5248,-2.5214,-2.5298,-2.5308,-2.6,-2.8135,-2.9019,-3.0635,-3.4038,-3.6719,-3.9738,-4.3585,-4.7394,-4.9856,-5.0183,-5.0519,-5.0712,-5.0712,-5.0712,-5.0712,-5.0712,-5.0554,-5.0358,-5.0104,-4.9719,-4.9356,-4.9046,-4.8796,-4.8675,-4.8675,-4.8126,-4.7571,-4.7076,-4.647,-4.5645,-4.4673,-4.4378,-4.3956,0.0,-4.3515,-4.3515,-4.3515,-4.3515,-4.3515,-4.3515,-4.3515,-4.3515,-4.3515,-4.3515,-4.3515,-4.3515,-4.3515,-4.3515,-4.3515,-4.3515,-4.3515,-4.3515,-4.3515,-4.3515,-4.3515,-4.3515,-4.3515,-4.3515,-4.3515,-4.3515,-4.3515,-4.3515,-4.3515,-4.3515,-4.3515,-4.3515,-4.3515,-4.3515,-4.3515,-4.3331,-4.2818,-4.2745,-4.2451,-4.1645,-4.1348,-4.0941,-4.0275,-4.0366,-4.0039,-3.9044,-3.916,-3.9148,-3.8873,-3.9112,-3.9579,-4.0322,-4.0359,-4.0598,-4.1095,-4.1095,-4.1095,-4.1095,-4.1389,-4.1809,-4.2323,-4.313,-4.3515,0.0,-3.6084,-3.6988,-3.5365,-3.4353,-3.2897,-2.9665,-2.8191,0.0,-2.5594,-2.5141,-2.509,-2.5407,-2.5375,-2.5423,-2.5788,-2.7198,-2.9429,-3.2795,-3.5603,-3.9431,-4.5094,-4.7259,-4.8606,-4.9413,-5.0212,-5.0663,-5.0663,-5.0624,-5.0614,-5.0614,-5.026,-5.0043,-5.0031,-4.9645,-4.911,-4.8345,-4.8325,-4.8269,-4.8214,-4.7461,-4.7039,-4.6874,-4.537,-4.4654,-4.458,-4.3844,-4.3513,-4.3496,-4.3531,-4.3513,-4.3515,-4.3515,-4.3515,-4.3515,-4.3515,-4.3515,-4.3515,-4.3515,-4.3515,-4.3515,-4.3515,-4.3515,-4.3515,-4.3515,-4.3515,-4.3515,-4.3515,-4.3515,-4.3515,-4.3515,-4.3515,-4.3515,-4.3515,-4.3515,-4.3515,-4.3515,-4.3515,-4.3515,-4.3515,-4.3515,-4.3515,-4.3515,-4.3515,-4.3515,-4.3515,-4.3515,-4.3222,-4.2488,-4.1869,-4.1194,-4.04,-3.987,-3.9511,-3.9376,-3.9844,-3.9842,-3.9157,-3.977,-4.0438,-4.1084,-4.1119,-4.1172,-4.126,-4.126,-4.126,-4.126,-4.2029,-4.2396,-4.2396,-4.3149,-4.3515,-2.8371,0.0,-3.0954,-2.9929,-2.9525,-2.9011,0.0,-2.6895,-2.6314,-2.5281,-2.5034,-2.5423,-2.6797,-2.6105,-2.6577,-3.0487,-3.1468,-3.291,-3.6315,-4.0662,-4.4489,-4.7182,-4.9029,-5.0173,-5.0366,-5.0306,-5.0249,-5.0249,-4.9949,-4.9773,-4.9773,-4.9706,-4.9504,-4.9202,-4.9092,-4.8947,-4.8761,-4.8458,-4.7975,-4.7369,-4.7186,-4.6452,-4.5241,-4.4856,-4.436,-4.379,-4.3865,-4.3742,-4.3513,-4.3772,-4.3742,-4.3515,-4.3515,-4.3515,-4.3515,-4.3515,-4.3515,-4.3515,-4.3515,-4.3515,-4.3515,-4.3515,-4.3515,-4.3515,-4.3515,-4.3515,-4.3515,-4.3515,-4.3515,-4.3515,-4.3515,-4.3515,-4.3515,-4.3515,-4.3515,-4.3515,-4.3515,-4.3515,-4.3515,-4.3515,-4.3515,-4.3515,-4.3515,-4.3515,-4.3515,-4.3515,-4.3515,-4.3441,-4.3239,-4.2741,-4.216,-4.1507,-4.1324,-4.0648,-3.9219,-3.941,-3.9522,-3.9327,-3.9505,-4.0096,-4.127,-4.1325,-4.1832,-4.291,-4.2928,-4.2928,-4.2928,-4.313,-4.3222,-4.3222,-4.3423,-4.3515,-2.6,-2.7813,-2.9506,-2.8665,-2.8453,-2.8222,-2.739,-2.6486,-2.5679,-2.5118,-2.5004,-2.538,-2.6645,-2.6587,-2.7386,-3.0516,-3.2077,-3.4353,-3.8565,-4.2882,-4.6011,-4.7145,-4.8942,-5.0048,-4.9897,-4.9675,-4.9551,-4.9551,-4.8831,-4.8386,-4.8386,-4.8386,-4.83,-4.8077,-4.7893,-4.8051,-4.8621,-4.8034,-4.7516,-4.7094,-4.6342,-4.5535,-4.469,-4.4323,-4.3901,-4.3513,-4.3849,-4.382,-4.3531,-4.3865,-4.3804,-4.3515,-4.3515,-4.3515,-4.3515,-4.3515,-4.3515,-4.3515,-4.3515,-4.3515,-4.3515,-4.3515,-4.3515,-4.3515,-4.3515,-4.3515,-4.3515,-4.3515,-4.3515,-4.3515,-4.3515,-4.3515,-4.3515,-4.3515,-4.3515,-4.3515,-4.3515,-4.3515,-4.3515,-4.3515,-4.3515,-4.3515,-4.3515,-4.3515,-4.3515,-4.3515,-4.3515,-4.3515,-4.3515,-4.3032,-4.248,-4.1874,-4.1573,-4.0897,-3.9611,-3.9639,-3.9685,-3.9581,-3.99,-4.0546,-4.1546,-4.1855,-4.2468,-4.3479,-4.2977,-4.2977,-4.3515,-4.325,-4.3124,-4.3142,-4.3392,-4.3375,-2.5615,-2.8,-3.0096,-2.8832,-2.8723,-2.8665,-2.7717,-2.6336,-2.5203,-2.5004,-2.5063,-2.5436,-2.6343,-2.7319,-2.8406,-2.9727,-3.2267,-3.5692,-4.0345,-4.3665,-4.5773,-4.6228,-4.8018,-4.9066,-4.8739,-4.865,-4.8603,-4.8535,-4.7529,-4.6925,-4.6925,-4.6925,-4.6925,-4.6925,-4.6601,-4.6899,-4.7921,-4.7259,-4.6856,-4.6727,-4.5351,-4.4654,-4.4488,-4.3809,-4.3515,-4.3513,0.0,0.0,-4.3531,-4.3865,-4.3804,-4.3515,-4.3515,-4.3515,-4.3515,-4.3515,-4.3515,-4.3515,-4.3515,-4.3515,-4.3515,-4.3515,-4.3515,-4.3515,-4.3515,-4.3515,-4.3515,-4.3515,-4.3515,-4.3515,-4.3515,-4.3515,-4.3515,-4.3515,-4.3515,-4.3515,-4.3515,-4.3515,-4.3515,-4.3515,-4.3515,-4.3515,-4.3515,-4.3515,-4.3515,-4.3515,-4.3515,-4.3515,-4.3515,-4.3032,-4.25,-4.1979,-4.137,-4.0784,-4.0279,-4.0146,-4.0031,-3.9859,-4.0435,-4.1041,-4.1643,-4.2223,-4.2789,-4.3232,-4.2286,-4.2266,-4.3232,-4.2789,-4.2559,-4.2577,-4.3124,-4.3124,-2.7101,-2.8929,-2.9673,-2.6635,-2.6986,-2.7659,-2.6058,-2.536,-2.5018,-2.4862,-2.5373,-2.6467,-2.8493,-2.9298,-3.0833,-3.456,-3.7501,-4.0271,-4.2918,-4.4614,-4.5773,-4.6228,-4.7471,-4.8164,-4.7823,-4.7498,-4.7174,-4.6889,-4.6389,-4.6079,-4.6079,-4.6079,-4.6079,-4.6079,-4.6027,-4.6084,-4.6269,-4.6159,-4.5736,-4.5058,-4.4837,-4.4342,-4.3681,-4.357,-4.3515,-4.3513,0.0,-4.382,-4.3531,-4.3865,-4.3804,-4.3515,-4.3515,-4.3515,-4.3515,-4.3515,-4.3515,-4.3515,-4.3515,-4.3515,-4.3515,-4.3515,-4.3515,-4.3515,-4.3515,-4.3515,-4.3515,-4.3515,-4.3515,-4.3515,-4.3515,-4.3515,-4.3515,-4.3515,-4.3515,-4.3515,-4.3515,-4.3515,-4.3515,-4.3515,-4.3515,-4.3515,-4.3515,-4.3515,-4.3515,-4.3515,-4.3515,-4.3515,-4.3515,-4.3032,-4.2655,-4.2577,-4.1556,-4.0874,-4.078,-4.0368,-4.0095,-4.0076,-4.0161,-4.0473,-4.1018,-4.1621,-4.1979,-4.2062,-4.1895,-4.1895,-4.2062,-4.1979,-4.1937,-4.1958,-4.2539,-4.2788,-2.6269,-2.7755,-2.8679,-2.7101,-2.8679,-3.0275,-2.9038,-2.832,-2.7873,-2.7703,-2.7958,-2.8632,-3.0,-3.1273,-3.3478,-3.7622,-4.0148,-4.2039,-4.335,-4.4403,-4.5133,-4.5354,-4.6252,-4.6789,-4.6638,-4.6298,-4.6031,-4.5867,-4.5077,-4.4599,-4.4599,-4.4599,-4.4599,-4.4599,-4.4599,-4.4599,-4.4599,-4.4599,-4.4635,-4.4691,-4.4268,-4.3864,-4.3515,-4.3515,-4.3515,-4.3513,0.0,-4.382,-4.3531,-4.3865,-4.3804,-4.3515,-4.3515,-4.3515,-4.3515,-4.3515,-4.3515,-4.3515,-4.3515,-4.3515,-4.3515,-4.3515,-4.3515,-4.3515,-4.3515,-4.3515,-4.3515,-4.3515,-4.3515,-4.3515,-4.3515,-4.3515,-4.3515,-4.3515,-4.3515,-4.3515,-4.3515,-4.3515,-4.3515,-4.3515,-4.3515,-4.3515,-4.3515,-4.3515,-4.3515,-4.3515,-4.3515,-4.3515,-4.3515,-4.3286,-4.3014,-4.2731,-4.1916,-4.1251,-4.0926,-4.0417,-4.0096,-4.0096,-4.0096,-4.0343,-4.088,-4.0891,-4.1308,-4.2282,-4.1353,-4.1348,-4.2282,-4.1621,-4.1313,-4.1335,-4.1937,-4.2203,-2.5808,-2.689,-2.7992,-2.839,-3.0256,-3.1968,-3.1756,-3.1019,-3.0445,-3.0652,-3.0784,-3.1015,-3.15,-3.3586,-3.6413,-4.0004,-4.1943,-4.3103,-4.3433,-4.4113,-4.4585,-4.4474,-4.5087,-4.5491,-4.5377,-4.5159,-4.4966,-4.4872,-4.4013,-4.3515,-4.3515,-4.3515,-4.3515,-4.3515,-4.3515,-4.3515,-4.3515,-4.3515,-4.3809,-4.4415,-4.3791,-4.3515,-4.3515,-4.3515,-4.3515,-4.3513,-4.3772,-4.3742,-4.3513,-4.3772,-4.3742,-4.3515,-4.3515,-4.3515,-4.3515,-4.3515,-4.3515,-4.3515,-4.3515,-4.3515,-4.3515,-4.3515,-4.3515,-4.3515,-4.3515,-4.3515,-4.3515,-4.3515,-4.3515,-4.3515,-4.3515,-4.3515,-4.3515,-4.3515,-4.3515,-4.3515,-4.3515,-4.3515,-4.3515,-4.3515,-4.3515,-4.3515,-4.3515,-4.3515,-4.3515,-4.3515,-4.3515,-4.3515,-4.3515,-4.3515,-4.3339,-4.2939,-4.2244,-4.1512,-4.078,-4.0336,-4.0096,-4.0096,-4.0096,-4.0286,-4.0703,-4.0311,-4.0784,-4.2262,-4.0838,-4.0832,-4.2282,-4.1223,-4.0709,-4.0726,-4.1313,-4.1599,-2.7274,-2.7799,-2.8275,-2.9827,-2.9794,-2.9781,-3.1333,-3.1019,-3.079,-3.2151,-3.2819,-3.3185,-3.3299,-3.6549,-3.9875,-4.1975,-4.3516,-4.4331,-4.3994,-4.4341,-4.446,-4.4106,-4.4416,-4.4535,-4.4166,-4.4106,-4.3955,-4.3655,-4.355,-4.3515,-4.3515,-4.3515,-4.3515,-4.3515,-4.3515,-4.3515,-4.3515,-4.3515,-4.3533,-4.3589,-4.3533,-4.3515,-4.3515,-4.3515,-4.3515,-4.3496,-4.3531,-4.3513,-4.3496,-4.3531,-4.3513,-4.3515,-4.3515,-4.3515,-4.3515,-4.3515,-4.3515,-4.3515,-4.3515,-4.3515,-4.3515,-4.3515,-4.3515,-4.3515,-4.3515,-4.3515,-4.3515,-4.3515,-4.3515,-4.3515,-4.3515,-4.3515,-4.3515,-4.3515,-4.3515,-4.3515,-4.3515,-4.3515,-4.3515,-4.3515,-4.3515,-4.3515,-4.3515,-4.3515,-4.3515,-4.3515,-4.3515,-4.3515,-4.3515,-4.3515,-4.3497,-4.3444,-4.2464,-4.1353,-4.0254,-4.0121,-4.0096,-4.0096,-4.0096,-4.0121,-4.0171,-4.0121,-4.0392,-4.1018,-4.0417,-4.0417,-4.1041,-4.0424,-4.0171,-4.0154,-4.0726,-4.0972,-2.6096,-2.7063,-2.8165,-2.9313,-3.016,-3.1295,-3.3538,-3.4192,-3.4929,-3.7076,-3.7505,-3.7517,-3.7547,-3.9414,-4.1235,-4.2071,-4.3548,-4.4392,-4.3756,-4.3823,-4.3946,-4.4001,-4.3943,-4.3927,-4.4001,-4.382,-4.3629,-4.3496,-4.3515,-4.3515,-4.3515,-4.3515,-4.3515,-4.3515,-4.3515,-4.3515,-4.3515,-4.3515,-4.3515,-4.3515,-4.3515,-4.3515,-4.3515,-4.3515,-4.3515,-4.3515,-4.3515,-4.3515,-4.3515,-4.3515,-4.3515,-4.3515,-4.3515,-4.3515,-4.3515,-4.3515,-4.3515,-4.3515,-4.3515,-4.3515,-4.3515,-4.3515,-4.3515,-4.3515,-4.3515,-4.3515,-4.3515,-4.3515,-4.3515,-4.3515,-4.3515,-4.3515,-4.3515,-4.3515,-4.3515,-4.3515,-4.3515,-4.3515,-4.3515,-4.3515,-4.3515,-4.3515,-4.3515,-4.3515,-4.3515,-4.3515,-4.3515,-4.3515,-4.3515,-4.3515,-4.3515,-4.3515,-4.2483,-4.1331,-4.0196,-4.0096,-4.0096,-4.0096,-4.0096,-4.0096,-4.0096,-4.0417,-4.0703,-4.0903,-4.0703,-4.0703,-4.0903,-4.0368,-4.0096,-4.0096,-4.0311,-4.0577,-2.5712,-2.6582,-2.7813,-2.9159,-3.041,-3.2231,-3.5872,-3.6911,-3.7793,-4.0238,-4.0263,-3.9897,-4.0056,-4.0769,-4.1453,-4.1801,-4.3207,-4.408,-4.3582,-4.3515,-4.358,-4.3802,-4.3629,-4.3597,-4.3836,-4.3629,-4.3515,-4.3515,-4.3515,-4.3515,-4.3515,-4.3515,-4.3515,-4.3515,-4.3515,-4.3515,-4.3515,-4.3515,-4.3515,-4.3515,-4.3515,-4.3515,-4.3515,-4.3515,-4.3515,-4.3515,-4.3515,-4.3515,-4.3515,-4.3515,-4.3515,-4.3515,-4.3515,-4.3515,-4.3515,-4.3515,-4.3515,-4.3515,-4.3515,-4.3515,-4.3515,-4.3515,-4.3515,-4.3515,-4.3515,-4.3515,-4.3515,-4.3515,-4.3515,-4.3515,-4.3515,-4.3515,-4.3515,-4.3515,-4.3515,-4.3515,-4.3515,-4.3515,-4.3515,-4.3515,-4.3515,-4.3515,-4.3515,-4.3515,-4.3515,-4.3515,-4.3515,-4.3515,-4.3515,-4.3515,-4.3427,-4.3268,-4.2384,-4.142,-4.0441,-4.0204,-4.0096,-4.0096,-4.0096,-4.0096,-4.0096,-4.0449,-4.0726,-4.0903,-4.0733,-4.0733,-4.0903,-4.0368,-4.0096,-4.0096,-4.0096,-4.0286,-2.6582,-2.6621,-2.7236,-2.9769,-3.0423,-3.2,-3.795,-3.8642,-3.865,-4.0864,-4.0374,-3.9689,-4.0239,-4.0328,-4.0611,-4.1473,-4.2675,-4.3496,-4.3515,-4.3515,-4.3515,-4.3515,-4.3515,-4.3515,-4.3515,-4.3515,-4.3515,-4.3515,-4.3515,-4.3515,-4.3515,-4.3515,-4.3515,-4.3515,-4.3515,-4.3515,-4.3515,-4.3515,-4.3515,-4.3515,-4.3515,-4.3515,-4.3515,-4.3515,-4.3515,-4.3515,-4.3515,-4.3515,-4.3515,-4.3515,-4.3515,-4.3515,-4.3515,-4.3515,-4.3515,-4.3515,-4.3515,-4.3515,-4.3515,-4.3515,-4.3515,-4.3515,-4.3515,-4.3515,-4.3515,-4.3515,-4.3515,-4.3515,-4.3515,-4.3515,-4.3515,-4.3515,-4.3515,-4.3515,-4.3515,-4.3515,-4.3515,-4.3515,-4.3515,-4.3515,-4.3515,-4.3515,-4.3515,-4.3515,-4.3515,-4.3515,-4.3515,-4.3515,-4.3515,-4.3515,-4.3286,-4.2769,-4.2162,-4.1556,-4.0949,-4.0417,-4.0113,-4.0096,-4.0096,-4.0096,-4.0096,-4.0096,-4.036,-4.088,-4.0368,-4.0368,-4.088,-4.0343,-4.0096,-4.0096,-4.0096,-4.0096,-2.5846,-2.6986,-2.8698,-3.0058,-3.2635,-3.5615,-3.8623,-3.9534,-4.049,-4.3084,-4.2856,-4.2158,-4.2056,-4.2263,-4.242,-4.2451,-4.3243,-4.3756,-4.3531,-4.3515,-4.3515,-4.3515,-4.3515,-4.3515,-4.3515,-4.3515,-4.3515,-4.3515,-4.3515,-4.3515,-4.3515,-4.3515,-4.3515,-4.3515,-4.3515,-4.3515,-4.3515,-4.3515,-4.3515,-4.3515,-4.3515,-4.3515,-4.3515,-4.3515,-4.3515,-4.3515,-4.3515,-4.3515,-4.3515,-4.3515,-4.3515,-4.3515,-4.3515,-4.3515,-4.3515,-4.3515,-4.3515,-4.3515,-4.3515,-4.3515,-4.3515,-4.3515,-4.3515,-4.3515,-4.3515,-4.3515,-4.3515,-4.3515,-4.3515,-4.3515,-4.3515,-4.3515,-4.3515,-4.3515,-4.3515,-4.3515,-4.3515,-4.3515,-4.3515,-4.3515,-4.3515,-4.3515,-4.3515,-4.3515,-4.3515,-4.3515,-4.3515,-4.3515,-4.3515,-4.3515,-4.3286,-4.2769,-4.2539,-4.2018,-4.0995,-4.0756,-4.0497,-4.0121,-4.0096,-4.0096,-4.0096,-4.0473,-4.0552,-4.0343,-4.0552,-4.0552,-4.0336,-4.0196,-4.0096,-4.0096,-4.0096,-4.0096,-2.6674,-2.8109,-2.9987,-3.1525,-3.4308,-3.7507,-4.0585,-4.1461,-4.2136,-4.3979,-4.3582,-4.2853,-4.2653,-4.2783,-4.2853,-4.2619,-4.327,-4.3742,-4.3531,-4.3515,-4.3515,-4.3515,-4.3515,-4.3515,-4.3515,-4.3515,-4.3515,-4.3515,-4.3515,-4.3515,-4.3515,-4.3515,-4.3515,-4.3515,-4.3515,-4.3515,-4.3515,-4.3515,-4.3515,-4.3515,-4.3515,-4.3515,-4.3515,-4.3515,-4.3515,-4.3515,-4.3515,-4.3515,-4.3515,-4.3515,-4.3515,-4.3515,-4.3515,-4.3515,-4.3515,-4.3515,-4.3515,-4.3515,-4.3515,-4.3515,-4.3515,-4.3515,-4.3515,-4.3515,-4.3515,-4.3515,-4.3515,-4.3515,-4.3515,-4.3515,-4.3515,-4.3515,-4.3515,-4.3515,-4.3515,-4.3515,-4.3515,-4.3515,-4.3515,-4.3515,-4.3515,-4.3515,-4.3515,-4.3515,-4.3515,-4.3515,-4.3515,-4.3515,-4.3515,-4.3515,-4.3375,-4.305,-4.2617,-4.2059,-4.1335,-4.0827,-4.0424,-4.0121,-4.0096,-4.0096,-4.0096,-4.0417,-4.0441,-4.0113,-4.0417,-4.0424,-4.0096,-4.0096,-4.0096,-4.0096,-4.0096,-4.0096,-2.8319,-2.9545,-3.1038,-3.366,-3.5815,-3.8493,-4.315,-4.3792,-4.3551,-4.3968,-4.3183,-4.2415,-4.2415,-4.2415,-4.2415,-4.2415,-4.302,-4.3515,-4.3515,-4.3515,-4.3515,-4.3515,-4.3515,-4.3515,-4.3515,-4.3515,-4.3515,-4.3515,-4.3515,-4.3515,-4.3515,-4.3515,-4.3515,-4.3515,-4.3515,-4.3515,-4.3515,-4.3515,-4.3515,-4.3515,-4.3515,-4.3515,-4.3515,-4.3515,-4.3515,-4.3515,-4.3515,-4.3515,-4.3515,-4.3515,-4.3515,-4.3515,-4.3515,-4.3515,-4.3515,-4.3515,-4.3515,-4.3515,-4.3515,-4.3515,-4.3515,-4.3515,-4.3515,-4.3515,-4.3515,-4.3515,-4.3515,-4.3515,-4.3515,-4.3515,-4.3515,-4.3515,-4.3515,-4.3515,-4.3515,-4.3515,-4.3515,-4.3515,-4.3515,-4.3515,-4.3515,-4.3515,-4.3515,-4.3515,-4.3515,-4.3515,-4.3515,-4.3515,-4.3515,-4.3515,-4.3515,-4.3515,-4.2523,-4.1874,-4.1793,-4.0791,-4.0146,-4.0096,-4.0096,-4.0096,-4.0096,-4.0096,-4.0096,-4.0096,-4.0096,-4.0096,-4.0096,-4.0096,-4.0096,-4.0096,-4.0096,-4.0096,-2.7618,-2.9227,-3.1173,-3.4404,-3.8507,-4.2042,-4.3236,-4.3926,-4.4359,-4.4449,-4.3813,-4.3239,-4.3239,-4.3239,-4.3239,-4.3239,-4.3404,-4.3515,-4.3515,-4.3515,-4.3515,-4.3515,-4.3515,-4.3515,-4.3515,-4.3515,-4.3515,-4.3515,-4.3515,-4.3515,-4.3515,-4.3515,-4.3515,-4.3515,-4.3515,-4.3515,-4.3515,-4.3515,-4.3515,-4.3515,-4.3515,-4.3515,-4.3515,-4.3515,-4.3515,-4.3515,-4.3515,-4.3515,-4.3515,-4.3515,-4.3515,-4.3515,-4.3515,-4.3515,-4.3515,-4.3515,-4.3515,-4.3515,-4.3515,-4.3515,-4.3515,-4.3515,-4.3515,-4.3515,-4.3515,-4.3515,-4.3515,-4.3515,-4.3515,-4.3515,-4.3515,-4.3515,-4.3515,-4.3515,-4.3515,-4.3515,-4.3515,-4.3515,-4.3515,-4.3515,-4.3515,-4.3515,-4.3515,-4.3515,-4.3515,-4.3515,-4.3515,-4.3515,-4.3515,-4.3515,-4.3515,-4.3515,-4.2902,-4.2322,-4.1853,-4.1133,-4.0552,-4.0121,-4.0096,-4.0096,-4.0096,-4.0096,-4.0096,-4.0096,-4.0096,-4.0096,-4.0096,-4.0096,-4.0096,-4.0096,-4.0096,-4.0096,-2.7039,-2.9289,-3.2038,-3.6257,-3.9794,-4.2374,-4.2848,-4.3484,-4.3924,-4.3777,-4.3605,-4.3515,-4.3515,-4.3515,-4.3515,-4.3515,-4.3515,-4.3515,-4.3515,-4.3515,-4.3515,-4.3515,-4.3515,-4.3515,-4.3515,-4.3515,-4.3515,-4.3515,-4.3515,-4.3515,-4.3515,-4.3515,-4.3515,-4.3515,-4.3515,-4.3515,-4.3515,-4.3515,-4.3515,-4.3515,-4.3515,-4.3515,-4.3515,-4.3515,-4.3515,-4.3515,-4.3515,-4.3515,-4.3515,-4.3515,-4.3515,-4.3515,-4.3515,-4.3515,-4.3515,-4.3515,-4.3515,-4.3515,-4.3515,-4.3515,-4.3515,-4.3515,-4.3515,-4.3515,-4.3515,-4.3515,-4.3515,-4.3515,-4.3515,-4.3515,-4.3515,-4.3515,-4.3515,-4.3515,-4.3515,-4.3515,-4.3515,-4.3515,-4.3515,-4.3515,-4.3515,-4.3515,-4.3515,-4.3515,-4.3515,-4.3515,-4.3515,-4.3515,-4.3515,-4.3515,-4.3515,-4.3515,-4.2771,-4.2142,-4.1832,-4.1013,-4.0392,-4.0121,-4.0096,-4.0096,-4.0096,-4.0096,-4.0096,-4.0096,-4.0096,-4.0096,-4.0096,-4.0096,-4.0096,-4.0096,-4.0096,-4.0096,-2.6311,-2.9363,-3.3064,-3.7873,-4.0093,-4.1302,-4.2119,-4.265,-4.2913,-4.2582,-4.3028,-4.3515,-4.3515,-4.3515,-4.3515,-4.3515,-4.3515,-4.3515,-4.3515,-4.3515,-4.3515,-4.3515,-4.3515,-4.3515,-4.3515,-4.3515,-4.3515,-4.3515,-4.3515,-4.3515,-4.3515,-4.3515,-4.3515,-4.3515,-4.3515,-4.3515,-4.3515,-4.3515,-4.3515,-4.3515,-4.3515,-4.3515,-4.3515,-4.3515,-4.3515,-4.3515,-4.3515,-4.3515,-4.3515,-4.3515,-4.3515,-4.3515,-4.3515,-4.3515,-4.3515,-4.3515,-4.3515,-4.3515,-4.3515,-4.3515,-4.3515,-4.3515,-4.3515,-4.3515,-4.3515,-4.3515,-4.3515,-4.3515,-4.3515,-4.3515,-4.3515,-4.3515,-4.3515,-4.3515,-4.3515,-4.3515,-4.3515,-4.3515,-4.3515,-4.3515,-4.3515,-4.3515,-4.3515,-4.3515,-4.3515,-4.3515,-4.3515,-4.3515,-4.3515,-4.3515,-4.3515,-4.3515,-4.2562,-4.1916,-4.181,-4.0838,-4.0204,-4.0113,-4.0096,-4.0096,-4.0096,-4.0096,-4.0096,-4.0096,-4.0096,-4.0096,-4.0096,-4.0096,-4.0096,-4.0096,-4.0096,-4.0096,-2.4816,-2.8982,-3.3603,-3.7257,-3.9223,-4.0393,-4.0919,-4.1454,-4.1729,-4.1399,-4.2502,-4.3515,-4.3515,-4.3515,-4.3515,-4.3515,-4.3515,-4.3515,-4.3515,-4.3515,-4.3515,-4.3515,-4.3515,-4.3515,-4.3515,-4.3515,-4.3515,-4.3515,-4.3515,-4.3515,-4.3515,-4.3515,-4.3515,-4.3515,-4.3515,-4.3515,-4.3515,-4.3515,-4.3515,-4.3515,-4.3515,-4.3515,-4.3515,-4.3515,-4.3515,-4.3515,-4.3515,-4.3515,-4.3515,-4.3515,-4.3515,-4.3515,-4.3515,-4.3515,-4.3515,-4.3515,-4.3515,-4.3515,-4.3515,-4.3515,-4.3515,-4.3515,-4.3515,-4.3515,-4.3515,-4.3515,-4.3515,-4.3515,-4.3515,-4.3515,-4.3515,-4.3515,-4.3515,-4.3515,-4.3515,-4.3515,-4.3515,-4.3515,-4.3515,-4.3515,-4.3515,-4.3515,-4.3515,-4.3515,-4.3515,-4.3515,-4.3515,-4.3515,-4.3515,-4.3515,-4.3515,-4.3515,-4.2958,-4.2362,-4.1835,-4.1178,-4.0601,-4.0121,-4.0096,-4.0096,-4.0096,-4.0096,-4.0096,-4.0096,-4.0096,-4.0096,-4.0096,-4.0096,-4.0096,-4.0096,-4.0096,-4.0096,-2.5425,-2.8916,-3.2348,-3.5385,-3.7173,-3.838,-3.9021,-4.0064,-4.0791,-4.0475,-4.135,-4.2158,-4.2158,-4.2158,-4.2158,-4.2158,-4.2158,-4.2304,-4.2763,-4.2818,-4.2983,-4.346,-4.3515,-4.3515,-4.3515,-4.3515,-4.3515,-4.3515,-4.3515,-4.3515,-4.3515,-4.3515,-4.3515,-4.3515,-4.3515,-4.3515,-4.3515,-4.3515,-4.3515,-4.3515,-4.3515,-4.3515,-4.3515,-4.3515,-4.3515,-4.3515,-4.3515,-4.3515,-4.3515,-4.3515,-4.3515,-4.3515,-4.3515,-4.3515,-4.3515,-4.3515,-4.3515,-4.3515,-4.3515,-4.3515,-4.3515,-4.3515,-4.3515,-4.3515,-4.3515,-4.3515,-4.3515,-4.3515,-4.3515,-4.3515,-4.3515,-4.3515,-4.3515,-4.3515,-4.3515,-4.3515,-4.3515,-4.3515,-4.3515,-4.3515,-4.3515,-4.3515,-4.3515,-4.3515,-4.3515,-4.3515,-4.3515,-4.3515,-4.3515,-4.3515,-4.3515,-4.3515,-4.2715,-4.2241,-4.2302,-4.1446,-4.0803,-4.0552,-4.0552,-4.04,-4.0121,-4.0096,-4.0096,-4.0096,-4.0096,-4.0096,-4.0096,-4.0096,-4.0096,-4.0096,-4.0096,-4.0096,-2.5491,-2.7834,-2.9869,-3.2977,-3.4778,-3.6019,-3.7056,-3.8473,-3.9526,-3.932,-3.9937,-4.049,-4.049,-4.082,-4.1095,-4.1095,-4.1095,-4.1297,-4.1919,-4.2011,-4.2213,-4.2818,-4.3057,-4.3185,-4.3185,-4.3386,-4.3515,-4.3515,-4.3515,-4.3515,-4.3515,-4.3515,-4.3515,-4.3515,-4.3515,-4.3515,-4.3515,-4.3515,-4.3515,-4.3515,-4.3515,-4.3515,-4.3515,-4.3515,-4.3515,-4.3515,-4.3515,-4.3515,-4.3515,-4.3515,-4.3515,-4.3515,-4.3515,-4.3515,-4.3515,-4.3515,-4.3515,-4.3515,-4.3515,-4.3515,-4.3515,-4.3515,-4.3515,-4.3515,-4.3515,-4.3515,-4.3515,-4.3515,-4.3515,-4.3515,-4.3515,-4.3515,-4.3515,-4.3515,-4.3515,-4.3515,-4.3515,-4.3515,-4.3515,-4.3515,-4.3515,-4.3515,-4.3515,-4.3515,-4.3515,-4.3515,-4.3515,-4.3515,-4.3515,-4.3515,-4.3515,-4.3515,-4.2734,-4.2364,-4.2674,-4.1874,-4.1291,-4.1155,-4.0995,-4.0709,-4.0311,-4.0154,-4.0096,-4.0096,-4.0096,-4.0096,-4.0096,-4.0096,-4.0096,-4.0096,-4.0096,-4.0096,-2.3739,-2.4862,-2.608,-3.0179,-3.2207,-3.3615,-3.5254,-3.6665,-3.7651,-3.7621,-3.8248,-3.8836,-3.8836,-4.0068,-4.1095,-4.1095,-4.1095,-4.1113,-4.115,-4.115,-4.1168,-4.1224,-4.1901,-4.2359,-4.2359,-4.3039,-4.3515,-4.3515,-4.3515,-4.3515,-4.3515,-4.3515,-4.3515,-4.3515,-4.3515,-4.3515,-4.3515,-4.3515,-4.3515,-4.3515,-4.3515,-4.3515,-4.3515,-4.3515,-4.3515,-4.3515,-4.3515,-4.3515,-4.3515,-4.3515,-4.3515,-4.3515,-4.3515,-4.3515,-4.3515,-4.3515,-4.3515,-4.3515,-4.3515,-4.3515,-4.3515,-4.3515,-4.3515,-4.3515,-4.3515,-4.3515,-4.3515,-4.3515,-4.3515,-4.3515,-4.3515,-4.3515,-4.3515,-4.3515,-4.3515,-4.3515,-4.3515,-4.3515,-4.3515,-4.3515,-4.3515,-4.3515,-4.3515,-4.3515,-4.3515,-4.3515,-4.3515,-4.3515,-4.3515,-4.3515,-4.3515,-4.3515,-4.3444,-4.3214,-4.275,-4.2635,-4.2362,-4.1789,-4.1223,-4.088,-4.0856,-4.0368,-4.0096,-4.0096,-4.0096,-4.0096,-4.0096,-4.0096,-4.0096,-4.0096,-4.0096,-4.0096,-2.2454,-2.3568,-2.5021,-2.7548,-2.932,-3.0865,-3.2496,-3.4447,-3.6064,-3.6597,-3.7367,-3.8098,-3.8597,-3.9184,-3.957,-3.957,-3.957,-3.9753,-4.0267,-4.0322,-4.0524,-4.104,-4.1352,-4.1534,-4.1534,-4.2268,-4.2727,-4.2727,-4.3221,-4.3515,-4.3515,-4.3515,-4.3515,-4.3515,-4.3515,-4.3515,-4.3515,-4.3515,-4.3515,-4.3515,-4.3515,-4.3515,-4.3515,-4.3515,-4.3515,-4.3515,-4.3515,-4.3515,-4.3515,-4.3515,-4.3515,-4.3515,-4.3515,-4.3515,-4.3515,-4.3515,-4.3515,-4.3515,-4.3515,-4.3515,-4.3515,-4.3515,-4.3515,-4.3515,-4.3515,-4.3515,-4.3515,-4.3515,-4.3515,-4.3515,-4.3515,-4.3515,-4.3515,-4.3515,-4.3515,-4.3515,-4.3515,-4.3515,-4.3515,-4.3515,-4.3515,-4.3515,-4.3515,-4.3515,-4.3515,-4.3515,-4.3515,-4.3515,-4.3515,-4.3515,-4.3515,-4.3515,-4.3196,-4.305,-4.3196,-4.3355,-4.3374,-4.3176,-4.2953,-4.2701,-4.2447,-4.176,-4.1193,-4.0823,-4.0798,-4.0561,-4.0096,-4.0096,-4.0096,-4.0096,-4.0096,-4.0096,-2.1298,-2.2363,-2.385,-2.5731,-2.6998,-2.8356,-3.0503,-3.2669,-3.4435,-3.5293,-3.6336,-3.7345,-3.8138,-3.8303,-3.8395,-3.867,-3.8707,-3.8891,-3.9423,-3.9496,-3.9698,-4.0215,-4.0545,-4.071,-4.0691,-4.1422,-4.1899,-4.1901,-4.2396,0.0,-4.269,-4.269,-4.269,-4.269,-4.269,-4.2818,-4.3075,-4.3094,-4.3222,-4.3515,-4.3515,-4.3515,-4.3515,-4.3515,-4.3515,-4.3515,-4.3515,-4.3515,-4.3515,-4.3515,-4.3515,-4.3515,-4.3515,-4.3515,-4.3515,-4.3515,-4.3515,-4.3515,-4.3515,-4.3515,-4.3515,-4.3515,-4.3515,-4.3515,-4.3515,-4.3515,-4.3515,-4.3515,-4.3515,-4.3515,-4.3515,-4.3515,-4.3515,-4.3515,-4.3515,-4.3515,-4.3515,-4.3515,-4.3515,-4.3515,-4.3515,-4.3515,-4.3515,-4.3515,-4.3515,-4.3515,-4.3515,-4.3515,-4.3515,-4.3736,-4.3901,-4.3901,-4.3816,-4.3925,-4.4287,-4.4473,-4.4575,-4.4575,-4.4402,-4.4175,-4.3925,-4.3003,-4.2319,-4.1912,-4.1452,-4.0967,-4.0485,-4.0231,-4.0096,-4.0096,-4.0096,-4.0096,0.0,0.0,0.0,-2.4713,-2.5283,-2.6127,-2.9292,-3.1274,-3.2674,-3.355,-3.5037,-3.645,-3.7309,-3.7456,-3.7731,-3.8505,-3.867,-3.8707,-3.8707,-3.8707,-3.8707,-3.8707,-3.9392,-3.9868,-3.9863,-4.0591,-4.105,-4.1058,-4.1077,-4.1095,-4.1095,-4.1095,-4.1095,-4.1095,-4.1095,-4.1462,-4.2268,-4.2286,-4.269,-4.346,-4.3496,-4.3515,-4.3515,-4.3515,-4.3515,-4.3515,-4.3515,-4.3515,-4.3515,-4.3515,-4.3515,-4.3515,-4.3515,-4.3515,-4.3515,-4.3515,-4.3515,-4.3515,-4.3515,-4.3515,-4.3515,-4.3515,-4.3515,-4.3515,-4.3515,-4.3515,-4.3515,-4.3515,-4.3515,-4.3515,-4.3515,-4.3515,-4.3515,-4.3515,-4.3515,-4.3515,-4.3515,-4.3515,-4.3515,-4.3515,-4.3515,-4.3515,-4.3515,-4.3515,-4.3515,-4.3515,-4.3533,-4.3551,-4.3551,-4.425,-4.4745,-4.4745,-4.5424,-4.5902,-4.5902,-4.592,-4.5938,-4.5938,-4.5432,-4.5136,-4.5172,-4.3978,-4.3325,-4.3325,-4.1963,-4.1221,-4.1204,-4.0468,-4.0096,-4.0096,-4.013,-4.013,-2.0603,0.0,0.0,0.0,0.0,0.0,-2.5383,-2.7108,-2.898,-3.1544,-3.2908,-3.4247,-3.6248,-3.6615,-3.6688,-3.6927,-3.7936,-3.8707,-3.8707,-3.8707,-3.8707,-3.8707,-3.8894,-3.9022,-3.9038,-3.9751,-4.0228,0.0,-4.0781,-4.1095,-4.1095,-4.1095,-4.1095,-4.1095,-4.1095,-4.1205,-4.1425,-4.2011,-4.2415,-4.2635,-4.3222,-4.3515,-4.3515,-4.3515,-4.3515,-4.3515,-4.3515,-4.3515,-4.3515,-4.3515,-4.3515,-4.3515,-4.3515,-4.3515,-4.3515,-4.3515,-4.3515,-4.3515,-4.3515,-4.3515,-4.3515,-4.3515,-4.3515,-4.3515,-4.3515,-4.3515,-4.3515,-4.3515,-4.3515,-4.3515,-4.3515,-4.3515,-4.3515,-4.3515,-4.3515,-4.3515,-4.3515,-4.3515,-4.3515,-4.3515,-4.3515,-4.3515,-4.3515,-4.3515,-4.3515,-4.3515,-4.3993,-4.4378,-4.4378,-4.5076,-4.5571,-4.5571,-4.5773,-4.5902,-4.5902,-4.6434,-4.6764,-4.6764,-4.6228,-4.6179,-4.6738,-4.5,-4.4048,-4.4089,-4.2714,-4.1728,-4.1204,-4.0468,-4.0096,-4.0113,-4.0646,-4.0899,-2.118,-2.1657,-2.2373,-2.273,0.0,0.0,-2.4685,-2.5676,-2.6814,-2.9377,-3.0815,-3.2137,-3.3917,-3.4798,-3.5367,-3.5697,-3.6853,-3.7826,-3.8157,-3.8487,-3.8707,-3.8707,-3.8707,-3.8707,-3.8707,-3.9129,-3.9405,-3.9405,-3.9827,-4.0086,-4.0086,-4.0086,-4.0086,-4.0086,-4.0086,-4.0251,-4.0598,-4.1056,-4.1644,-4.2304,-4.2782,-4.3167,-4.3515,-4.3515,-4.3515,-4.3515,-4.3515,-4.3515,-4.3515,-4.3515,-4.3515,-4.3515,-4.3515,-4.3515,-4.3515,-4.3515,-4.3515,-4.3515,-4.3515,-4.3515,-4.3515,-4.3515,-4.3515,-4.3515,-4.3515,-4.3515,-4.3515,-4.3515,-4.3515,-4.3515,-4.3515,-4.3515,-4.3515,-4.3515,-4.3515,-4.3515,-4.3515,-4.3515,-4.3515,-4.3515,-4.3515,-4.3515,-4.3515,-4.3515,-4.3515,-4.3515,-4.3901,-4.4323,-4.4672,-4.5406,-4.603,-4.6361,-4.6709,-4.6799,-4.6551,-4.7182,-4.7361,-4.6845,-4.6741,-4.6916,-4.7388,-4.5714,-4.4937,-4.5226,-4.3597,-4.2405,-4.166,-4.062,-4.0265,-4.0561,-4.1001,-4.1373,-2.2088,-2.2648,-2.341,-2.4043,-2.3189,0.0,-2.5474,-2.5723,-2.5815,-2.7247,-2.8741,-3.0063,-3.0974,-3.2302,-3.3513,-3.4215,-3.5206,-3.6229,-3.7235,-3.7973,-3.8432,-3.8432,-3.8432,-3.8469,-3.856,-3.8579,-3.8597,-3.8689,-3.8707,-3.8707,-3.8707,-3.8707,-3.8707,-3.8707,-3.8707,-3.9038,-3.9753,-3.9845,-4.0616,-4.2029,-4.2121,-4.2598,-4.3369,-4.3369,-4.3423,-4.3515,-4.3515,-4.3515,-4.3515,-4.3515,-4.3515,-4.3515,-4.3515,-4.3515,-4.3515,-4.3515,-4.3515,-4.3515,-4.3515,-4.3515,-4.3515,-4.3515,-4.3515,-4.3515,-4.3515,-4.3515,-4.3515,-4.3515,-4.3515,-4.3515,-4.3515,-4.3515,-4.3515,-4.3515,-4.3515,-4.3515,-4.3515,-4.3515,-4.3515,-4.3515,-4.3515,-4.3515,-4.3515,-4.3515,-4.3515,-4.3515,-4.3588,-4.392,-4.4727,-4.5553,-4.6342,-4.7149,-4.7865,-4.8055,-4.7449,-4.7897,-4.7697,-4.6478,-4.6887,-4.7216,-4.7299,-4.6063,-4.5681,-4.6288,-4.4379,-4.3047,-4.2286,-4.0993,-4.0663,-4.1322,-4.1407,-4.1796,-2.3906,-2.4328,-2.4805,-2.4318,-2.4456,0.0,-2.3043,-2.4126,-2.5485,-2.5797,-2.6631,-2.7739,-2.9207,-2.9721,-2.9996,-3.0161,-3.194,-3.4082,-3.6229,-3.667,-3.6762,-3.6762,-3.6762,-3.7019,-3.7676,-3.7731,-3.7991,-3.8652,-3.8707,-3.8707,-3.8707,-3.8707,-3.8707,-3.8707,-3.8707,-3.8781,-3.8927,-3.957,-4.0047,-4.0377,-4.102,-4.1772,-4.2525,-4.2525,-4.2892,-4.3515,-4.3515,-4.3515,-4.3515,-4.3515,-4.3515,-4.3515,-4.3515,-4.3515,-4.3515,-4.3515,-4.3515,-4.3515,-4.3515,-4.3515,-4.3515,-4.3515,-4.3515,-4.3515,-4.3515,-4.3515,-4.3515,-4.3515,-4.3515,-4.3515,-4.3515,-4.3515,-4.3515,-4.3515,-4.3515,-4.3515,-4.3515,-4.3515,-4.3515,-4.3515,-4.3515,-4.3515,-4.3515,-4.3515,-4.3515,-4.3515,-4.4048,-4.4764,-4.5571,-4.6379,-4.7168,-4.7994,-4.8214,-4.8055,-4.7449,-4.7509,-4.7237,-4.6454,-4.6063,-4.6088,-4.6571,-4.5407,-4.5062,-4.5673,-4.4175,-4.3047,-4.2286,-4.1999,-4.1931,-4.21,-4.2692,-4.3037,-2.5026,-2.5081,-2.5393,-2.5401,-2.5089,0.0,0.0,-2.3906,-2.4428,-2.5227,-2.5411,-2.5897,-2.7501,-2.7794,-2.7923,-2.8338,-3.0099,-3.1702,-3.254,-3.4761,-3.6303,-3.6303,-3.6303,-3.645,-3.6868,-3.6905,-3.7254,-3.8028,-3.8469,-3.8707,-3.8707,-3.8707,-3.8707,-3.8707,-3.8707,-3.8707,-3.8707,-3.9093,-3.9496,-3.99,-4.0304,-4.113,-4.2304,-4.2304,-4.2745,-4.3515,-4.3515,-4.3515,-4.3515,-4.3515,-4.3515,-4.3515,-4.3515,-4.3515,-4.3515,-4.3515,-4.3515,-4.3515,-4.3515,-4.3515,-4.3515,-4.3515,-4.3515,-4.3515,-4.3515,-4.3515,-4.3515,-4.3515,-4.3515,-4.3515,-4.3515,-4.3515,-4.3515,-4.3515,-4.3515,-4.3515,-4.3515,-4.3515,-4.3515,-4.3515,-4.3515,-4.3515,-4.3515,-4.3515,-4.3515,-4.3515,-4.3828,-4.4544,-4.5736,-4.625,-4.6966,-4.8177,-4.8035,-4.7575,-4.6955,-4.691,-4.6501,-4.5545,-4.5511,-4.5648,-4.594,-4.5089,-4.4748,-4.5052,-4.4357,-4.3809,-4.3464,-4.3464,-4.3234,-4.2861,-4.325,-4.3595,-2.6549,-2.6439,-2.6605,-2.6778,-2.6098,-2.5273,0.0,0.0,0.0,-2.4768,-2.4548,-2.4593,-2.5897,-2.6135,-2.6355,-2.6998,-2.8466,-2.9292,-2.8638,-3.221,-3.489,-3.489,-3.5165,-3.5422,-3.5569,-3.5734,-3.6225,-3.7199,-3.7569,-3.7973,-3.8432,-3.8469,-3.8542,-3.8707,-3.8707,-3.8707,-3.8707,-3.8707,-3.9038,-3.9662,-3.9662,-4.0432,-4.1846,-4.1992,-4.2506,-4.3277,-4.3441,-4.3515,-4.3515,-4.3515,-4.3515,-4.3515,-4.3515,-4.3515,-4.3515,-4.3515,-4.3515,-4.3515,-4.3515,-4.3515,-4.3515,-4.3515,-4.3515,-4.3515,-4.3515,-4.3515,-4.3515,-4.3515,-4.3515,-4.3515,-4.3515,-4.3515,-4.3515,-4.3515,-4.3515,-4.3515,-4.3515,-4.3515,-4.3515,-4.3515,-4.3515,-4.3515,-4.3515,-4.3515,-4.3515,-4.3515,-4.3515,-4.4066,-4.5681,-4.5902,-4.6526,-4.8141,-4.7756,-4.7128,-4.6454,-4.6288,-4.5757,-4.4682,-4.5062,-4.532,-4.532,-4.4852,-4.4615,-4.4615,-4.4615,-4.4615,-4.4615,-4.4615,-4.4265,-4.3639,-4.3639,-4.3978,-2.9861,-3.0173,-3.024,-2.8172,-2.8594,-2.8429,-2.4217,0.0,-2.5629,-2.3685,0.0,-2.4263,-2.4447,0.0,0.0,-2.4593,-2.597,-2.6969,-2.6877,-2.8583,-2.9831,-2.9831,-3.1091,-3.2228,-3.2949,-3.3678,-3.4743,-3.6321,-3.5147,-3.5312,-3.7529,-3.7639,-3.797,-3.8689,-3.8707,-3.8707,-3.8707,-3.8707,-3.8762,-3.8836,-3.8836,-3.9313,-4.0194,-4.091,-4.168,-4.2488,-4.3185,-4.3515,-4.3515,-4.3515,-4.3515,-4.3515,-4.3515,-4.3515,-4.3515,-4.3515,-4.3515,-4.3515,-4.3515,-4.3515,-4.3515,-4.3515,-4.3515,-4.3515,-4.3515,-4.3515,-4.3515,-4.3515,-4.3515,-4.3515,-4.3515,-4.3515,-4.3515,-4.3515,-4.3515,-4.3515,-4.3515,-4.3515,-4.3515,-4.3515,-4.3515,-4.3515,-4.3515,-4.3515,-4.3515,-4.3515,-4.3515,-4.4066,-4.5681,-4.5902,-4.6526,-4.8141,-4.7756,-4.7128,-4.6454,-4.5915,-4.532,-4.4654,-4.4654,-4.4692,-4.4692,-4.4626,-4.4615,-4.4615,-4.4615,-4.4615,-4.4615,-4.4615,-4.4564,-4.4479,-4.4479,-4.4513,-3.0411,-3.0797,-3.0925,-2.898,-2.9005,-2.8613,-2.5162,-2.4814,-2.5052,-2.4502,0.0,0.0,0.0,0.0,0.0,0.0,-2.5162,-2.5585,-2.4639,-2.5897,-2.7438,-2.884,-2.9592,0.0,-3.1115,-3.1935,-3.2889,-3.4082,-3.3935,-3.4468,-3.5973,-3.6978,-3.7658,-3.7991,-3.8469,-3.8707,-3.8707,-3.8707,-3.8707,-3.8707,-3.8707,-3.9129,-3.9916,-4.0249,-4.1093,-4.2323,-4.2653,-4.3057,-4.3515,-4.3515,-4.3515,-4.3515,-4.3515,-4.3515,-4.3515,-4.3515,-4.3515,-4.3515,-4.3515,-4.3515,-4.3515,-4.3515,-4.3515,-4.3515,-4.3515,-4.3515,-4.3515,-4.3515,-4.3515,-4.3515,-4.3515,-4.3515,-4.3515,-4.3515,-4.3515,-4.3515,-4.3515,-4.3515,-4.3515,-4.3515,-4.3515,-4.3515,-4.3515,-4.3515,-4.3515,-4.3515,-4.3901,-4.4617,-4.5755,-4.6305,-4.7021,-4.8196,-4.7409,-4.671,-4.6413,-4.5537,-4.4852,-4.4626,-4.4615,-4.4615,-4.4615,-4.4615,-4.4615,-4.4615,-4.4615,-4.4615,-4.4615,-4.4615,-4.4615,-4.4615,-4.4615,-4.4615,-3.1347,-3.1604,-3.1568,-2.9519,-2.9005,-2.8308,-2.5668,-2.497,-2.4961,-2.5319,-2.4814,0.0,0.0,0.0,-2.4116,-2.4465,0.0,-2.4915,-2.3529,-2.4135,-2.5383,-2.7152,-2.7941,0.0,0.0,-2.9861,-3.0595,-3.1849,-3.2063,-3.2889,-3.4582,-3.6028,-3.7033,-3.7492,-3.8285,-3.8707,-3.8707,-3.8707,-3.8707,-3.8707,-3.8707,-3.9019,-3.957,-3.979,-4.0543,-4.1662,-4.2103,-4.2635,-4.3185,-4.3423,-4.3515,-4.3515,-4.3515,-4.3515,-4.3515,-4.3515,-4.3515,-4.3515,-4.3515,-4.3515,-4.3515,-4.3515,-4.3515,-4.3515,-4.3515,-4.3515,-4.3515,-4.3515,-4.3515,-4.3515,-4.3515,-4.3515,-4.3515,-4.3515,-4.3515,-4.3515,-4.3515,-4.3515,-4.3515,-4.3515,-4.3515,-4.357,-4.3791,-4.3828,-4.3828,-4.3828,-4.4507,-4.5333,-4.614,-4.6727,-4.7406,-4.8214,-4.7154,-4.6407,-4.6407,-4.5294,-4.4615,-4.4615,-4.4615,-4.4615,-4.4615,-4.4615,-4.4615,-4.4615,-4.4615,-4.4615,-4.4615,-4.4615,-4.4615,-4.4615,-4.4615,-4.4615,-3.3697,-3.3697,-3.2963,-2.9794,-2.9005,-2.8161,-2.4961,-2.5419,-2.6319,-2.5558,-2.6605,-2.742,-2.6704,-2.651,-2.6245,-2.5485,-2.5374,0.0,0.0,-2.3547,-2.3116,-2.3189,-2.5244,-2.6998,0.0,-2.72,-2.7732,0.0,-2.8851,-2.9696,-3.3623,-3.4619,-3.5811,-3.7456,-3.8285,-3.8707,-3.8707,-3.8707,-3.8707,-3.8707,-3.8707,-3.8707,-3.8762,-3.9533,-3.9918,-4.0047,-4.1625,-4.2304,-4.2396,-4.3167,-4.3515,-4.3515,-4.3515,-4.3515,-4.3515,-4.3515,-4.3515,-4.3515,-4.3515,-4.3515,-4.3515,-4.3515,-4.3515,-4.3515,-4.3515,-4.3515,-4.3515,-4.3515,-4.3515,-4.3515,-4.3515,-4.3515,-4.3515,-4.3515,-4.3515,-4.3515,-4.3515,-4.3515,-4.3515,-4.3515,-4.3515,-4.3736,-4.4544,-4.4672,-4.4672,-4.4672,-4.5351,-4.6159,-4.6947,-4.7076,-4.7406,-4.8214,-4.7154,-4.6407,-4.6407,-4.5294,-4.4615,-4.4615,-4.4615,-4.4615,-4.4615,-4.4615,-4.4615,-4.4615,-4.4615,-4.4615,-4.4615,-4.4615,-4.4615,-4.4615,-4.4615,-4.4615,0.0,0.0,-3.5459,-3.2197,0.0,0.0,-2.6521,-2.6612,-2.6998,-2.5668,-2.709,-2.818,-2.684,-2.6602,-2.6337,-2.5521,-2.5393,-2.475,0.0,-2.1877,-2.1557,-2.2134,-2.3859,-2.5126,-2.5383,-2.565,-2.6374,-2.7732,-2.7805,0.0,-3.1292,-3.3201,-3.4706,-3.5811,-3.7184,-3.8157,-3.8689,-3.8707,-3.8707,-3.8707,-3.8707,-3.8707,-3.8707,-3.8982,-3.9405,-3.9955,-4.1038,-4.1809,-4.2359,-4.3167,-4.3515,-4.3515,-4.3515,-4.3515,-4.3515,-4.3515,-4.3515,-4.3515,-4.3515,-4.3515,-4.3515,-4.3515,-4.3515,-4.3515,-4.3515,-4.3515,-4.3515,-4.3515,-4.3515,-4.3515,-4.3515,-4.3515,-4.3515,-4.3515,-4.3515,-4.3515,-4.3515,-4.3515,-4.3515,-4.3515,-4.392,-4.4378,-4.4636,-4.5572,-4.6104,-4.5571,-4.6195,-4.6782,-4.7058,-4.7553,-4.8012,-4.8269,-4.7154,-4.6407,-4.6407,-4.5294,-4.4615,-4.4615,-4.4615,-4.4615,-4.4615,-4.4615,-4.4615,-4.4615,-4.4615,-4.4615,-4.4615,-4.4615,-4.4615,-4.4615,-4.4615,-4.4615,-3.4564,-3.5479,0.0,-3.3399,-3.2242,0.0,-2.7917,0.0,-2.8238,-2.6922,-2.8015,-2.901,-2.8364,-2.7576,-2.679,-2.6122,-2.5659,-2.4548,0.0,-2.1308,-2.1161,-2.1721,-2.296,-2.3896,-2.4171,-2.4144,-2.4695,-2.6062,-2.6392,-2.7475,0.0,-3.2063,-3.3867,-3.4968,-3.6633,-3.7896,-3.8689,-3.8707,-3.8707,-3.8707,-3.8707,-3.8707,-3.8707,-3.8707,-3.8982,-3.9533,-4.0634,-4.1389,-4.1974,-4.3039,-4.3515,-4.3515,-4.3515,-4.3515,-4.3515,-4.3515,-4.3515,-4.3515,-4.3515,-4.3515,-4.3515,-4.3515,-4.3515,-4.3515,-4.3515,-4.3515,-4.3515,-4.3515,-4.3515,-4.3515,-4.3515,-4.3515,-4.3515,-4.3515,-4.3515,-4.3515,-4.3515,-4.3515,-4.3571,-4.3864,-4.436,-4.4874,-4.5443,-4.6415,-4.6911,-4.6416,-4.7003,-4.7516,-4.7516,-4.7994,-4.8306,-4.8306,-4.7154,-4.6216,-4.5808,-4.5052,-4.4615,-4.4615,-4.4615,-4.4615,-4.4615,-4.4615,-4.4615,-4.4615,-4.4615,-4.4615,-4.4615,-4.4615,-4.4615,-4.4615,-4.4615,-4.4615]},{"header":{"parameterUnit":"m.s-1","parameterCategory":1,"la1":30.6,"la2":29.2853,"lo1":-89.7004,"lo2":-87.6739,"dy":0.0162,"dx":0.0183,"nx":112,"ny":82,"refTime":"2026-04-25T00:00:00:Z","depth":0,"parameterNumber":3,"parameterNumberName":"V-component_of_WINDS"},"data":[0.0,0.0,0.0,0.0,0.0,0.0,0.0,0.0,0.0,0.0,0.0,0.0,0.0,0.0,0.0,0.0,0.0,0.0,0.0,0.0,0.0,0.0,0.0,0.0,0.0,0.0,0.0,0.0,0.0,0.0,0.0,0.0,0.0,0.0,0.0,0.0,0.0,0.0,0.0,0.0,0.0,0.0,0.0,0.0,0.0,0.0,0.0,0.0,0.0,0.0,0.0,0.0,0.0,0.0,0.0,0.0,0.0,0.0,0.0,0.0,0.0,0.0,0.0,0.0,0.0,0.0,0.0,0.0,0.0,0.0,0.0,0.0,0.0,0.0,0.0,0.0,0.0,0.0,0.0,0.0,0.0,0.0,0.0,0.0,0.0,0.0,0.0,0.0,0.0,0.0,0.9776,1.1084,1.2989,1.4393,1.4965,1.4649,1.3587,1.1515,0.0,0.0,0.0,0.0,0.0,0.0,0.0,0.0,0.0,0.0,0.0,0.0,0.0,0.0,0.0,0.0,0.0,0.0,0.0,0.0,0.0,0.0,0.0,0.0,0.0,0.0,0.0,0.0,0.0,0.0,0.0,0.0,0.0,0.0,0.0,0.0,0.0,0.0,0.0,0.0,0.0,0.0,0.0,0.0,0.0,0.0,0.0,0.0,0.0,0.0,0.0,0.0,0.0,0.0,0.0,0.0,0.0,0.0,0.0,0.0,0.0,0.0,0.0,0.0,0.0,0.0,0.0,0.0,0.0,0.0,0.0,0.0,0.0,0.0,0.0,0.0,0.0,0.0,0.0,0.0,0.0,0.0,0.0,0.0,0.0,0.0,0.0,0.0,0.0,0.0,0.0,0.0,0.0,0.0,0.0,0.0,0.0,0.0,0.0,0.0,0.0,0.0,0.0,0.0,1.0802,1.3001,1.4593,1.5351,1.501,1.4469,1.3373,1.1509,0.0,0.0,0.0,0.0,0.0,0.0,0.0,0.0,0.0,0.0,0.0,0.0,0.0,0.0,0.0,0.0,0.0,0.0,0.0,0.0,0.0,0.0,0.0,0.0,0.0,0.0,0.0,0.0,0.0,0.0,0.0,0.0,0.0,0.0,0.0,0.0,0.0,0.0,0.0,0.0,0.0,0.0,0.0,0.0,0.0,0.0,0.0,0.0,0.0,0.0,0.0,0.0,0.0,0.0,0.0,0.0,0.0,0.0,0.0,0.0,0.0,0.0,0.0,0.0,0.0,0.0,0.0,0.0,0.0,0.0,0.0,0.0,0.0,0.0,0.0,0.0,0.0,0.0,0.0,0.0,0.0,0.0,0.0,0.0,0.0,0.0,0.0,0.0,0.0,0.0,0.0,0.0,0.0,0.0,0.0,0.0,0.0,0.0,0.0,0.0,0.0,0.0,0.0,1.1327,1.2364,1.4389,1.5323,1.5591,1.5062,1.4472,1.3327,1.1502,1.0581,0.0,0.0,0.0,0.0,0.0,0.0,0.0,0.0,0.0,0.0,0.0,0.0,0.0,0.0,0.0,0.0,0.0,0.0,0.0,0.0,0.0,0.0,0.0,0.0,0.0,0.0,0.0,0.0,0.0,0.0,0.0,0.0,0.0,0.0,0.0,0.0,0.0,0.0,0.0,0.0,0.0,0.0,0.0,0.0,0.0,0.0,0.0,0.0,0.0,0.0,0.0,0.0,0.0,0.0,0.0,0.0,0.0,0.0,0.0,0.0,0.0,0.0,0.0,0.0,0.0,0.0,0.0,0.0,0.0,0.0,0.0,0.0,0.0,0.0,0.0,0.0,0.0,0.0,0.0,0.0,0.0,0.0,0.0,0.0,0.0,0.0,0.0,0.0,0.0,0.0,0.0,0.0,0.0,0.0,0.0,0.0,0.0,0.0,0.0,0.0,0.0,0.0,1.2985,1.3809,1.5331,1.5698,1.5591,1.5062,1.4302,1.318,1.1495,1.02,0.0,0.0,0.0,0.0,0.0,0.0,0.0,0.0,0.0,0.0,0.0,0.0,0.0,0.0,0.0,0.0,0.0,0.0,0.0,0.0,0.0,0.0,0.0,0.0,0.0,0.0,0.0,0.0,0.0,0.0,0.0,0.0,0.0,0.0,0.0,0.0,0.0,0.0,0.0,0.0,0.0,0.0,0.0,0.0,0.0,0.0,0.0,0.0,0.0,0.0,0.0,0.0,0.0,0.0,0.0,0.0,0.0,0.0,0.0,0.0,0.0,0.0,0.0,0.0,0.0,0.0,0.0,0.0,0.0,0.0,0.0,0.0,0.0,0.0,0.0,0.0,0.0,0.0,0.0,0.0,0.0,0.0,0.0,0.0,0.0,0.0,0.0,0.0,0.0,0.0,0.0,0.0,0.0,0.0,0.0,0.0,0.0,0.0,0.0,0.0,0.0,0.0,1.354,1.4756,1.5651,1.5771,1.5591,1.5062,1.3921,1.2746,1.1469,0.982,0.0,0.0,0.0,0.0,0.0,0.0,0.0,0.0,0.0,0.0,0.0,0.0,0.0,0.0,0.0,0.0,0.0,0.0,0.0,0.0,0.0,0.0,0.0,0.0,0.0,0.0,0.0,0.0,0.0,0.0,0.0,0.0,0.0,0.0,0.0,0.0,0.0,0.0,0.0,0.0,0.0,0.0,0.0,0.0,0.0,0.0,0.0,0.0,0.0,0.0,0.0,0.0,0.0,0.0,0.0,0.0,0.0,0.0,0.0,0.0,0.0,0.0,0.0,0.0,0.0,0.0,0.0,0.0,0.0,0.0,0.0,0.0,0.0,0.0,0.0,0.0,0.0,0.0,0.0,0.0,0.0,0.0,0.0,0.0,0.0,0.0,0.0,0.0,0.0,0.0,0.0,0.0,0.0,0.0,0.0,0.0,0.0,0.0,0.0,0.0,0.0,0.0,1.3126,1.4249,1.5631,1.5665,1.5398,1.5042,1.4055,1.2854,1.1475,0.0,0.0,0.0,0.0,0.0,0.0,0.0,0.0,0.0,0.0,0.0,0.0,0.0,0.0,0.0,0.0,0.0,0.0,0.0,0.0,0.0,0.0,0.0,0.0,0.0,0.0,0.0,0.0,0.0,0.0,0.0,0.0,0.0,0.0,0.0,0.0,0.0,0.0,0.0,0.0,0.0,0.0,0.0,0.0,0.0,0.0,0.0,0.0,0.0,0.0,0.0,0.0,0.0,0.0,0.0,0.0,0.0,0.0,0.0,0.0,0.0,0.0,0.0,0.0,0.0,0.0,0.0,0.0,0.0,0.0,0.0,0.0,0.0,0.0,0.0,0.0,0.0,0.0,0.0,0.0,0.0,0.0,0.0,0.0,0.0,0.0,0.0,0.0,0.0,0.0,0.0,0.0,0.0,0.0,0.0,0.0,0.0,0.0,0.0,0.0,0.0,0.0,1.1911,1.3019,1.4155,1.5545,1.5518,1.5277,1.5035,1.3895,1.2667,1.1469,0.0,0.0,0.0,0.0,0.0,0.0,0.0,0.0,0.0,0.0,0.0,0.0,0.0,0.0,0.0,0.0,0.0,0.0,0.0,0.0,0.0,0.0,0.0,0.0,0.0,0.0,0.0,0.0,0.0,0.0,0.0,0.0,0.0,0.0,0.0,0.0,0.0,0.0,0.0,0.0,0.0,0.0,0.0,0.0,0.0,0.0,0.0,0.0,0.0,0.0,0.0,0.0,0.0,0.0,0.0,0.0,0.0,0.0,0.0,0.0,0.0,0.0,0.0,0.0,0.0,0.0,0.0,0.0,0.0,0.0,0.0,0.0,0.0,0.0,0.0,0.0,0.0,0.0,0.0,0.0,0.0,0.0,0.0,0.0,0.0,0.0,0.0,0.0,0.0,0.0,0.0,0.0,0.0,0.0,0.0,0.0,0.0,0.0,0.0,0.0,0.0,0.0,1.1752,1.3414,1.4736,1.5324,1.5391,1.5271,1.5028,1.3327,1.2051,0.0,0.0,0.0,0.0,0.0,0.0,0.0,0.0,0.0,0.0,0.0,0.0,0.0,0.0,0.0,0.0,0.0,0.0,0.0,0.0,0.0,0.0,0.0,0.0,0.0,0.0,0.0,0.0,0.0,0.0,0.0,0.0,0.0,0.0,0.0,0.0,0.0,0.0,0.0,0.0,0.0,0.0,0.0,0.0,0.0,0.0,0.0,0.0,0.0,0.0,0.0,0.0,0.0,0.0,0.0,0.0,0.0,0.0,0.0,0.0,0.0,0.0,0.0,0.0,0.0,0.0,0.0,0.0,0.0,0.0,0.0,0.0,0.0,0.0,0.0,0.0,0.0,0.0,0.0,0.0,0.0,0.0,0.0,0.0,0.0,0.0,0.0,0.0,0.0,0.0,0.0,0.0,0.0,0.0,0.0,0.0,0.0,0.0,0.0,0.0,0.0,0.0,0.0,1.1725,1.306,1.4208,1.5048,1.4903,1.4743,1.4656,1.34,1.2278,1.1442,0.0,0.0,0.0,0.0,0.0,0.0,0.0,0.0,0.0,0.0,0.0,0.0,0.0,0.0,0.0,0.0,0.0,0.0,0.0,0.0,0.0,0.0,0.0,0.0,0.0,0.0,0.0,0.0,0.0,0.0,0.0,0.0,0.0,0.0,0.0,0.0,0.0,0.0,0.0,0.0,0.0,0.0,0.0,0.0,0.0,0.0,0.0,0.0,0.0,0.0,0.0,0.0,0.0,0.0,0.0,0.0,0.0,0.0,0.0,0.0,0.0,0.0,0.0,0.0,0.0,0.0,0.0,0.0,0.0,0.0,0.0,0.0,0.0,0.0,0.0,0.0,0.0,0.0,0.0,0.0,0.0,0.0,0.0,0.0,0.0,0.0,0.0,0.0,0.0,0.0,0.0,0.0,0.0,0.0,0.0,0.0,0.0,0.0,0.0,0.0,0.0,0.0,1.1523,1.2794,1.3893,1.4703,1.4629,1.4522,1.4522,1.3474,1.2409,1.1449,0.0,0.0,0.0,0.0,0.0,0.0,0.0,0.0,0.0,0.0,0.0,0.0,0.0,0.0,0.0,0.0,0.0,0.0,0.0,0.0,0.0,0.0,0.0,0.0,0.0,0.0,0.0,0.0,0.0,0.0,0.0,0.0,0.0,0.0,0.0,0.0,0.0,0.0,0.0,0.0,0.0,0.0,0.0,0.0,0.0,0.0,0.0,0.0,0.0,0.0,0.0,0.0,0.0,0.0,0.0,0.0,0.0,0.0,0.0,0.0,0.0,0.0,0.0,0.0,0.0,0.0,0.0,0.0,0.0,0.0,0.0,0.0,0.0,0.0,0.0,0.0,0.0,0.0,0.0,0.0,0.0,0.0,0.0,0.0,0.0,0.0,0.0,0.0,0.0,0.0,0.0,0.0,0.0,0.0,0.0,0.0,0.0,0.0,0.0,0.0,0.0,0.0,1.1242,1.2661,1.3786,1.4416,1.4482,1.4482,1.4482,1.3454,1.2415,1.1489,0.0,0.0,0.0,0.0,0.0,0.0,0.0,0.0,0.0,0.0,0.0,0.0,0.0,0.0,0.0,0.0,0.0,0.0,0.0,0.0,0.0,0.0,0.0,0.0,0.0,0.0,0.0,0.0,0.0,0.0,0.0,0.0,0.0,0.0,0.0,0.0,0.0,0.0,0.0,0.0,0.0,0.0,0.0,0.0,0.0,0.0,0.0,0.0,0.0,0.0,0.0,0.0,0.0,0.0,0.0,0.0,0.0,0.0,0.0,0.0,1.1069,1.0728,0.0,0.0,0.0,0.0,0.0,0.0,0.0,0.0,0.0,0.0,0.0,0.0,0.0,0.0,0.0,0.0,0.0,0.0,0.0,0.0,0.0,0.0,0.0,0.0,0.0,0.0,0.0,0.0,0.0,0.0,0.0,0.0,0.0,0.0,0.0,0.0,0.0,0.0,0.0,0.0,1.1242,1.2488,1.3527,1.4115,1.4182,1.4182,1.4182,1.3333,1.2502,1.1852,1.012,0.0,0.0,0.0,0.0,0.0,0.0,0.0,0.0,0.0,0.0,0.0,0.0,0.0,0.0,0.0,0.0,0.0,0.0,0.0,0.0,0.0,0.0,0.0,0.0,0.0,0.0,0.0,0.0,0.0,0.0,0.0,0.0,0.0,0.0,0.0,0.0,0.0,0.0,0.0,0.0,0.0,0.0,0.0,0.0,0.0,0.0,0.0,0.0,0.0,0.0,0.0,0.0,0.0,0.0,0.0,0.0,0.0,0.0,0.0,1.2672,1.2298,0.0,0.0,0.0,0.0,0.0,0.0,0.0,0.0,0.0,0.0,0.0,0.0,0.0,0.0,0.0,0.0,0.0,0.0,0.0,0.0,0.0,0.0,0.0,0.0,0.0,0.0,0.0,0.0,0.0,0.0,0.0,0.0,0.0,0.0,0.0,0.0,0.0,0.0,0.0,0.0,1.1242,1.2434,1.3434,1.4028,1.4088,1.4028,1.3888,1.332,1.2592,1.171,1.0534,0.0,0.0,0.0,0.0,0.0,0.0,0.0,0.0,0.0,0.0,0.0,0.0,0.0,0.0,0.0,0.0,0.0,0.0,0.0,0.0,0.0,0.0,0.0,0.0,0.0,0.0,0.0,0.0,0.0,0.0,0.0,0.0,0.0,0.0,0.0,0.0,0.0,0.0,0.0,0.0,0.0,0.0,0.0,0.0,0.0,0.0,0.0,0.0,0.0,0.0,0.0,0.0,0.0,1.4957,1.513,1.5316,1.537,1.5524,1.5631,1.4422,1.4195,1.4563,1.3126,0.0,0.0,0.0,0.0,0.0,0.0,0.0,0.0,0.0,0.0,0.0,0.0,0.0,0.0,0.0,0.0,0.0,0.0,0.0,0.0,0.0,0.0,1.143,0.0,1.1745,1.1792,1.0519,0.0,0.0,0.0,0.0,0.0,0.0,0.0,0.0,0.0,0.0,0.0,1.1356,1.2498,1.3434,1.4028,1.4088,1.3968,1.3626,1.3333,1.2746,1.1615,1.0989,1.0104,0.0,0.0,0.0,0.0,0.0,0.0,0.0,0.0,0.0,0.0,0.0,0.0,0.0,0.0,0.0,0.0,0.0,0.0,0.0,0.0,0.0,0.0,0.0,0.0,0.0,0.0,0.0,0.0,0.0,0.0,0.0,0.0,0.5477,0.5501,0.0,0.0,0.0,0.0,0.0,0.0,0.0,0.0,0.0,0.0,0.0,0.0,0.0,0.9589,1.1287,1.212,1.3576,1.5624,1.6693,1.6934,1.6486,1.6797,1.6931,1.6958,1.6764,0.0,1.519,1.3926,0.0,0.0,0.0,0.0,0.0,0.0,0.0,0.0,0.0,0.0,0.0,0.0,0.0,0.0,0.0,0.0,0.0,0.0,0.0,0.0,0.0,0.0,1.312,1.2677,1.2779,1.2906,0.0,1.1404,1.0412,0.9967,0.9299,0.8597,0.0,0.0,0.0,0.0,0.0,0.0,1.1698,1.2632,1.3434,1.4028,1.4088,1.3968,1.3626,1.3333,1.2919,1.2231,1.1403,1.0767,1.0325,0.9079,0.0,0.0,0.0,0.0,0.0,0.0,0.0,0.0,0.0,0.0,0.0,0.0,0.0,0.0,0.0,0.0,0.0,0.0,0.0,0.0,0.0,0.0,0.0,0.0,0.0,0.0,0.0,0.0,0.0,0.562,0.6006,0.6006,0.6783,0.7302,0.0,0.0,0.0,0.0,0.0,0.0,0.0,0.0,0.0,0.7543,0.8218,0.944,1.1184,1.1721,1.3309,1.5986,1.6516,1.7067,1.7709,1.7669,1.7655,1.7642,1.7468,1.7101,1.6547,1.5538,1.4856,1.4335,0.0,0.0,0.0,0.0,1.2859,1.3146,1.3347,1.3541,1.3568,1.3026,0.0,0.0,0.0,0.0,0.0,0.0,0.0,1.1953,0.0,0.0,1.362,1.3728,1.3848,1.3908,1.3774,1.2979,1.2004,1.1009,1.0808,1.0321,0.8884,0.8778,0.0,0.0,0.0,1.0975,1.1984,1.2899,1.3621,1.4041,1.3941,1.3721,1.3387,1.312,1.273,1.2098,1.1543,1.1035,1.0613,0.9809,0.8985,0.0,0.0,0.0,0.0,0.0,0.0,0.0,0.0,0.0,0.0,0.0,0.0,0.0,0.0,0.0,0.0,0.0,0.0,0.0,0.0,0.0,0.0,0.0,0.0,0.0,0.0,0.0,0.0,0.6095,0.6485,0.6485,0.7242,0.7623,0.0,0.0,0.0,0.0,0.0,0.0,0.8253,0.7962,0.7885,0.8207,0.8557,0.9515,1.1189,1.1406,1.3074,1.6086,1.6086,1.6943,1.8484,1.8263,1.8062,1.7975,1.7802,1.7655,1.7522,1.6714,1.6126,1.5651,1.485,1.4396,1.4159,1.4159,1.4389,1.4696,1.5057,1.5283,1.5223,1.4399,1.3813,1.3253,1.2248,0.0,0.0,0.0,0.0,1.2589,1.3105,1.3587,1.4088,1.4529,1.4576,1.4522,1.4522,1.4073,1.3347,1.2088,1.2171,1.1857,1.007,0.998,0.0,0.9804,1.0608,1.1536,1.2425,1.3147,1.372,1.4055,1.378,1.3487,1.3233,1.2965,1.2563,1.2053,1.163,1.1229,1.0827,1.0354,0.9639,0.8617,0.0,0.0,0.0,0.0,0.0,0.0,0.0,0.0,0.0,0.0,0.0,0.0,0.0,0.0,0.0,0.0,0.0,0.0,0.0,0.0,0.0,0.0,0.0,0.0,0.0,0.0,0.0,0.0,0.0,0.7051,0.7366,0.0,0.0,0.0,0.0,0.8601,0.8,0.7682,0.8026,0.8404,0.872,0.8831,0.9181,1.0022,1.1453,1.1474,1.3074,1.6086,1.6086,1.6943,1.849,1.8477,1.831,1.7995,1.7975,1.7856,1.7535,1.6934,1.6667,1.658,1.5979,1.5684,1.5671,1.5671,1.5905,1.6126,1.5872,1.5972,1.6152,1.5825,1.4957,1.3981,1.3593,1.3133,0.0,0.0,1.3534,1.4048,1.4349,1.4663,1.4948,1.4981,1.473,1.4522,1.4522,1.4282,1.3881,0.0,1.2945,1.2462,1.1442,0.0,1.1295,1.1282,1.161,1.2187,1.3053,1.3407,1.372,1.4055,1.378,1.3487,1.3233,1.2965,1.265,1.2298,1.1744,1.1375,1.1349,1.0536,0.9797,0.9178,0.8644,0.0,0.0,0.0,0.0,0.0,0.0,0.0,0.0,0.0,0.0,0.0,0.0,0.0,0.0,0.0,0.0,0.0,0.0,0.0,0.0,0.0,0.0,0.0,0.0,0.0,0.0,0.0,0.0,0.756,0.7923,0.0,0.803,0.7896,0.7938,0.8224,0.836,0.8453,0.8558,0.895,0.9167,0.9222,0.9422,0.9759,1.0277,1.0376,1.1486,1.3595,1.4654,1.5997,1.7568,1.8385,1.8711,1.8535,1.8196,1.7963,1.7829,1.7428,1.7268,1.7235,1.6834,1.668,1.6653,1.6466,1.658,1.6844,1.6493,1.6587,1.6777,1.6052,1.5291,1.4673,1.4522,1.4385,1.4238,1.4352,1.4489,1.4716,1.501,1.5164,1.5291,1.5478,1.5297,1.503,1.4843,1.4576,1.4249,1.3854,1.3534,1.3039,1.2144,1.2144,1.2248,1.2017,1.2412,1.2919,1.3387,1.3748,1.3968,1.4075,1.3654,1.328,1.322,1.2616,1.2174,1.2067,1.1476,1.1149,1.1149,1.0481,0.9933,0.9532,0.8951,0.8134,0.0,0.0,0.0,0.0,0.0,0.0,0.0,0.0,0.0,0.0,0.0,0.0,0.0,0.0,0.0,0.0,0.0,0.0,0.0,0.0,0.0,0.0,0.0,0.0,0.0,0.7288,0.7879,0.8021,0.8391,0.852,0.8221,0.8421,0.8547,0.8496,0.8862,0.9086,0.9086,0.9323,0.9459,0.9459,0.9602,0.968,0.968,0.9774,1.06,1.2217,1.3825,1.5429,1.702,1.8448,1.9018,1.8891,1.839,1.8116,1.8003,1.7702,1.7582,1.7562,1.742,1.7347,1.7326,1.7074,1.7128,1.732,1.7068,1.7068,1.7085,1.6346,1.5798,1.543,1.5284,1.5257,1.5257,1.5257,1.5257,1.5297,1.5491,1.5538,1.5591,1.5785,1.5611,1.5317,1.5068,1.473,1.4436,1.4142,1.3928,1.3533,1.2872,1.2919,1.2979,1.2786,1.31,1.3427,1.3713,1.3968,1.4088,1.4088,1.3561,1.3213,1.3213,1.2385,1.1906,1.1906,1.1316,1.0949,1.0888,1.0374,0.9933,0.9546,0.8864,0.8216,0.7645,0.0,0.0,0.0,0.0,0.0,0.0,0.0,0.0,0.0,0.0,0.0,0.0,0.0,0.0,0.0,0.0,0.0,0.0,0.0,0.0,0.0,0.0,0.0,0.7098,0.7807,0.8333,0.8479,0.876,0.8892,0.8898,0.9079,0.9279,0.9371,0.9388,0.9388,0.9388,0.9534,0.9615,0.9615,0.9747,0.9822,0.9822,0.9822,1.06,1.2153,1.383,1.5429,1.6968,1.8642,1.9205,1.8911,1.8617,1.8323,1.7969,1.7709,1.7582,1.7582,1.7582,1.7582,1.7582,1.7582,1.7582,1.7582,1.7582,1.744,1.7152,1.68,1.6513,1.6219,1.5919,1.5784,1.5784,1.5784,1.5784,1.5784,1.5784,1.5784,1.5784,1.5784,1.5611,1.5331,1.5075,1.4736,1.4442,1.4142,1.4088,1.3995,1.3666,1.362,1.362,1.362,1.362,0.0,1.4048,1.4088,1.4088,1.4088,1.3561,1.3213,1.3213,1.2378,1.1893,1.1893,1.1296,1.0842,1.06,1.0267,0.9804,0.9224,0.8372,0.7925,0.7905,0.0,0.0,0.0,0.0,0.0,0.0,0.0,0.0,0.0,0.0,0.0,0.0,0.0,0.0,0.0,0.0,0.0,0.0,0.0,0.0,0.0,0.7109,0.758,0.7621,0.8085,0.852,0.8781,0.8977,0.9137,0.9249,0.9296,0.9337,0.9378,0.9486,0.9547,0.9547,0.9683,0.9764,0.9764,0.9798,0.9822,0.9822,0.9822,1.0001,1.0479,1.3287,1.4837,1.537,1.811,1.9205,1.8911,1.8617,1.8323,1.7969,1.7709,1.7582,1.7582,1.7582,1.7582,1.7582,1.7582,1.7582,1.7582,1.7582,1.744,1.7152,1.68,1.6513,1.6219,1.5919,1.5784,1.5784,1.5784,1.5784,1.5784,1.5784,1.5784,1.5784,1.5784,1.5718,1.5571,1.5115,1.4948,1.4689,1.4188,1.4088,1.4062,1.3981,1.3968,1.3968,1.3968,1.3968,0.0,1.4075,1.4088,1.4088,1.4088,1.3561,1.3213,1.3213,1.2191,1.155,1.155,1.0795,1.0414,1.0586,1.0104,0.9626,0.9217,0.8771,0.8332,0.0,0.0,0.0,0.0,0.0,0.0,0.0,0.0,0.0,0.0,0.0,0.0,0.0,0.0,0.0,0.0,0.0,0.0,0.0,0.0,0.0,0.0,0.7685,0.8136,0.8265,0.8509,0.8788,0.9086,0.9198,0.9334,0.9544,0.9564,0.9564,0.9564,0.9649,0.9696,0.9696,0.9778,0.9822,0.9822,0.9822,0.9822,0.9822,0.9822,0.9822,0.9819,1.3048,1.4604,1.4723,1.7935,1.9205,1.8911,1.8617,1.8323,1.7969,1.7709,1.7582,0.0,0.0,0.0,0.0,0.0,1.7582,1.7582,1.7582,1.7521,1.7333,1.6987,1.6693,1.64,1.6106,1.5925,1.5784,1.5784,1.5784,1.5784,1.5784,1.5784,1.5784,1.5784,1.5784,1.5671,1.5135,1.5008,1.4834,1.4202,1.4088,0.0,1.4088,1.4088,1.4088,1.4088,1.4088,1.4088,1.4088,1.4088,1.4088,1.4088,1.3561,1.3213,1.3213,1.2231,0.0,0.0,0.0,1.0448,1.0381,0.9963,0.0,0.0,0.0,0.0,0.0,0.0,0.0,0.0,0.7913,0.7856,0.0,0.0,0.0,0.0,0.0,0.0,0.0,0.0,0.0,0.0,0.0,0.0,0.0,0.0,0.0,0.0,0.8225,0.8608,0.8844,0.8885,0.9049,0.9347,0.9381,0.9496,0.9791,0.9822,0.9822,0.9822,0.9822,0.9822,0.9822,0.9822,0.0,0.0,0.0,0.9822,0.9822,0.9822,0.9822,0.9819,1.3048,1.4604,1.4723,1.7898,1.9158,1.8858,1.8564,1.827,1.7916,1.7695,1.7582,1.7582,1.7582,1.7562,1.7528,1.7528,1.7528,1.7528,1.7528,0.0,0.0,1.7293,1.6947,1.6653,1.6359,1.6066,1.5784,1.5784,1.5784,1.5784,1.5784,1.5784,1.5784,1.5784,1.5758,1.5631,1.5129,1.4981,1.4794,1.4195,1.4088,1.4088,1.4088,1.4088,1.4088,1.4088,1.4088,1.4088,1.4088,1.4088,1.4088,1.4088,0.0,0.0,1.3213,1.2385,1.1757,1.149,1.1202,1.0788,1.0203,0.9967,0.9833,0.9833,0.9829,0.9809,0.9809,0.9809,0.9829,0.9836,0.8665,0.8565,0.0,0.0,0.0,0.0,0.0,0.0,0.0,0.0,0.0,0.0,0.0,0.0,0.0,0.0,0.0,0.8099,0.8455,0.873,0.8858,0.8885,0.9049,0.9347,0.9381,0.9496,0.9791,0.9822,0.9822,0.9822,0.9822,0.9822,0.9822,0.9822,0.9822,0.9822,0.9822,0.9822,0.9822,0.9822,0.9822,0.9819,1.3048,0.0,1.4718,1.7648,1.8851,1.8557,1.8263,1.7956,1.7669,1.7609,1.7582,1.7582,1.7582,1.7494,1.7286,1.7286,1.7286,1.7286,1.7286,1.744,1.7535,1.7293,1.6947,1.6653,1.6359,1.6066,0.0,1.5784,1.5784,1.5784,1.5784,1.5784,1.5784,1.5784,1.5651,1.5384,1.5082,1.4776,1.4502,1.4155,1.4088,1.4088,1.4088,1.4088,1.4088,1.4088,1.4088,1.4088,1.4088,1.4088,1.4088,1.4088,1.3561,1.3213,1.3213,1.2385,1.1879,1.1826,1.1503,1.1189,1.0842,1.0768,1.0742,1.0742,1.0546,1.0425,1.0425,1.0425,1.0546,1.0722,1.002,0.9757,0.0,0.0,0.0,0.0,0.0,0.0,0.0,0.0,0.0,0.0,0.0,0.6837,0.7288,0.0,0.8058,0.8431,0.8679,0.8797,0.8871,0.8885,0.9049,0.9347,0.9381,0.9496,0.9791,0.9822,0.9822,0.9822,0.9822,0.9822,0.9822,0.9822,0.9822,0.9822,0.9822,0.9822,0.9822,0.9822,0.9822,0.9819,1.3048,1.4538,1.4481,1.7525,1.8684,1.8263,1.8055,1.7869,1.7582,1.7582,1.7582,1.7569,1.7474,1.7326,1.7186,1.7032,1.6927,1.6927,1.6927,1.7021,1.7121,1.6974,1.6734,1.646,1.6319,1.6066,1.5784,1.5784,1.5784,1.5784,1.5784,1.5784,1.5784,1.5784,1.5611,1.5317,1.5068,1.473,1.4436,1.4142,1.4088,1.4088,1.4088,1.4088,1.4088,1.4088,1.4088,1.4088,1.4088,1.4088,1.4035,1.3881,1.3474,1.3146,1.2993,1.2335,1.1906,1.1906,1.159,1.1329,1.1216,1.1209,1.1209,1.1209,1.1069,1.0995,1.0995,1.0995,1.1069,1.1209,1.1062,1.0915,0.0,0.0,0.0,0.0,0.0,0.0,0.0,0.6308,0.6471,0.6946,0.7146,0.7387,0.7892,0.8187,0.8442,0.8713,0.8804,0.8885,0.8885,0.8885,0.9039,0.9306,0.9337,0.9452,0.9751,0.9781,0.9791,0.9819,0.9822,0.9822,0.9822,0.9822,0.9822,0.9822,0.9822,0.9822,0.9822,0.9822,0.9822,0.9819,1.3048,1.4478,1.4308,1.7407,1.8495,1.7989,1.7929,1.7816,1.7582,1.7582,1.7582,1.7549,1.7253,1.7112,1.7079,1.6727,1.662,1.662,1.662,1.666,1.6707,1.6707,1.6513,1.6321,1.6321,1.6066,1.5784,1.5784,1.5784,1.5784,1.5784,1.5784,1.5784,1.5784,1.5565,1.5251,1.5062,1.4689,1.4369,1.4135,1.4088,1.4088,1.4088,1.4088,1.4088,1.4088,1.4088,1.4088,1.4088,1.4088,1.3975,1.3633,1.3347,1.306,1.273,1.2261,1.1986,1.1986,1.1724,1.1562,1.1562,1.1509,1.1502,1.1555,1.1502,1.1502,1.1562,1.1562,1.1562,1.1568,1.1844,1.1797,0.5989,0.5867,0.5925,0.6447,0.6403,0.6586,0.0,0.7699,0.7587,0.8163,0.8296,0.837,0.8574,0.8638,0.8716,0.8831,0.8871,0.8885,0.8885,0.8885,0.8998,0.9217,0.9234,0.9357,0.9605,0.9632,0.9686,0.9812,0.9822,0.9822,0.9822,0.9822,0.9822,0.9822,0.9822,0.9822,0.9822,0.9822,0.9822,0.9819,1.3048,1.4478,1.4303,1.7216,1.8364,1.7975,1.7756,1.7615,1.7582,1.7582,1.7582,1.7528,1.6974,1.6754,1.672,1.6426,1.6319,1.6319,1.6319,1.6486,1.6707,1.6707,1.6513,1.6321,1.6321,1.6066,1.5784,1.5784,1.5784,1.5784,1.5784,1.5784,1.5784,1.5784,1.5411,1.5048,1.5015,1.4529,1.4128,1.4095,1.4088,1.4088,1.4088,1.4088,1.4088,1.4088,1.4088,1.4088,1.4088,1.4088,1.3975,1.3633,1.3347,1.2979,1.2398,1.2291,1.2258,1.2258,1.2225,1.2204,1.2204,1.1957,1.198,1.2198,1.1986,1.1944,1.2204,1.2204,1.2204,1.2204,1.2238,1.2098,0.6803,0.6698,0.6664,0.7007,0.7193,0.7441,0.8007,0.8058,0.8109,0.853,0.8615,0.8662,0.8815,0.879,0.8811,0.8871,0.8885,0.8885,0.8885,0.8885,0.8905,0.9022,0.9028,0.9147,0.9449,0.9557,0.9635,0.9693,0.9774,0.9822,0.9822,0.9822,0.9822,0.9822,0.9822,0.9822,0.9822,0.9822,0.9822,0.9819,1.3048,1.4353,1.3996,1.7111,1.823,1.7769,1.7642,1.7582,1.7582,1.7582,1.7534,1.734,1.6867,1.66,1.642,1.6126,1.6012,1.6012,1.6012,1.6092,1.6192,1.6192,1.6112,1.6012,1.6012,1.5925,1.5784,1.5784,1.5784,1.5784,1.5784,1.5784,1.5784,1.5784,1.5384,1.5008,1.5008,1.4546,1.4088,1.4088,1.4088,1.4088,1.4088,1.4088,1.4088,1.4088,1.4088,1.4088,1.4088,1.4088,1.3975,1.3633,1.322,1.2878,1.2623,1.2405,1.2305,1.2305,1.2305,1.2305,1.2305,1.2184,1.2178,1.2298,1.2184,1.2178,1.2305,1.2305,1.2305,1.2305,1.2305,1.2238,0.7231,0.7227,0.7261,0.7495,0.7831,0.8123,0.8153,0.8313,0.8465,0.872,0.8774,0.8808,0.8861,0.8885,0.8885,0.8885,0.8885,0.8885,0.8885,0.8885,0.8885,0.8885,0.8885,0.8969,0.9239,0.9395,0.9517,0.9602,0.9703,0.9781,0.9819,0.9822,0.9822,0.9822,0.9822,0.9822,0.9822,0.9822,0.9822,0.9819,1.3048,1.4303,1.3803,1.6839,1.8003,1.7582,1.7582,1.7582,1.7582,1.7582,1.7467,1.7172,1.682,1.6526,1.6239,1.5939,1.5784,1.5784,1.5784,1.5784,1.5784,1.5784,1.5784,1.5784,1.5784,1.5784,1.5784,1.5784,1.5784,1.5784,1.5784,1.5784,1.5784,1.5784,1.5444,1.5109,1.5028,1.4563,1.4182,1.4102,1.4088,1.4088,1.4088,1.4088,1.4088,1.4088,1.4088,1.4088,1.4088,1.4015,1.3881,1.3626,1.3106,1.2784,1.2784,1.2472,1.2305,1.2305,1.2305,1.2305,1.2305,1.2305,1.2305,1.2305,1.2305,1.2305,1.2305,1.2385,1.2425,1.2425,1.2512,1.2552,0.6933,0.7149,0.7468,0.786,0.8143,0.834,0.8625,0.8696,0.8743,0.8844,0.8875,0.8878,0.8885,0.8885,0.8885,0.8885,0.8885,0.8885,0.8885,0.8885,0.8885,0.8885,0.8885,0.8888,0.8895,0.9083,0.9347,0.9588,0.9612,0.9676,0.9815,0.9822,0.9822,0.9822,0.9822,0.9822,0.9822,0.9822,0.9822,0.9819,1.3048,1.4303,1.3788,1.6433,1.7602,1.7582,1.7582,1.7582,1.7582,1.7582,1.7467,1.7172,1.682,1.6526,1.6239,1.5939,1.5784,1.5784,1.5784,1.5784,1.5784,1.5784,1.5784,1.5784,1.5784,1.5784,1.5784,1.5784,1.5784,1.5784,1.5784,1.5784,1.5784,1.5784,1.5605,1.5304,1.5068,1.4723,1.4422,1.4142,1.4088,1.4088,1.4088,1.4088,1.4088,1.4088,1.4088,1.4088,1.4088,1.3834,1.3613,1.36,1.3106,1.2784,1.2784,1.2472,1.2305,1.2305,1.2305,1.2305,1.2305,1.2305,1.2305,1.2305,1.2305,1.2305,1.2305,1.263,1.277,1.2777,1.3039,1.318,0.7444,0.7662,0.7899,0.8248,0.8448,0.8615,0.8815,0.8807,0.8849,0.8798,0.8706,0.8635,0.8635,0.856,0.856,0.8757,0.8788,0.8821,0.8868,0.8885,0.8885,0.8885,0.8885,0.8885,0.8885,0.9069,0.9251,0.9357,0.9496,0.9632,0.968,0.9771,0.9822,0.9822,0.9822,0.9822,0.9822,1.0838,1.1378,1.1434,1.4237,1.5936,1.6606,1.7269,1.7582,1.7582,1.7582,1.7582,1.7582,1.7582,1.7295,1.6847,1.6747,1.6406,1.5965,1.5818,1.5784,1.5784,1.5784,1.5784,1.5784,1.5784,1.5784,1.5784,1.5784,1.5784,1.5784,1.5784,1.5784,1.5784,1.5784,1.5784,1.5784,1.5784,1.5611,1.5371,1.5271,1.4863,1.4489,1.4396,1.4222,1.4088,1.4088,1.4088,1.4088,1.4088,1.4088,1.4088,1.4088,1.4001,1.3941,1.3941,1.3581,1.326,1.3073,1.2811,1.2549,1.2311,1.2305,1.2305,1.2305,1.2305,1.2305,1.2305,1.2305,1.2398,1.2636,1.2737,1.2891,1.306,1.316,1.3213,0.7855,0.8048,0.8204,0.8557,0.872,0.8818,0.8861,0.8841,0.8815,0.8662,0.8465,0.8323,0.8323,0.8163,0.8163,0.8564,0.8584,0.8642,0.8848,0.8885,0.8885,0.8885,0.8885,0.8885,0.8885,0.9022,0.9096,0.9207,0.9388,0.9551,0.9605,0.9744,0.9822,0.9822,0.9822,0.9822,0.9822,1.1378,1.2478,1.2994,1.4996,1.6423,1.7252,1.7503,1.7582,1.7582,1.7582,1.7582,1.7582,1.7582,1.7235,1.6707,1.6707,1.6346,1.5784,1.5784,1.5784,1.5784,1.5784,1.5784,1.5784,1.5784,1.5784,1.5784,1.5784,1.5784,1.5784,1.5784,1.5784,1.5784,1.5784,1.5784,1.5784,1.5784,1.5691,1.5524,1.5418,1.5017,1.4643,1.4543,1.4282,1.4088,1.4088,1.4088,1.4088,1.4088,1.4088,1.4088,1.4088,1.4088,1.4088,1.4088,1.378,1.3527,1.334,1.3025,1.2703,1.2472,1.2365,1.2305,1.2305,1.2305,1.2351,1.2496,1.2496,1.265,1.2951,1.3052,1.3166,1.3367,1.3474,1.3527,0.816,0.8344,0.8408,0.8777,0.8885,0.8881,0.8871,0.8804,0.8638,0.8472,0.8194,0.7931,0.7924,0.7753,0.7767,0.8353,0.8353,0.8435,0.8821,0.8885,0.8885,0.8885,0.8885,0.8885,0.8885,0.8885,0.8998,0.92,0.9354,0.9445,0.9591,0.9741,0.9822,0.9822,0.9822,0.9822,0.9822,1.1491,1.3045,1.4514,1.5378,1.5859,1.5884,1.7051,1.7582,1.7582,1.7582,1.7582,1.7582,1.7582,1.7235,1.6707,1.6707,1.6346,1.5784,1.5784,1.5784,1.5784,1.5784,1.5784,1.5784,1.5784,1.5784,1.5784,1.5784,1.5784,1.5784,1.5784,1.5784,1.5784,1.5784,1.5784,1.5784,1.5784,1.5784,1.5752,1.5478,1.5177,1.4921,1.4596,1.4295,1.4088,1.4088,1.4088,1.4088,1.4088,1.4088,1.4088,1.4088,1.4088,1.4088,1.4088,1.3834,1.362,1.36,1.312,1.2824,1.2811,1.2529,1.2331,1.2351,1.2331,1.2465,1.2804,1.2811,1.2958,1.3233,1.3467,1.3613,1.3633,1.3955,1.4088,0.8336,0.8594,0.8798,0.8854,0.8885,0.8854,0.8794,0.8567,0.8279,0.7902,0.7499,0.7132,0.7065,0.716,0.7368,0.7902,0.8231,0.8547,0.8838,0.8885,0.8885,0.8885,0.8885,0.8885,0.8885,0.8885,0.8998,0.92,0.9354,0.9398,0.9439,0.9683,0.9822,0.9822,0.9822,0.9822,0.9822,1.2366,1.4317,1.5555,1.6831,1.6759,1.5571,1.6967,1.7582,1.7582,1.7582,1.7582,1.7582,1.7582,1.7235,1.6707,1.6707,1.6346,1.5784,1.5784,1.5784,1.5784,1.5784,1.5784,1.5784,1.5784,1.5784,1.5784,1.5784,1.5784,1.5784,1.5784,1.5784,1.5784,1.5784,1.5784,1.5784,1.5784,1.5784,1.5758,1.5684,1.5317,1.4988,1.4908,1.4436,1.4088,1.4088,1.4088,1.4088,1.4088,1.4088,1.4088,1.4088,1.4088,1.4088,1.4088,1.4021,1.3881,1.362,1.346,1.332,1.3106,1.2844,1.2777,1.2973,1.2797,1.2817,1.3086,1.3093,1.324,1.3493,1.3567,1.372,1.3975,1.4048,1.4088,0.8601,0.8808,0.8885,0.8885,0.8834,0.8764,0.8479,0.8187,0.7811,0.7224,0.68,0.6468,0.642,0.6502,0.6822,0.7512,0.794,0.834,0.8777,0.8841,0.8885,0.8885,0.8885,0.8885,0.8885,0.8885,0.8998,0.92,0.9354,0.9412,0.9479,0.9696,0.9822,0.9822,0.9761,1.0345,1.1618,1.3102,1.4572,1.5914,1.7184,1.6983,1.547,1.6929,1.7582,1.7582,1.7582,1.7582,1.7582,1.7582,1.7235,1.6707,1.6707,1.6346,1.5784,1.5784,1.5784,1.5784,1.5784,1.5784,1.5784,1.5784,1.5784,1.5784,1.5784,1.5784,1.5784,1.5784,1.5784,1.5784,1.5784,1.5784,1.5784,1.5784,1.5784,1.5784,1.5784,1.5471,1.5077,1.4816,1.4402,1.4088,1.4088,1.4088,1.4088,1.4088,1.4088,1.4088,1.4088,1.4088,1.4088,1.4088,1.4088,1.4021,1.3854,1.3673,1.3533,1.3373,1.312,1.3026,1.32,1.3046,1.3093,1.3353,1.336,1.35,1.3841,1.3841,1.3928,1.4088,1.4088,1.4088,0.8807,0.8885,0.8885,0.8885,0.8808,0.8564,0.8062,0.7736,0.7272,0.6536,0.6132,0.5872,0.5872,0.5939,0.6312,0.7173,0.7611,0.8045,0.8628,0.8842,0.8885,0.8885,0.8885,0.8885,0.8885,0.8885,0.8998,0.92,0.9333,0.9425,0.9602,0.9744,0.9812,0.9791,0.9673,1.086,1.3547,1.3532,1.4195,1.5588,1.6938,1.6823,1.547,1.6929,1.7582,1.7582,1.7582,1.7582,1.7582,1.7542,1.7201,1.67,1.666,1.6313,1.5784,1.5784,1.5784,1.5784,1.5784,1.5784,1.5784,1.5784,1.5784,1.5784,1.5784,1.5784,1.5784,1.5784,1.5784,1.5784,1.5784,1.5784,1.5784,1.5784,1.5784,1.5784,1.5784,1.5605,1.5237,1.4683,1.4342,1.4142,1.4142,1.4115,1.4088,1.4088,1.4088,1.4088,1.4088,1.4088,1.4088,1.4088,1.4088,1.4088,1.4088,1.3848,1.366,1.366,1.3427,1.3287,1.3327,1.3293,1.3367,1.3653,1.366,1.3828,1.4088,1.4088,1.4088,1.4088,1.4088,1.4088,0.8834,0.8885,0.8885,0.8885,0.8726,0.8404,0.7953,0.7336,0.6678,0.6047,0.5579,0.5251,0.5251,0.5656,0.6205,0.6898,0.752,0.8116,0.8642,0.8842,0.8885,0.8885,0.8885,0.8885,0.8885,0.8885,0.8998,0.92,0.9234,0.9313,0.9595,0.9744,0.9768,0.9649,0.9622,1.0281,1.1755,1.2896,1.3567,1.3753,1.6365,1.6823,1.547,1.6929,1.7582,1.7582,1.7582,0.0,1.7562,1.7373,1.7021,1.668,1.644,1.6132,1.5784,1.5784,1.5784,1.5784,1.5784,1.5784,1.5784,1.5784,1.5784,1.5784,1.5784,1.5784,1.5784,1.5784,1.5784,1.5784,1.5784,1.5784,1.5784,1.5784,1.5784,1.5784,1.5784,1.5605,1.5297,1.5001,1.4649,1.4442,1.4442,1.4249,1.4088,1.4088,1.4088,1.4088,1.4088,1.4088,1.4088,1.4088,1.4088,1.4088,1.4088,1.4041,1.4008,1.4008,1.3693,1.364,1.3928,1.366,1.3666,1.4008,1.4008,1.4035,1.4088,1.4088,1.4088,1.4088,1.4088,1.4088,0.8841,0.8885,0.8865,0.8842,0.8594,0.8194,0.7509,0.6895,0.6257,0.5498,0.5108,0.4901,0.4901,0.5328,0.5854,0.6337,0.6913,0.758,0.8265,0.8373,0.8534,0.8848,0.8885,0.8885,0.8885,0.8885,0.8998,0.92,0.921,0.9309,0.9479,0.9554,0.9523,0.9374,0.9371,0.9999,1.1181,1.2659,1.3751,1.4395,1.6552,1.7252,1.6552,1.7259,1.7582,1.7582,1.7582,1.7495,1.74,1.7259,1.6938,1.6466,1.6326,1.6092,1.5784,1.5784,1.5784,1.5784,1.5784,1.5784,1.5784,1.5784,1.5784,1.5784,1.5784,1.5784,1.5784,1.5784,1.5784,1.5784,1.5784,1.5784,1.5784,1.5784,1.5784,1.5784,1.5784,1.5605,1.5357,1.5217,1.495,1.475,1.475,1.4509,1.4309,1.4309,1.4182,1.4088,1.4088,1.4088,1.4088,1.4088,1.4088,1.4088,1.4088,1.4088,1.4088,1.4088,1.3955,1.3941,1.4082,1.3948,1.3941,1.4082,1.4088,1.4088,1.4088,1.4088,1.4088,1.4088,1.4088,1.4088,0.8841,0.8885,0.8848,0.875,0.8438,0.7946,0.7078,0.6485,0.5917,0.5043,0.4748,0.4653,0.4684,0.5037,0.5423,0.5901,0.6386,0.699,0.7779,0.8005,0.8271,0.8774,0.8865,0.8885,0.8885,0.8885,0.8984,0.91,0.9163,0.9188,0.9371,0.9381,0.931,0.9214,0.921,0.9637,1.0621,1.2403,1.3857,1.4984,1.677,1.7582,1.7582,1.7582,1.7582,1.7582,1.7515,1.7414,1.7192,1.7065,1.6737,1.6315,1.6206,1.6039,1.5784,1.5784,1.5784,1.5784,1.5784,1.5784,1.5784,1.5784,1.5784,1.5784,1.5784,1.5784,1.5784,1.5784,1.5784,1.5784,1.5784,1.5784,1.5784,1.5784,1.5784,1.5784,1.5784,1.5651,1.5491,1.5491,1.5257,1.5102,1.5102,1.481,1.4596,1.4529,1.4322,1.4155,1.4095,1.4088,1.4088,1.4088,1.4088,1.4088,1.4088,1.4088,1.4088,1.4088,1.4088,1.4088,1.4088,1.4088,1.4088,1.4088,1.4088,1.4088,1.4088,1.4088,1.4088,1.4088,1.4088,1.4088,0.8841,0.8885,0.8848,0.875,0.8279,0.7655,0.6895,0.6166,0.5474,0.4843,0.4617,0.4552,0.4663,0.484,0.5148,0.5728,0.6315,0.6922,0.7553,0.8102,0.8513,0.871,0.8801,0.8885,0.8885,0.8885,0.8888,0.8902,0.8902,0.9083,0.9364,0.9381,0.931,0.9214,0.921,0.9195,0.9103,1.1914,1.3372,1.3534,1.6287,1.7582,1.7582,1.7582,1.7582,1.7569,1.7353,1.7226,0.0,1.6623,1.6368,1.6246,1.5979,1.5804,1.5784,1.5784,1.5784,1.5784,1.5784,1.5784,1.5784,1.5784,1.5784,1.5784,1.5784,1.5784,1.5784,1.5784,1.5784,1.5784,1.5784,1.5784,1.5784,1.5784,1.5784,1.5784,1.5784,1.5758,1.5744,1.5744,1.5558,1.5357,1.5357,1.5162,1.483,1.4563,1.4496,1.4389,1.4122,1.4088,1.4088,1.4088,1.4088,1.4088,1.4088,1.4088,1.4088,1.4088,1.4088,1.4088,1.4088,1.4088,1.4088,1.4088,1.4088,1.4088,1.4088,1.4088,1.4088,1.4088,1.4088,1.4088,0.8713,0.8814,0.8824,0.8635,0.8187,0.7594,0.6753,0.6057,0.542,0.4813,0.4597,0.4508,0.4569,0.4677,0.4914,0.5295,0.5565,0.6027,0.681,0.7204,0.7634,0.8235,0.852,0.8737,0.8865,0.8885,0.8885,0.8885,0.8885,0.8935,0.911,0.9117,0.9086,0.9025,0.9025,0.8994,0.8885,1.181,1.3318,1.3318,1.6227,1.7582,1.7582,1.7582,1.7488,1.7367,1.7253,1.6998,0.0,1.6415,1.6166,1.5999,1.5831,1.5784,1.5784,1.5784,1.5784,1.5784,1.5784,1.5784,1.5784,1.5784,1.5784,1.5784,1.5784,1.5784,1.5784,1.5784,1.5784,1.5784,1.5784,1.5784,1.5784,1.5784,1.5784,1.5784,1.5784,1.5784,1.5784,1.5784,1.5684,1.5658,1.5658,1.5418,1.5124,1.483,1.4636,1.4416,1.4122,1.4088,1.4088,1.4088,1.4088,1.4088,1.4088,1.4088,1.4088,1.4088,1.4088,1.4088,1.4088,1.4088,1.4088,1.4088,1.4088,1.4088,1.4088,1.4088,1.4175,1.4349,1.4349,1.4442,0.8459,0.8689,0.873,0.8428,0.8014,0.7448,0.6546,0.6098,0.5609,0.4807,0.4731,0.4732,0.4546,0.458,0.4707,0.4958,0.5111,0.5481,0.6334,0.6654,0.7115,0.7833,0.8235,0.852,0.8777,0.8831,0.8885,0.8885,0.8885,0.8885,0.8885,0.932,0.9533,0.9533,0.9533,0.9754,1.0186,1.2674,1.3911,1.3965,1.6446,1.7582,1.7582,1.7548,1.7393,1.7192,1.7018,1.6703,0.0,1.6179,1.6019,1.5784,1.5784,1.5784,1.5784,1.5784,1.5784,1.5784,1.5784,1.5784,1.5784,1.5784,1.5784,1.5784,1.5784,1.5784,1.5784,1.5784,1.5784,1.5784,1.5784,1.5784,1.5784,1.5784,1.5784,1.5784,1.5784,1.5784,1.5784,1.5784,1.5784,1.5784,1.5784,1.5658,1.5424,1.5182,1.491,1.4643,1.4262,1.4215,1.4182,1.4095,1.4088,1.4088,1.4088,1.4088,1.4088,1.4088,1.4088,1.4088,1.4088,1.4088,1.4088,1.4088,1.4088,1.4088,1.4088,1.4088,1.4235,1.4522,1.4522,1.4723,0.8153,0.8377,0.8414,0.8066,0.7706,0.7139,0.6202,0.62,0.6042,0.4755,0.503,0.5296,0.4625,0.4491,0.4542,0.467,0.5098,0.5607,0.6218,0.6766,0.726,0.776,0.8085,0.8381,0.8472,0.876,0.8885,0.8885,0.8885,0.8885,0.8885,1.0296,1.1055,1.1055,1.1055,1.1755,1.3264,1.4663,1.5364,1.5417,1.6876,1.7582,1.7569,1.734,1.7206,1.7166,1.6583,1.6328,0.0,1.5952,1.5784,1.5784,1.5784,1.5784,1.5784,1.5784,1.5784,1.5784,1.5784,1.5784,1.5784,1.5784,1.5784,1.5784,1.5784,1.5784,1.5784,1.5784,1.5784,1.5784,1.5784,1.5784,1.5784,1.5784,1.5784,1.5784,1.5784,1.5784,1.5784,1.5784,1.5784,1.5784,1.5784,1.5778,1.5678,1.5438,1.5391,1.5177,1.4589,1.4516,1.4402,1.4122,1.4088,1.4088,1.4088,1.4088,1.4088,1.4088,1.4088,1.4088,1.4088,1.4088,1.4088,1.4088,1.4088,1.4088,1.4088,1.4088,1.4235,1.4522,1.4522,1.4836,0.7258,0.7536,0.7651,0.7353,0.7017,0.6617,0.5884,0.5622,0.5307,0.465,0.468,0.4759,0.4546,0.4491,0.4641,0.5105,0.53,0.5607,0.6214,0.6685,0.7119,0.7614,0.8296,0.8747,0.8791,0.8828,0.8885,0.8885,0.8885,0.8885,0.8885,0.932,1.0076,1.1051,1.2077,1.2837,1.3318,1.4716,1.5417,1.5417,1.6876,1.7475,1.7333,1.7246,1.6978,1.6589,1.6402,1.6159,1.5965,1.5824,1.5784,1.5784,1.5784,1.5784,1.5784,1.5784,1.5784,1.5784,1.5784,1.5784,1.5784,1.5784,1.5784,1.5784,1.5784,1.5784,1.5784,1.5784,1.5784,1.5784,1.5784,1.5784,1.5784,1.5784,1.5784,1.5784,1.5784,1.5784,1.5784,1.5784,1.5784,1.5784,1.5784,1.5784,1.5732,1.5438,1.5398,1.5257,1.4877,1.4823,1.513,1.5879,1.5189,1.4566,1.4122,1.4088,1.4088,1.4088,1.4088,1.4175,1.4376,1.4382,1.4476,1.4727,1.4733,1.4733,1.4733,1.4733,1.4836,1.5124,1.5317,1.5511,0.6532,0.6892,0.7048,0.6753,0.6488,0.6149,0.5552,0.5417,0.527,0.4629,0.4708,0.4787,0.4546,0.4491,0.4614,0.4993,0.515,0.5436,0.604,0.6474,0.7007,0.7685,0.8357,0.8791,0.8849,0.8851,0.8885,0.8885,0.8885,0.8885,0.8885,0.9427,1.0131,1.1051,1.2512,1.3804,1.4936,1.5796,1.6227,1.6227,1.7042,1.7373,1.7192,1.6971,1.667,1.6315,1.6152,1.5999,0.0,1.5784,1.5784,1.5784,1.5784,1.5784,1.5784,1.5784,1.5784,1.5784,1.5784,1.5784,1.5784,1.5784,1.5784,1.5784,1.5784,1.5784,1.5784,1.5784,1.5784,1.5784,1.5784,1.5784,1.5784,1.5784,1.5784,1.5784,1.5784,1.5784,1.5784,1.5784,1.5784,1.5784,1.5784,1.5784,1.5718,1.5585,1.5558,1.5451,1.5209,1.5562,1.6076,1.6734,1.6514,1.6228,1.5824,1.5376,1.5028,1.4873,1.5014,1.4995,1.4676,1.4689,1.4776,1.5008,1.5008,1.5008,1.5008,1.5115,1.5217,1.5404,1.5698,1.5784,0.0,0.6363,0.6522,0.6276,0.6057,0.5764,0.5197,0.5544,0.0,0.4772,0.5058,0.5304,0.4709,0.456,0.4511,0.4576,0.4796,0.5189,0.5783,0.6278,0.6953,0.7901,0.8333,0.857,0.8713,0.891,0.9047,0.9047,0.9154,0.921,0.921,1.0511,1.1324,1.1378,1.2724,1.4722,1.7417,1.7529,1.7569,1.7549,1.7333,1.7179,1.7119,1.6569,1.6308,1.6226,1.585,1.573,1.5778,1.5683,1.573,1.5784,1.5784,1.5784,1.5784,1.5784,1.5784,1.5784,1.5784,1.5784,1.5784,1.5784,1.5784,1.5784,1.5784,1.5784,1.5784,1.5784,1.5784,1.5784,1.5784,1.5784,1.5784,1.5784,1.5784,1.5784,1.5784,1.5784,1.5784,1.5784,1.5784,1.5784,1.5784,1.5784,1.5784,1.5784,1.5784,1.5732,1.5464,1.6493,1.7169,1.6993,1.8012,1.874,1.8887,1.7688,1.6758,1.632,1.6677,1.6389,1.5208,1.517,1.5138,1.5068,1.5068,1.5068,1.5068,1.5297,1.5431,1.5431,1.5705,1.5784,0.5003,0.0,0.5423,0.5277,0.5206,0.5083,0.0,0.535,0.5743,0.5345,0.5378,0.552,0.5635,0.5015,0.4716,0.5376,0.5549,0.5803,0.6403,0.717,0.7845,0.8319,0.8645,0.879,0.8824,0.9892,1.0566,1.0566,1.1647,1.2295,1.2295,1.2566,1.3264,1.4341,1.4716,1.5257,1.5902,1.7041,1.7521,1.73,1.7233,1.6965,1.6522,1.6382,1.6146,1.5884,1.4783,1.4902,1.573,1.4752,1.4902,1.5784,1.5784,1.5784,1.5784,1.5784,1.5784,1.5784,1.5784,1.5784,1.5784,1.5784,1.5784,1.5784,1.5784,1.5784,1.5784,1.5784,1.5784,1.5784,1.5784,1.5784,1.5784,1.5784,1.5784,1.5784,1.5784,1.5784,1.5784,1.5784,1.5784,1.5784,1.5784,1.5784,1.5784,1.5784,1.5784,1.5758,1.5684,1.6782,1.7896,1.8752,1.9106,1.9935,2.1461,1.9488,1.8116,1.8026,1.8108,1.7747,1.6727,1.6696,1.6373,1.5618,1.5625,1.5625,1.5625,1.5698,1.5732,1.5732,1.5751,1.5784,0.4614,0.4904,0.5203,0.5022,0.4985,0.4945,0.483,0.4999,0.5254,0.5454,0.5515,0.5714,0.6397,0.5773,0.5385,0.5966,0.5909,0.6057,0.68,0.7513,0.832,0.9164,0.9016,0.905,0.9643,1.0446,1.0929,1.0929,1.2118,1.2908,1.2908,1.2908,1.3225,1.4013,1.4699,1.5497,1.6387,1.7069,1.7353,1.7199,1.6924,1.663,1.6266,1.6132,1.5979,1.573,1.4459,1.4609,1.5683,1.4411,1.4657,1.5784,1.5784,1.5784,1.5784,1.5784,1.5784,1.5784,1.5784,1.5784,1.5784,1.5784,1.5784,1.5784,1.5784,1.5784,1.5784,1.5784,1.5784,1.5784,1.5784,1.5784,1.5784,1.5784,1.5784,1.5784,1.5784,1.5784,1.5784,1.5784,1.5784,1.5784,1.5784,1.5784,1.5784,1.5784,1.5784,1.5784,1.5784,1.6897,1.8141,1.936,1.9997,2.1007,2.264,2.1466,2.033,1.9627,1.9731,1.9339,1.8281,1.7713,1.6943,1.5825,1.6929,1.6929,1.5784,1.6386,1.6662,1.6669,1.6062,1.6109,0.4545,0.4969,0.5341,0.5084,0.5032,0.5022,0.4887,0.4733,0.4842,0.5515,0.57,0.6077,0.7182,0.6685,0.6233,0.659,0.6272,0.6334,0.7386,0.7798,0.8535,1.0037,0.9279,0.9205,1.0527,1.0841,1.1053,1.1261,1.2403,1.3069,1.3069,1.3069,1.3069,1.3069,1.4247,1.5749,1.7442,1.7259,1.7112,1.7065,1.6563,1.6253,1.6192,1.5945,1.5784,1.573,0.0,0.0,1.5683,1.4411,1.4657,1.5784,1.5784,1.5784,1.5784,1.5784,1.5784,1.5784,1.5784,1.5784,1.5784,1.5784,1.5784,1.5784,1.5784,1.5784,1.5784,1.5784,1.5784,1.5784,1.5784,1.5784,1.5784,1.5784,1.5784,1.5784,1.5784,1.5784,1.5784,1.5784,1.5784,1.5784,1.5784,1.5784,1.5784,1.5784,1.5784,1.5784,1.5784,1.6897,1.8095,1.9131,2.0458,2.1686,2.2731,2.3003,2.2533,2.1138,2.1386,2.1025,1.9807,1.8634,1.7451,1.6379,1.8442,1.8488,1.6379,1.7451,1.7956,1.7963,1.6662,1.6662,0.4779,0.5101,0.5266,0.4726,0.4758,0.4877,0.4624,0.4958,0.5546,0.6285,0.6651,0.7247,0.8474,0.7543,0.6836,0.7622,0.7289,0.7464,0.9171,0.8571,0.8535,1.0037,0.9227,0.9035,1.0329,1.1568,1.2751,1.3833,1.5241,1.6035,1.6035,1.6035,1.6035,1.6035,1.6242,1.6546,1.684,1.68,1.6647,1.6455,1.6319,1.6139,1.5899,1.5804,1.5784,1.573,0.0,1.4609,1.5683,1.4411,1.4657,1.5784,1.5784,1.5784,1.5784,1.5784,1.5784,1.5784,1.5784,1.5784,1.5784,1.5784,1.5784,1.5784,1.5784,1.5784,1.5784,1.5784,1.5784,1.5784,1.5784,1.5784,1.5784,1.5784,1.5784,1.5784,1.5784,1.5784,1.5784,1.5784,1.5784,1.5784,1.5784,1.5784,1.5784,1.5784,1.5784,1.5784,1.5784,1.6897,1.7777,1.7963,1.9988,2.1391,2.1569,2.2492,2.2974,2.2732,2.278,2.2262,2.1069,1.9852,1.9131,1.8948,1.9314,1.9314,1.8948,1.9131,1.9222,1.9177,1.8002,1.7505,0.4662,0.4894,0.5057,0.4779,0.5057,0.5338,0.5153,0.5281,0.5639,0.6332,0.6616,0.7072,0.8249,0.7616,0.7269,0.8427,0.8488,0.8984,1.0608,1.0404,1.0368,1.1046,1.0731,1.0748,1.1304,1.2622,1.3635,1.4242,1.5466,1.6233,1.6233,1.6233,1.6233,1.6233,1.6233,1.6233,1.6233,1.6233,1.6246,1.6321,1.6112,1.5965,1.5784,1.5784,1.5784,1.573,0.0,1.4609,1.5683,1.4411,1.4657,1.5784,1.5784,1.5784,1.5784,1.5784,1.5784,1.5784,1.5784,1.5784,1.5784,1.5784,1.5784,1.5784,1.5784,1.5784,1.5784,1.5784,1.5784,1.5784,1.5784,1.5784,1.5784,1.5784,1.5784,1.5784,1.5784,1.5784,1.5784,1.5784,1.5784,1.5784,1.5784,1.5784,1.5784,1.5784,1.5784,1.5784,1.5784,1.6292,1.6943,1.7645,1.9268,2.0567,2.1248,2.2403,2.3091,2.3091,2.3091,2.2536,2.1337,2.14,2.0539,1.8549,2.0449,2.0503,1.8549,1.9852,2.0486,2.044,1.9222,1.868,0.458,0.4741,0.4904,0.5006,0.5335,0.5637,0.5599,0.5504,0.5608,0.6376,0.6789,0.7267,0.8,0.8025,0.8198,0.9052,0.9683,1.0547,1.1994,1.2026,1.1999,1.2334,1.2239,1.2242,1.2584,1.3484,1.4178,1.4472,1.5316,1.5784,1.5784,1.5784,1.5784,1.5784,1.5784,1.5784,1.5784,1.5784,1.5945,1.6166,1.5939,1.5784,1.5784,1.5784,1.5784,1.573,1.4752,1.4902,1.573,1.4752,1.4902,1.5784,1.5784,1.5784,1.5784,1.5784,1.5784,1.5784,1.5784,1.5784,1.5784,1.5784,1.5784,1.5784,1.5784,1.5784,1.5784,1.5784,1.5784,1.5784,1.5784,1.5784,1.5784,1.5784,1.5784,1.5784,1.5784,1.5784,1.5784,1.5784,1.5784,1.5784,1.5784,1.5784,1.5784,1.5784,1.5784,1.5784,1.5784,1.5784,1.615,1.7131,1.8588,2.0079,2.1569,2.2589,2.3091,2.3091,2.3091,2.2677,2.1756,2.2633,2.1686,1.8596,2.1543,2.1596,1.8549,2.0666,2.1702,2.1712,2.0486,1.9898,0.4809,0.487,0.4986,0.5293,0.5254,0.5218,0.5525,0.5504,0.5672,0.6651,0.7955,0.8814,0.8612,0.9537,1.0173,0.9546,1.0749,1.219,1.3555,1.2662,1.2382,1.359,1.2684,1.2403,1.3661,1.3854,1.4388,1.5566,1.5743,1.5784,1.5784,1.5784,1.5784,1.5784,1.5784,1.5784,1.5784,1.5784,1.5791,1.5865,1.5791,1.5784,1.5784,1.5784,1.5784,1.5778,1.5683,1.573,1.5778,1.5683,1.573,1.5784,1.5784,1.5784,1.5784,1.5784,1.5784,1.5784,1.5784,1.5784,1.5784,1.5784,1.5784,1.5784,1.5784,1.5784,1.5784,1.5784,1.5784,1.5784,1.5784,1.5784,1.5784,1.5784,1.5784,1.5784,1.5784,1.5784,1.5784,1.5784,1.5784,1.5784,1.5784,1.5784,1.5784,1.5784,1.5784,1.5784,1.5784,1.5784,1.5832,1.592,1.8079,2.0449,2.2775,2.3047,2.3091,2.3091,2.3091,2.3047,2.296,2.3047,2.2448,2.1069,2.2403,2.2403,2.1025,2.235,2.296,2.295,2.1712,2.1159,0.4631,0.4772,0.4935,0.5169,0.5318,0.5518,0.5951,0.6067,0.6277,0.6913,0.8143,0.905,0.8928,0.8738,0.9095,1.049,1.1415,1.2624,1.48,1.4663,1.4226,1.3926,1.4172,1.422,1.3926,1.4609,1.5289,1.5778,1.5784,1.5784,1.5784,1.5784,1.5784,1.5784,1.5784,1.5784,1.5784,1.5784,1.5784,1.5784,1.5784,1.5784,1.5784,1.5784,1.5784,1.5784,1.5784,1.5784,1.5784,1.5784,1.5784,1.5784,1.5784,1.5784,1.5784,1.5784,1.5784,1.5784,1.5784,1.5784,1.5784,1.5784,1.5784,1.5784,1.5784,1.5784,1.5784,1.5784,1.5784,1.5784,1.5784,1.5784,1.5784,1.5784,1.5784,1.5784,1.5784,1.5784,1.5784,1.5784,1.5784,1.5784,1.5784,1.5784,1.5784,1.5784,1.5784,1.5784,1.5784,1.5784,1.5784,1.5784,1.8033,2.0494,2.2916,2.3091,2.3091,2.3091,2.3091,2.3091,2.3091,2.2403,2.1756,2.1293,2.1756,2.1756,2.1293,2.2492,2.3091,2.3091,2.2633,2.2031,0.4563,0.4687,0.4904,0.5142,0.5362,0.5719,0.6325,0.6508,0.6792,0.7639,0.8788,0.9763,1.0173,0.9647,0.9809,1.174,1.2645,1.374,1.554,1.5784,1.5486,1.4603,1.5289,1.5439,1.4561,1.5289,1.5784,1.5784,1.5784,1.5784,1.5784,1.5784,1.5784,1.5784,1.5784,1.5784,1.5784,1.5784,1.5784,1.5784,1.5784,1.5784,1.5784,1.5784,1.5784,1.5784,1.5784,1.5784,1.5784,1.5784,1.5784,1.5784,1.5784,1.5784,1.5784,1.5784,1.5784,1.5784,1.5784,1.5784,1.5784,1.5784,1.5784,1.5784,1.5784,1.5784,1.5784,1.5784,1.5784,1.5784,1.5784,1.5784,1.5784,1.5784,1.5784,1.5784,1.5784,1.5784,1.5784,1.5784,1.5784,1.5784,1.5784,1.5784,1.5784,1.5784,1.5784,1.5784,1.5784,1.5784,1.5967,1.6339,1.8265,2.0314,2.2359,2.2862,2.3091,2.3091,2.3091,2.3091,2.3091,2.2306,2.1712,2.1293,2.1658,2.1658,2.1293,2.2492,2.3091,2.3091,2.3091,2.2677,0.4687,0.4694,0.4802,0.5283,0.5399,0.5678,0.6692,0.6814,0.7207,0.8966,1.0113,1.124,1.2543,1.2909,1.3049,1.3176,1.4642,1.5778,1.5784,1.5784,1.5784,1.5784,1.5784,1.5784,1.5784,1.5784,1.5784,1.5784,1.5784,1.5784,1.5784,1.5784,1.5784,1.5784,1.5784,1.5784,1.5784,1.5784,1.5784,1.5784,1.5784,1.5784,1.5784,1.5784,1.5784,1.5784,1.5784,1.5784,1.5784,1.5784,1.5784,1.5784,1.5784,1.5784,1.5784,1.5784,1.5784,1.5784,1.5784,1.5784,1.5784,1.5784,1.5784,1.5784,1.5784,1.5784,1.5784,1.5784,1.5784,1.5784,1.5784,1.5784,1.5784,1.5784,1.5784,1.5784,1.5784,1.5784,1.5784,1.5784,1.5784,1.5784,1.5784,1.5784,1.5784,1.5784,1.5784,1.5784,1.5784,1.5784,1.6292,1.7552,1.8772,1.9988,2.1203,2.2403,2.3101,2.3091,2.3091,2.3091,2.3091,2.3091,2.2545,2.1337,2.2492,2.2492,2.1337,2.2536,2.3091,2.3091,2.3091,2.3091,0.4586,0.4758,0.506,0.5334,0.5791,0.632,0.681,0.6927,0.7779,1.0543,1.1283,1.184,1.321,1.2669,1.2414,1.3385,1.4051,1.48,1.5683,1.5784,1.5784,1.5784,1.5784,1.5784,1.5784,1.5784,1.5784,1.5784,1.5784,1.5784,1.5784,1.5784,1.5784,1.5784,1.5784,1.5784,1.5784,1.5784,1.5784,1.5784,1.5784,1.5784,1.5784,1.5784,1.5784,1.5784,1.5784,1.5784,1.5784,1.5784,1.5784,1.5784,1.5784,1.5784,1.5784,1.5784,1.5784,1.5784,1.5784,1.5784,1.5784,1.5784,1.5784,1.5784,1.5784,1.5784,1.5784,1.5784,1.5784,1.5784,1.5784,1.5784,1.5784,1.5784,1.5784,1.5784,1.5784,1.5784,1.5784,1.5784,1.5784,1.5784,1.5784,1.5784,1.5784,1.5784,1.5784,1.5784,1.5784,1.5784,1.6292,1.7552,1.8002,1.9093,2.1114,2.1614,2.2217,2.3047,2.3091,2.3091,2.3091,2.2262,2.2076,2.2536,2.2076,2.2076,2.2589,2.2916,2.3091,2.3091,2.3091,2.3091,0.5155,0.5241,0.5287,0.5559,0.6088,0.6614,0.7156,0.8106,0.9631,1.2145,1.2961,1.3409,1.422,1.3695,1.3409,1.426,1.453,1.4902,1.5683,1.5784,1.5784,1.5784,1.5784,1.5784,1.5784,1.5784,1.5784,1.5784,1.5784,1.5784,1.5784,1.5784,1.5784,1.5784,1.5784,1.5784,1.5784,1.5784,1.5784,1.5784,1.5784,1.5784,1.5784,1.5784,1.5784,1.5784,1.5784,1.5784,1.5784,1.5784,1.5784,1.5784,1.5784,1.5784,1.5784,1.5784,1.5784,1.5784,1.5784,1.5784,1.5784,1.5784,1.5784,1.5784,1.5784,1.5784,1.5784,1.5784,1.5784,1.5784,1.5784,1.5784,1.5784,1.5784,1.5784,1.5784,1.5784,1.5784,1.5784,1.5784,1.5784,1.5784,1.5784,1.5784,1.5784,1.5784,1.5784,1.5784,1.5784,1.5784,1.6109,1.685,1.7816,1.9001,2.044,2.148,2.235,2.3047,2.3091,2.3091,2.3091,2.2403,2.2359,2.3101,2.2403,2.235,2.3091,2.3091,2.3091,2.3091,2.3091,2.3091,0.5987,0.5843,0.5508,0.5935,0.6315,0.6874,0.79,1.001,1.2078,1.3442,1.4606,1.5438,1.5438,1.5438,1.5438,1.5438,1.5658,1.5784,1.5784,1.5784,1.5784,1.5784,1.5784,1.5784,1.5784,1.5784,1.5784,1.5784,1.5784,1.5784,1.5784,1.5784,1.5784,1.5784,1.5784,1.5784,1.5784,1.5784,1.5784,1.5784,1.5784,1.5784,1.5784,1.5784,1.5784,1.5784,1.5784,1.5784,1.5784,1.5784,1.5784,1.5784,1.5784,1.5784,1.5784,1.5784,1.5784,1.5784,1.5784,1.5784,1.5784,1.5784,1.5784,1.5784,1.5784,1.5784,1.5784,1.5784,1.5784,1.5784,1.5784,1.5784,1.5784,1.5784,1.5784,1.5784,1.5784,1.5784,1.5784,1.5784,1.5784,1.5784,1.5784,1.5784,1.5784,1.5784,1.5784,1.5784,1.5784,1.5784,1.5784,1.5784,1.794,1.936,1.9488,2.1632,2.3003,2.3091,2.3091,2.3091,2.3091,2.3091,2.3091,2.3091,2.3091,2.3091,2.3091,2.3091,2.3091,2.3091,2.3091,2.3091,0.5212,0.5318,0.5532,0.6105,0.679,0.7982,1.033,1.136,1.1938,1.2275,1.413,1.5684,1.5684,1.5684,1.5684,1.5684,1.5744,1.5784,1.5784,1.5784,1.5784,1.5784,1.5784,1.5784,1.5784,1.5784,1.5784,1.5784,1.5784,1.5784,1.5784,1.5784,1.5784,1.5784,1.5784,1.5784,1.5784,1.5784,1.5784,1.5784,1.5784,1.5784,1.5784,1.5784,1.5784,1.5784,1.5784,1.5784,1.5784,1.5784,1.5784,1.5784,1.5784,1.5784,1.5784,1.5784,1.5784,1.5784,1.5784,1.5784,1.5784,1.5784,1.5784,1.5784,1.5784,1.5784,1.5784,1.5784,1.5784,1.5784,1.5784,1.5784,1.5784,1.5784,1.5784,1.5784,1.5784,1.5784,1.5784,1.5784,1.5784,1.5784,1.5784,1.5784,1.5784,1.5784,1.5784,1.5784,1.5784,1.5784,1.5784,1.5784,1.7171,1.8457,1.9405,2.0845,2.2076,2.3047,2.3091,2.3091,2.3091,2.3091,2.3091,2.3091,2.3091,2.3091,2.3091,2.3091,2.3091,2.3091,2.3091,2.3091,0.5809,0.5726,0.5685,0.6393,0.7465,0.8717,1.0188,1.1195,1.1975,1.2501,1.4326,1.5784,1.5784,1.5784,1.5784,1.5784,1.5784,1.5784,1.5784,1.5784,1.5784,1.5784,1.5784,1.5784,1.5784,1.5784,1.5784,1.5784,1.5784,1.5784,1.5784,1.5784,1.5784,1.5784,1.5784,1.5784,1.5784,1.5784,1.5784,1.5784,1.5784,1.5784,1.5784,1.5784,1.5784,1.5784,1.5784,1.5784,1.5784,1.5784,1.5784,1.5784,1.5784,1.5784,1.5784,1.5784,1.5784,1.5784,1.5784,1.5784,1.5784,1.5784,1.5784,1.5784,1.5784,1.5784,1.5784,1.5784,1.5784,1.5784,1.5784,1.5784,1.5784,1.5784,1.5784,1.5784,1.5784,1.5784,1.5784,1.5784,1.5784,1.5784,1.5784,1.5784,1.5784,1.5784,1.5784,1.5784,1.5784,1.5784,1.5784,1.5784,1.7444,1.8818,1.9451,2.1123,2.2448,2.3047,2.3091,2.3091,2.3091,2.3091,2.3091,2.3091,2.3091,2.3091,2.3091,2.3091,2.3091,2.3091,2.3091,2.3091,0.653,0.6241,0.583,0.6678,0.7975,0.9156,0.953,1.0832,1.2255,1.3426,1.4816,1.5784,1.5784,1.5784,1.5784,1.5784,1.5784,1.5784,1.5784,1.5784,1.5784,1.5784,1.5784,1.5784,1.5784,1.5784,1.5784,1.5784,1.5784,1.5784,1.5784,1.5784,1.5784,1.5784,1.5784,1.5784,1.5784,1.5784,1.5784,1.5784,1.5784,1.5784,1.5784,1.5784,1.5784,1.5784,1.5784,1.5784,1.5784,1.5784,1.5784,1.5784,1.5784,1.5784,1.5784,1.5784,1.5784,1.5784,1.5784,1.5784,1.5784,1.5784,1.5784,1.5784,1.5784,1.5784,1.5784,1.5784,1.5784,1.5784,1.5784,1.5784,1.5784,1.5784,1.5784,1.5784,1.5784,1.5784,1.5784,1.5784,1.5784,1.5784,1.5784,1.5784,1.5784,1.5784,1.5784,1.5784,1.5784,1.5784,1.5784,1.5784,1.7848,1.9268,1.9497,2.1543,2.2862,2.3101,2.3091,2.3091,2.3091,2.3091,2.3091,2.3091,2.3091,2.3091,2.3091,2.3091,2.3091,2.3091,2.3091,2.3091,0.5729,0.5666,0.5925,0.6569,0.7846,0.9279,1.0582,1.1887,1.3207,1.4508,1.5312,1.5784,1.5784,1.5784,1.5784,1.5784,1.5784,1.5784,1.5784,1.5784,1.5784,1.5784,1.5784,1.5784,1.5784,1.5784,1.5784,1.5784,1.5784,1.5784,1.5784,1.5784,1.5784,1.5784,1.5784,1.5784,1.5784,1.5784,1.5784,1.5784,1.5784,1.5784,1.5784,1.5784,1.5784,1.5784,1.5784,1.5784,1.5784,1.5784,1.5784,1.5784,1.5784,1.5784,1.5784,1.5784,1.5784,1.5784,1.5784,1.5784,1.5784,1.5784,1.5784,1.5784,1.5784,1.5784,1.5784,1.5784,1.5784,1.5784,1.5784,1.5784,1.5784,1.5784,1.5784,1.5784,1.5784,1.5784,1.5784,1.5784,1.5784,1.5784,1.5784,1.5784,1.5784,1.5784,1.5784,1.5784,1.5784,1.5784,1.5784,1.5784,1.7084,1.8365,1.9397,2.0755,2.1987,2.3047,2.3091,2.3091,2.3091,2.3091,2.3091,2.3091,2.3091,2.3091,2.3091,2.3091,2.3091,2.3091,2.3091,2.3091,0.6369,0.7143,0.799,0.8047,0.9225,1.0554,1.1373,1.2249,1.3254,1.4482,1.505,1.5344,1.5344,1.5344,1.5344,1.5344,1.5344,1.5398,1.5565,1.5585,1.5645,1.5764,1.5784,1.5784,1.5784,1.5784,1.5784,1.5784,1.5784,1.5784,1.5784,1.5784,1.5784,1.5784,1.5784,1.5784,1.5784,1.5784,1.5784,1.5784,1.5784,1.5784,1.5784,1.5784,1.5784,1.5784,1.5784,1.5784,1.5784,1.5784,1.5784,1.5784,1.5784,1.5784,1.5784,1.5784,1.5784,1.5784,1.5784,1.5784,1.5784,1.5784,1.5784,1.5784,1.5784,1.5784,1.5784,1.5784,1.5784,1.5784,1.5784,1.5784,1.5784,1.5784,1.5784,1.5784,1.5784,1.5784,1.5784,1.5784,1.5784,1.5784,1.5784,1.5784,1.5784,1.5784,1.5784,1.5784,1.5784,1.5784,1.5784,1.5784,1.7529,1.8642,1.8503,2.0215,2.1525,2.2076,2.2076,2.2394,2.3047,2.3091,2.3091,2.3091,2.3091,2.3091,2.3091,2.3091,2.3091,2.3091,2.3091,2.3091,0.7039,0.8014,0.8848,0.8836,1.0014,1.1314,1.1595,1.2362,1.3225,1.4117,1.4536,1.4787,1.4787,1.4908,1.5008,1.5008,1.5008,1.5082,1.5257,1.5291,1.5364,1.5585,1.5671,1.5718,1.5718,1.5738,1.5784,1.5784,1.5784,1.5784,1.5784,1.5784,1.5784,1.5784,1.5784,1.5784,1.5784,1.5784,1.5784,1.5784,1.5784,1.5784,1.5784,1.5784,1.5784,1.5784,1.5784,1.5784,1.5784,1.5784,1.5784,1.5784,1.5784,1.5784,1.5784,1.5784,1.5784,1.5784,1.5784,1.5784,1.5784,1.5784,1.5784,1.5784,1.5784,1.5784,1.5784,1.5784,1.5784,1.5784,1.5784,1.5784,1.5784,1.5784,1.5784,1.5784,1.5784,1.5784,1.5784,1.5784,1.5784,1.5784,1.5784,1.5784,1.5784,1.5784,1.5784,1.5784,1.5784,1.5784,1.5784,1.5784,1.7483,1.8311,1.7731,1.936,2.0531,2.08,2.1114,2.1702,2.2633,2.295,2.3091,2.3091,2.3091,2.3091,2.3091,2.3091,2.3091,2.3091,2.3091,2.3091,0.7258,0.7041,0.6805,0.7805,0.9273,1.0558,1.0947,1.2357,1.3564,1.3646,1.3921,1.4135,1.4135,1.4633,1.5008,1.5008,1.5008,1.5015,1.5028,1.5028,1.5035,1.5055,1.5251,1.5418,1.5418,1.5665,1.5784,1.5784,1.5784,1.5784,1.5784,1.5784,1.5784,1.5784,1.5784,1.5784,1.5784,1.5784,1.5784,1.5784,1.5784,1.5784,1.5784,1.5784,1.5784,1.5784,1.5784,1.5784,1.5784,1.5784,1.5784,1.5784,1.5784,1.5784,1.5784,1.5784,1.5784,1.5784,1.5784,1.5784,1.5784,1.5784,1.5784,1.5784,1.5784,1.5784,1.5784,1.5784,1.5784,1.5784,1.5784,1.5784,1.5784,1.5784,1.5784,1.5784,1.5784,1.5784,1.5784,1.5784,1.5784,1.5784,1.5784,1.5784,1.5784,1.5784,1.5784,1.5784,1.5784,1.5784,1.5784,1.5784,1.592,1.648,1.7598,1.7824,1.8365,1.9542,2.0666,2.1337,2.1382,2.2492,2.3091,2.3091,2.3091,2.3091,2.3091,2.3091,2.3091,2.3091,2.3091,2.3091,0.7677,0.7857,0.813,0.8884,0.981,1.0665,1.115,1.2198,1.3126,1.332,1.3601,1.382,1.4048,1.4262,1.4402,1.4402,1.4402,1.4469,1.4656,1.4676,1.475,1.4988,1.5102,1.5117,1.5117,1.5384,1.5551,1.5551,1.5678,1.5784,1.5784,1.5784,1.5784,1.5784,1.5784,1.5784,1.5784,1.5784,1.5784,1.5784,1.5784,1.5784,1.5784,1.5784,1.5784,1.5784,1.5784,1.5784,1.5784,1.5784,1.5784,1.5784,1.5784,1.5784,1.5784,1.5784,1.5784,1.5784,1.5784,1.5784,1.5784,1.5784,1.5784,1.5784,1.5784,1.5784,1.5784,1.5784,1.5784,1.5784,1.5784,1.5784,1.5784,1.5784,1.5784,1.5784,1.5784,1.5784,1.5784,1.5784,1.5784,1.5784,1.5784,1.5784,1.5784,1.5784,1.5784,1.5784,1.5784,1.5784,1.5784,1.5784,1.6527,1.685,1.6527,1.7407,1.8133,1.855,1.9012,2.0082,2.192,2.2263,2.2775,2.351,2.3555,2.3418,2.3091,2.3091,2.3091,2.3091,2.3091,2.3091,0.7726,0.8112,0.8651,0.9365,0.9826,1.0321,1.1102,1.1891,1.2576,1.2846,1.318,1.3547,1.3881,1.3941,1.3975,1.4075,1.4088,1.4155,1.4349,1.4376,1.4449,1.4687,1.4807,1.4867,1.4861,1.5025,1.5198,1.5251,1.5431,0.0,1.5538,1.5538,1.5538,1.5538,1.5538,1.5585,1.5678,1.5685,1.5732,1.5784,1.5784,1.5784,1.5784,1.5784,1.5784,1.5784,1.5784,1.5784,1.5784,1.5784,1.5784,1.5784,1.5784,1.5784,1.5784,1.5784,1.5784,1.5784,1.5784,1.5784,1.5784,1.5784,1.5784,1.5784,1.5784,1.5784,1.5784,1.5784,1.5784,1.5784,1.5784,1.5784,1.5784,1.5784,1.5784,1.5784,1.5784,1.5784,1.5784,1.5784,1.5784,1.5784,1.5784,1.5784,1.5784,1.5784,1.5784,1.5784,1.5784,1.5919,1.5979,1.5979,1.6819,1.7026,1.6174,1.7016,1.7615,1.7615,1.7996,1.9093,2.101,2.1734,2.2502,2.3292,2.3632,2.3652,2.3315,2.3169,2.3091,2.3091,2.3091,2.3091,0.0,0.0,0.0,0.8964,0.9171,0.9477,1.0661,1.1383,1.1933,1.2211,1.2752,1.3267,1.3533,1.3586,1.3686,1.4015,1.4075,1.4088,1.4088,1.4088,1.4088,1.4088,1.4435,1.4609,1.4509,1.4624,1.4789,1.4995,1.5001,1.5008,1.5008,1.5008,1.5008,1.5008,1.5008,1.5142,1.5384,1.5391,1.5538,1.5764,1.5778,1.5784,1.5784,1.5784,1.5784,1.5784,1.5784,1.5784,1.5784,1.5784,1.5784,1.5784,1.5784,1.5784,1.5784,1.5784,1.5784,1.5784,1.5784,1.5784,1.5784,1.5784,1.5784,1.5784,1.5784,1.5784,1.5784,1.5784,1.5784,1.5784,1.5784,1.5784,1.5784,1.5784,1.5784,1.5784,1.5784,1.5784,1.5784,1.5784,1.5784,1.5784,1.5784,1.5784,1.5784,1.5784,1.5791,1.5798,1.5798,1.6106,1.6286,1.6286,1.6533,1.6707,1.6707,1.6714,1.672,1.672,1.7839,1.8523,1.8538,2.1035,2.2434,2.2434,2.332,2.3799,2.3789,2.3305,2.3091,2.3091,2.311,2.311,0.7524,0.0,0.0,0.0,0.0,0.0,0.9239,0.9866,1.0548,1.1442,1.1977,1.2465,1.3193,1.3327,1.3353,1.344,1.3808,1.4088,1.4088,1.4088,1.4088,1.4088,1.4204,1.4251,1.4208,1.4419,1.4592,0.0,1.4843,1.5008,1.5008,1.5008,1.5008,1.5008,1.5008,1.5048,1.5129,1.5291,1.5438,1.5518,1.5732,1.5784,1.5784,1.5784,1.5784,1.5784,1.5784,1.5784,1.5784,1.5784,1.5784,1.5784,1.5784,1.5784,1.5784,1.5784,1.5784,1.5784,1.5784,1.5784,1.5784,1.5784,1.5784,1.5784,1.5784,1.5784,1.5784,1.5784,1.5784,1.5784,1.5784,1.5784,1.5784,1.5784,1.5784,1.5784,1.5784,1.5784,1.5784,1.5784,1.5784,1.5784,1.5784,1.5784,1.5784,1.5784,1.6012,1.6152,1.6152,1.6406,1.6587,1.6587,1.666,1.6707,1.6707,1.6901,1.7079,1.7079,1.8268,1.9069,1.93,2.1705,2.2991,2.2829,2.3738,2.4092,2.3789,2.3305,2.3091,2.3101,2.3467,2.3613,0.7709,0.7882,0.8143,0.8245,0.0,0.0,0.8985,0.9345,0.976,1.0656,1.1216,1.1697,1.2345,1.2665,1.2872,1.2993,1.3414,1.3768,1.3888,1.4008,1.4088,1.4088,1.4088,1.4088,1.4088,1.4242,1.4342,1.4342,1.4496,1.464,1.464,1.464,1.464,1.464,1.464,1.47,1.4776,1.4943,1.5157,1.5398,1.5571,1.5712,1.5784,1.5784,1.5784,1.5784,1.5784,1.5784,1.5784,1.5784,1.5784,1.5784,1.5784,1.5784,1.5784,1.5784,1.5784,1.5784,1.5784,1.5784,1.5784,1.5784,1.5784,1.5784,1.5784,1.5784,1.5784,1.5784,1.5784,1.5784,1.5784,1.5784,1.5784,1.5784,1.5784,1.5784,1.5784,1.5784,1.5784,1.5784,1.5784,1.5784,1.5784,1.5784,1.5784,1.5784,1.5979,1.6132,1.6259,1.6526,1.6754,1.6874,1.7001,1.7323,1.7869,1.7582,1.7884,1.8986,1.9241,1.9433,1.9568,2.2112,2.3144,2.2487,2.3918,2.4482,2.4053,2.3393,2.3188,2.3418,2.3672,2.3887,0.8012,0.8243,0.8549,0.8751,0.8412,0.0,0.9272,0.9331,0.9364,0.9884,1.0461,1.0942,1.1235,1.1757,1.2198,1.2496,1.2857,1.3186,1.3507,1.3821,1.3988,1.3988,1.3988,1.4001,1.4035,1.4041,1.4048,1.4082,1.4088,1.4088,1.4088,1.4088,1.4088,1.4088,1.4088,1.4208,1.4469,1.4502,1.4783,1.5297,1.5331,1.5504,1.5785,1.5785,1.5751,1.5784,1.5784,1.5784,1.5784,1.5784,1.5784,1.5784,1.5784,1.5784,1.5784,1.5784,1.5784,1.5784,1.5784,1.5784,1.5784,1.5784,1.5784,1.5784,1.5784,1.5784,1.5784,1.5784,1.5784,1.5784,1.5784,1.5784,1.5784,1.5784,1.5784,1.5784,1.5784,1.5784,1.5784,1.5784,1.5784,1.5784,1.5784,1.5784,1.5784,1.5784,1.5811,1.5985,1.6279,1.658,1.6867,1.7219,1.7481,1.8146,1.9472,1.8506,1.8909,2.155,2.0692,1.9981,1.9834,2.2466,2.3276,2.1954,2.4033,2.4853,2.4414,2.3608,2.3477,2.3857,2.3906,2.4131,0.8671,0.8825,0.8998,0.8851,0.8871,0.0,0.8358,0.8751,0.9244,0.9357,0.9693,1.0131,1.0667,1.0854,1.0955,1.1015,1.1665,1.2405,1.3186,1.3347,1.338,1.338,1.338,1.3474,1.3666,1.3686,1.3828,1.4068,1.4088,1.4088,1.4088,1.4088,1.4088,1.4088,1.4088,1.4115,1.4168,1.4402,1.4576,1.4696,1.493,1.5204,1.5478,1.5478,1.5611,1.5784,1.5784,1.5784,1.5784,1.5784,1.5784,1.5784,1.5784,1.5784,1.5784,1.5784,1.5784,1.5784,1.5784,1.5784,1.5784,1.5784,1.5784,1.5784,1.5784,1.5784,1.5784,1.5784,1.5784,1.5784,1.5784,1.5784,1.5784,1.5784,1.5784,1.5784,1.5784,1.5784,1.5784,1.5784,1.5784,1.5784,1.5784,1.5784,1.5784,1.5784,1.6032,1.6293,1.6587,1.6881,1.7226,1.7468,1.7549,1.8146,1.9472,1.9376,1.993,2.16,2.2466,2.2416,2.1347,2.389,2.4658,2.3335,2.4487,2.4853,2.4414,2.4248,2.4209,2.4307,2.4648,2.491,0.9078,0.9098,0.9211,0.9245,0.9132,0.0,0.0,0.8671,0.8891,0.9151,0.9217,0.9426,1.0043,1.0151,1.0198,1.0314,1.0955,1.1578,1.1844,1.2652,1.3213,1.3213,1.3213,1.3267,1.3373,1.3387,1.3513,1.3841,1.4001,1.4088,1.4088,1.4088,1.4088,1.4088,1.4088,1.4088,1.4088,1.4229,1.4376,1.4522,1.4669,1.497,1.5398,1.5398,1.5558,1.5784,1.5784,1.5784,1.5784,1.5784,1.5784,1.5784,1.5784,1.5784,1.5784,1.5784,1.5784,1.5784,1.5784,1.5784,1.5784,1.5784,1.5784,1.5784,1.5784,1.5784,1.5784,1.5784,1.5784,1.5784,1.5784,1.5784,1.5784,1.5784,1.5784,1.5784,1.5784,1.5784,1.5784,1.5784,1.5784,1.5784,1.5784,1.5784,1.5784,1.5784,1.5952,1.6213,1.6647,1.6834,1.7094,1.7535,1.8199,1.9161,2.0538,2.0641,2.1499,2.3583,2.3692,2.3384,2.2717,2.4609,2.5382,2.4716,2.516,2.5293,2.5031,2.5031,2.4961,2.4746,2.4971,2.5233,0.963,0.959,0.965,0.9746,0.9499,0.9198,0.0,0.0,0.0,0.8984,0.8904,0.8951,0.9426,0.9512,0.9593,0.9826,1.0361,1.0661,1.0459,1.1724,1.2699,1.2699,1.2799,1.2893,1.2946,1.3006,1.314,1.3493,1.3674,1.3821,1.3988,1.4001,1.4028,1.4088,1.4088,1.4088,1.4088,1.4088,1.4208,1.4436,1.4436,1.4716,1.5231,1.5284,1.5471,1.5752,1.5758,1.5784,1.5784,1.5784,1.5784,1.5784,1.5784,1.5784,1.5784,1.5784,1.5784,1.5784,1.5784,1.5784,1.5784,1.5784,1.5784,1.5784,1.5784,1.5784,1.5784,1.5784,1.5784,1.5784,1.5784,1.5784,1.5784,1.5784,1.5784,1.5784,1.5784,1.5784,1.5784,1.5784,1.5784,1.5784,1.5784,1.5784,1.5784,1.5784,1.5784,1.6039,1.6627,1.6707,1.6934,1.7522,1.8812,2.0187,2.16,2.1954,2.3126,2.5538,2.4658,2.4097,2.4097,2.5118,2.5693,2.5693,2.5693,2.5693,2.5693,2.5693,2.5557,2.5195,2.5195,2.5391,1.0868,1.0982,1.0969,1.0254,1.0408,1.0347,0.8844,0.0,0.936,0.865,0.0,0.8831,0.8898,0.0,0.0,0.8951,0.9452,0.9849,0.9816,1.0439,1.0894,1.0894,1.1316,1.173,1.2033,1.2258,1.2645,1.322,1.2792,1.2852,1.3613,1.3653,1.3773,1.4082,1.4088,1.4088,1.4088,1.4088,1.4108,1.4135,1.4135,1.4309,1.4629,1.489,1.517,1.5464,1.5718,1.5784,1.5784,1.5784,1.5784,1.5784,1.5784,1.5784,1.5784,1.5784,1.5784,1.5784,1.5784,1.5784,1.5784,1.5784,1.5784,1.5784,1.5784,1.5784,1.5784,1.5784,1.5784,1.5784,1.5784,1.5784,1.5784,1.5784,1.5784,1.5784,1.5784,1.5784,1.5784,1.5784,1.5784,1.5784,1.5784,1.5784,1.5784,1.5784,1.5784,1.6039,1.6627,1.6707,1.6934,1.7522,1.8812,2.0187,2.16,2.2767,2.4097,2.5586,2.5586,2.5479,2.5479,2.5635,2.5693,2.5693,2.5693,2.5693,2.5693,2.5693,2.5664,2.5615,2.5615,2.5635,1.1069,1.1209,1.1256,1.0548,1.0593,1.0414,0.9158,0.9031,0.9118,0.8918,0.0,0.0,0.0,0.0,0.0,0.0,0.9158,0.9312,0.8998,0.9426,0.9987,1.0533,1.0807,0.0,1.1363,1.1623,1.1971,1.2405,1.2351,1.2545,1.3093,1.3413,1.366,1.3828,1.4001,1.4088,1.4088,1.4088,1.4088,1.4088,1.4088,1.4242,1.4479,1.4649,1.4957,1.5404,1.5524,1.5671,1.5784,1.5784,1.5784,1.5784,1.5784,1.5784,1.5784,1.5784,1.5784,1.5784,1.5784,1.5784,1.5784,1.5784,1.5784,1.5784,1.5784,1.5784,1.5784,1.5784,1.5784,1.5784,1.5784,1.5784,1.5784,1.5784,1.5784,1.5784,1.5784,1.5784,1.5784,1.5784,1.5784,1.5784,1.5784,1.5784,1.5784,1.5784,1.5979,1.6239,1.6653,1.6854,1.7172,1.7542,1.9517,2.1041,2.1643,2.3642,2.5118,2.5635,2.5693,2.5693,2.5693,2.5693,2.5693,2.5693,2.5693,2.5693,2.5693,2.5693,2.5693,2.5693,2.5693,2.5693,1.141,1.1503,1.149,1.078,1.0593,1.0338,0.9311,0.9058,0.9085,0.9184,0.9031,0.0,0.0,0.0,0.8778,0.8905,0.0,0.9038,0.8564,0.8784,0.9239,0.9916,1.0204,0.0,0.0,1.0868,1.1136,1.1631,1.167,1.1971,1.263,1.3113,1.3433,1.36,1.3935,1.4088,1.4088,1.4088,1.4088,1.4088,1.4088,1.4202,1.4402,1.4482,1.4756,1.5164,1.5324,1.5518,1.5718,1.5751,1.5784,1.5784,1.5784,1.5784,1.5784,1.5784,1.5784,1.5784,1.5784,1.5784,1.5784,1.5784,1.5784,1.5784,1.5784,1.5784,1.5784,1.5784,1.5784,1.5784,1.5784,1.5784,1.5784,1.5784,1.5784,1.5784,1.5784,1.5784,1.5784,1.5784,1.5784,1.5804,1.5939,1.5952,1.5952,1.5952,1.6199,1.65,1.6794,1.7065,1.7313,1.7549,2.0076,2.1702,2.1702,2.4146,2.5693,2.5693,2.5693,2.5693,2.5693,2.5693,2.5693,2.5693,2.5693,2.5693,2.5693,2.5693,2.5693,2.5693,2.5693,2.5693,1.2265,1.2265,1.1997,1.0881,1.0593,1.0285,0.9085,0.9252,0.9579,0.9271,0.965,0.998,0.9719,0.9682,0.9552,0.9244,0.9204,0.0,0.0,0.8571,0.8442,0.8469,0.9219,0.9826,0.0,0.99,1.0094,0.0,1.0501,1.0808,1.2238,1.2643,1.3079,1.3586,1.3935,1.4088,1.4088,1.4088,1.4088,1.4088,1.4088,1.4088,1.4108,1.4389,1.4529,1.4576,1.515,1.5398,1.5431,1.5712,1.5784,1.5784,1.5784,1.5784,1.5784,1.5784,1.5784,1.5784,1.5784,1.5784,1.5784,1.5784,1.5784,1.5784,1.5784,1.5784,1.5784,1.5784,1.5784,1.5784,1.5784,1.5784,1.5784,1.5784,1.5784,1.5784,1.5784,1.5784,1.5784,1.5784,1.5784,1.5919,1.6213,1.6259,1.6259,1.6259,1.6506,1.68,1.7146,1.7192,1.7313,1.7549,2.0076,2.1702,2.1702,2.4146,2.5693,2.5693,2.5693,2.5693,2.5693,2.5693,2.5693,2.5693,2.5693,2.5693,2.5693,2.5693,2.5693,2.5693,2.5693,2.5693,0.0,0.0,1.2906,1.1759,0.0,0.0,0.9653,0.9686,0.9826,0.9311,0.986,1.0291,0.9802,0.9715,0.9586,0.9257,0.9211,0.8978,0.0,0.7963,0.7873,0.8056,0.8684,0.9145,0.9239,0.9304,0.9599,1.0094,1.012,0.0,1.139,1.2084,1.2632,1.3079,1.3534,1.3888,1.4082,1.4088,1.4088,1.4088,1.4088,1.4088,1.4088,1.4188,1.4342,1.4543,1.4937,1.5217,1.5418,1.5712,1.5784,1.5784,1.5784,1.5784,1.5784,1.5784,1.5784,1.5784,1.5784,1.5784,1.5784,1.5784,1.5784,1.5784,1.5784,1.5784,1.5784,1.5784,1.5784,1.5784,1.5784,1.5784,1.5784,1.5784,1.5784,1.5784,1.5784,1.5784,1.5784,1.5784,1.5985,1.6152,1.6301,1.6643,1.6837,1.6587,1.6814,1.7085,1.7186,1.7367,1.7475,1.7569,2.0076,2.1702,2.1702,2.4146,2.5693,2.5693,2.5693,2.5693,2.5693,2.5693,2.5693,2.5693,2.5693,2.5693,2.5693,2.5693,2.5693,2.5693,2.5693,2.5693,1.4895,1.4787,0.0,1.2946,1.2741,0.0,1.0821,0.0,1.1445,1.0946,1.1,1.1245,1.1496,1.062,0.9883,0.9995,0.9562,0.8904,0.0,0.7756,0.7702,0.7879,0.8357,0.8697,0.8798,0.8758,0.8958,0.9486,0.9606,1.0,0.0,1.167,1.2368,1.277,1.3333,1.3746,1.4082,1.4088,1.4088,1.4088,1.4088,1.4088,1.4088,1.4088,1.4188,1.4389,1.479,1.5115,1.5277,1.5665,1.5784,1.5784,1.5784,1.5784,1.5784,1.5784,1.5784,1.5784,1.5784,1.5784,1.5784,1.5784,1.5784,1.5784,1.5784,1.5784,1.5784,1.5784,1.5784,1.5784,1.5784,1.5784,1.5784,1.5784,1.5784,1.5784,1.5784,1.5784,1.5858,1.5965,1.6146,1.6388,1.6596,1.6951,1.7132,1.6894,1.7166,1.7353,1.7353,1.7468,1.7582,1.7582,2.0076,2.2106,2.3026,2.4716,2.5693,2.5693,2.5693,2.5693,2.5693,2.5693,2.5693,2.5693,2.5693,2.5693,2.5693,2.5693,2.5693,2.5693,2.5693,2.5693]}]]